MYDAX CHILLER For Sector 8 Monochromators  S/N 120-0453             

Key: (Temperatures in Centigrade) 
A) System is ON or OFF
B) Actual Tank Temperature as sensed by the Output RTD                   
C) Set point Temperature 
D) Calculated temperature of the refrigerant line at the suction pressure transducer
E) Pressure in PSIg of the refrigerant line at the suction pressure transducer
F & G) Temperature in the refrigerant line at the Superheat and Condenser RTDs
H) Temperature in the refrigerant line at the Discharge RTD (2-stage design only)
I) Temperature in the refrigerant line at the Subcooler RTD (inactive)
J) Valve drives of evaporator 

----------- DATE ----------: A    B     C     D     E    F    G    H   I J

 last update: Wed Jul 17 18:54:00 PDT 2024
Wed Jul 17 18:53:11 PDT 2024 ON: 20.00 +20.0 19.90 -12.8 31.0 06 0A 0022 0A09 Alarm State:  0
Wed Jul 17 18:52:10 PDT 2024 ON: 20.00 +20.0 19.90 -12.8 31.0 06 09 0028 0913 Alarm State:  0
Wed Jul 17 18:51:08 PDT 2024 ON: 20.00 +20.0 19.89 -12.8 31.0 06 0A 001D 0924 Alarm State:  0
Wed Jul 17 18:50:07 PDT 2024 ON: 20.00 +20.0 19.89 -12.8 31.0 06 0A 001D 091C Alarm State:  0
Wed Jul 17 18:49:05 PDT 2024 ON: 19.99 +20.0 19.92 -12.8 31.0 06 08 0028 0928 Alarm State:  0
Wed Jul 17 18:48:04 PDT 2024 ON: 20.00 +20.0 19.90 -12.8 31.0 06 09 0032 0917 Alarm State:  0
Wed Jul 17 18:47:02 PDT 2024 ON: 20.00 +20.0 19.88 -12.8 31.0 06 0A 000A 0927 Alarm State:  0
Wed Jul 17 18:46:01 PDT 2024 ON: 19.99 +20.0 19.89 -12.8 31.0 06 0A 0014 0923 Alarm State:  0
Wed Jul 17 18:44:59 PDT 2024 ON: 19.99 +20.0 19.90 -12.8 30.9 06 09 001F 0918 Alarm State:  0
Wed Jul 17 18:43:58 PDT 2024 ON: 20.00 +20.0 19.89 -12.8 31.0 06 0A 0029 0923 Alarm State:  0
Wed Jul 17 18:42:56 PDT 2024 ON: 20.00 +20.0 19.89 -12.8 30.9 06 0A 0001 0910 Alarm State:  0
Wed Jul 17 18:41:55 PDT 2024 ON: 20.00 +20.0 19.89 -12.8 31.0 06 0A 0009 0920 Alarm State:  0
Wed Jul 17 18:40:53 PDT 2024 ON: 19.99 +20.0 19.89 -12.8 31.1 06 0A 0014 091B Alarm State:  0
Wed Jul 17 18:39:52 PDT 2024 ON: 20.00 +20.0 19.90 -12.8 31.0 06 09 001E 0919 Alarm State:  0
Wed Jul 17 18:38:50 PDT 2024 ON: 20.00 +20.0 19.91 -12.8 31.0 06 09 0025 0A05 Alarm State:  0
Wed Jul 17 18:37:49 PDT 2024 ON: 20.00 +20.0 19.88 -12.8 31.0 06 0A 002F 0922 Alarm State:  0
Wed Jul 17 18:36:47 PDT 2024 ON: 20.00 +20.0 19.89 -12.8 30.9 06 0A 0007 0929 Alarm State:  0
Wed Jul 17 18:35:45 PDT 2024 ON: 19.99 +20.0 19.88 -12.8 31.0 06 0A 0011 090D Alarm State:  0
Wed Jul 17 18:34:44 PDT 2024 ON: 20.00 +20.0 19.92 -12.8 31.0 06 09 000C 0A0C Alarm State:  0
Wed Jul 17 18:33:42 PDT 2024 ON: 20.00 +20.0 19.91 -12.8 31.0 06 09 0010 0920 Alarm State:  0
Wed Jul 17 18:32:41 PDT 2024 ON: 20.00 +20.0 19.89 -12.8 31.0 06 0A 001B 0916 Alarm State:  0
Wed Jul 17 18:31:39 PDT 2024 ON: 20.00 +20.0 19.90 -12.8 31.0 06 09 0025 091C Alarm State:  0
Wed Jul 17 18:30:38 PDT 2024 ON: 20.00 +20.0 19.90 -12.7 31.1 06 09 0026 0908 Alarm State:  0
Wed Jul 17 18:29:36 PDT 2024 ON: 19.99 +20.0 19.89 -12.7 31.0 06 0A 0028 0A0A Alarm State:  0
Wed Jul 17 18:28:25 PDT 2024 ON: 19.99 +20.0 19.90 -12.7 31.0 06 09 000A 090F Alarm State:  0
Wed Jul 17 18:27:24 PDT 2024 ON: 19.99 +20.0 19.90 -12.8 31.0 06 09 0014 092A Alarm State:  0
Wed Jul 17 18:26:22 PDT 2024 ON: 19.99 +20.0 19.89 -12.8 31.0 06 0A 001D 0916 Alarm State:  0
Wed Jul 17 18:25:21 PDT 2024 ON: 20.00 +20.0 19.90 -12.7 31.0 06 09 001D 0906 Alarm State:  0
Wed Jul 17 18:24:19 PDT 2024 ON: 20.00 +20.0 19.89 -12.7 31.0 06 0A 0022 090B Alarm State:  0
Wed Jul 17 18:23:18 PDT 2024 ON: 19.99 +20.0 19.88 -12.8 31.0 06 0A 002C 092D Alarm State:  0
Wed Jul 17 18:22:16 PDT 2024 ON: 19.99 +20.0 19.90 -12.8 30.9 06 09 0004 0926 Alarm State:  0
Wed Jul 17 18:21:15 PDT 2024 ON: 20.00 +20.0 19.90 -12.8 31.0 06 09 000E 0900 Alarm State:  0
Wed Jul 17 18:20:13 PDT 2024 ON: 19.98 +20.0 19.87 -12.7 31.0 06 0B 0019 091E Alarm State:  0
Wed Jul 17 18:19:12 PDT 2024 ON: 20.01 +20.0 19.88 -12.8 31.0 06 0A 001F 091A Alarm State:  0
Wed Jul 17 18:18:10 PDT 2024 ON: 19.99 +20.0 19.89 -12.7 31.0 06 0A 0010 0A00 Alarm State:  0
Wed Jul 17 18:17:08 PDT 2024 ON: 20.00 +20.0 19.89 -12.7 31.0 01 0A 0010 0A11 Alarm State:  0
Wed Jul 17 18:16:07 PDT 2024 ON: 20.00 +20.0 19.90 -12.8 31.1 06 09 0019 0914 Alarm State:  0
Wed Jul 17 18:15:05 PDT 2024 ON: 20.00 +20.0 19.90 -12.8 31.0 06 09 000B 0928 Alarm State:  0
Wed Jul 17 18:14:04 PDT 2024 ON: 20.00 +20.0 19.90 -12.7 31.0 06 09 0016 0918 Alarm State:  0
Wed Jul 17 18:13:02 PDT 2024 ON: 19.99 +20.0 19.91 -12.8 31.0 06 09 0018 0904 Alarm State:  0
Wed Jul 17 18:12:01 PDT 2024 ON: 20.00 +20.0 19.90 -12.7 31.0 06 09 0023 0926 Alarm State:  0
Wed Jul 17 18:10:59 PDT 2024 ON: 20.00 +20.0 19.89 -12.8 31.0 06 0A 002D 0911 Alarm State:  0
Wed Jul 17 18:09:58 PDT 2024 ON: 20.00 +20.0 19.90 -12.7 31.0 06 09 0005 0904 Alarm State:  0
Wed Jul 17 18:08:56 PDT 2024 ON: 20.00 +20.0 19.89 -12.8 30.9 06 0A 000F 0925 Alarm State:  0
Wed Jul 17 18:07:55 PDT 2024 ON: 20.01 +20.0 19.90 -12.7 31.0 06 09 0016 091A Alarm State:  0
Wed Jul 17 18:06:53 PDT 2024 ON: 20.01 +20.0 19.90 -12.8 31.0 06 0A 0010 0A16 Alarm State:  0
Wed Jul 17 18:05:52 PDT 2024 ON: 19.99 +20.0 19.89 -12.8 31.0 06 0A 0013 092A Alarm State:  0
Wed Jul 17 18:04:50 PDT 2024 ON: 20.00 +20.0 19.90 -12.8 31.0 06 09 001D 0921 Alarm State:  0
Wed Jul 17 18:03:49 PDT 2024 ON: 20.00 +20.0 19.88 -12.7 31.0 06 0A 0028 0909 Alarm State:  0
Wed Jul 17 18:02:47 PDT 2024 ON: 20.00 +20.0 19.88 -12.8 31.0 06 0A 002E 0913 Alarm State:  0
Wed Jul 17 18:01:46 PDT 2024 ON: 20.01 +20.0 19.88 -12.8 30.9 06 0A 0104 091B Alarm State:  0
Wed Jul 17 18:00:44 PDT 2024 ON: 19.99 +20.0 19.90 -12.8 31.0 06 09 0031 091B Alarm State:  0
Wed Jul 17 17:59:43 PDT 2024 ON: 20.00 +20.0 19.90 -12.7 31.0 06 0A 001C 0A05 Alarm State:  0
Wed Jul 17 17:58:41 PDT 2024 ON: 19.99 +20.0 19.89 -12.7 31.1 06 0A 0026 092C Alarm State:  0
Wed Jul 17 17:57:40 PDT 2024 ON: 19.99 +20.0 19.88 -12.8 31.0 06 0A 0031 091B Alarm State:  0
Wed Jul 17 17:56:38 PDT 2024 ON: 19.99 +20.0 19.87 -12.8 31.0 06 0B 0000 0921 Alarm State:  0
Wed Jul 17 17:55:37 PDT 2024 ON: 20.00 +20.0 19.89 -12.8 31.1 06 0A 000B 0927 Alarm State:  0
Wed Jul 17 17:54:35 PDT 2024 ON: 20.00 +20.0 19.90 -12.8 31.0 06 09 0015 0921 Alarm State:  0
Wed Jul 17 17:53:34 PDT 2024 ON: 19.98 +20.0 19.91 -12.8 31.0 06 09 001E 0927 Alarm State:  0
Wed Jul 17 17:52:32 PDT 2024 ON: 19.99 +20.0 19.89 -12.8 31.0 06 0A 0028 0926 Alarm State:  0
Wed Jul 17 17:51:31 PDT 2024 ON: 20.00 +20.0 19.90 -12.7 31.0 06 09 0100 090E Alarm State:  0
Wed Jul 17 17:50:29 PDT 2024 ON: 19.99 +20.0 19.88 -12.8 31.0 06 0A 0002 0907 Alarm State:  0
Wed Jul 17 17:49:28 PDT 2024 ON: 20.00 +20.0 19.89 -12.8 31.0 06 0A 000B 090A Alarm State:  0
Wed Jul 17 17:48:26 PDT 2024 ON: 20.00 +20.0 19.89 -12.8 31.0 06 0A 0015 0908 Alarm State:  0
Wed Jul 17 17:47:25 PDT 2024 ON: 19.99 +20.0 19.90 -12.8 31.0 06 0A 0004 0A05 Alarm State:  0
Wed Jul 17 17:46:23 PDT 2024 ON: 19.99 +20.0 19.91 -12.8 31.0 06 09 000E 091A Alarm State:  0
Wed Jul 17 17:45:22 PDT 2024 ON: 19.99 +20.0 19.88 -12.8 31.0 06 0A 0019 0914 Alarm State:  0
Wed Jul 17 17:44:20 PDT 2024 ON: 20.00 +20.0 19.89 -12.8 31.0 06 0A 0023 0922 Alarm State:  0
Wed Jul 17 17:43:19 PDT 2024 ON: 20.00 +20.0 19.89 -12.8 31.0 06 0A 002E 0927 Alarm State:  0
Wed Jul 17 17:42:17 PDT 2024 ON: 19.99 +20.0 19.90 -12.8 31.0 06 09 0005 0921 Alarm State:  0
Wed Jul 17 17:41:16 PDT 2024 ON: 19.99 +20.0 19.89 -12.7 31.0 06 0A 0010 0916 Alarm State:  0
Wed Jul 17 17:40:14 PDT 2024 ON: 20.00 +20.0 19.90 -12.8 31.0 06 09 000E 090C Alarm State:  0
Wed Jul 17 17:39:13 PDT 2024 ON: 20.00 +20.0 19.91 -12.8 30.9 06 09 0019 0924 Alarm State:  0
Wed Jul 17 17:38:11 PDT 2024 ON: 20.00 +20.0 19.89 -12.8 31.0 06 0A 0023 0917 Alarm State:  0
Wed Jul 17 17:37:10 PDT 2024 ON: 19.99 +20.0 19.88 -12.8 31.0 06 0B 0020 0A04 Alarm State:  0
Wed Jul 17 17:36:08 PDT 2024 ON: 19.99 +20.0 19.87 -12.8 31.0 06 0B 002A 0921 Alarm State:  0
Wed Jul 17 17:35:07 PDT 2024 ON: 20.00 +20.0 19.88 -12.8 31.0 06 0A 0002 0911 Alarm State:  0
Wed Jul 17 17:34:05 PDT 2024 ON: 20.00 +20.0 19.91 -12.8 31.0 06 09 0008 0912 Alarm State:  0
Wed Jul 17 17:33:04 PDT 2024 ON: 20.00 +20.0 19.89 -12.8 31.0 06 0A 0013 091F Alarm State:  0
Wed Jul 17 17:32:02 PDT 2024 ON: 20.00 +20.0 19.89 -12.8 31.0 06 0A 001D 090C Alarm State:  0
Wed Jul 17 17:31:01 PDT 2024 ON: 20.00 +20.0 19.88 -12.8 31.1 06 0A 0028 091B Alarm State:  0
Wed Jul 17 17:29:59 PDT 2024 ON: 19.99 +20.0 19.90 -12.8 31.0 06 09 0032 0915 Alarm State:  0
Wed Jul 17 17:28:58 PDT 2024 ON: 20.00 +20.0 19.90 -12.8 31.1 06 09 000A 091E Alarm State:  0
Wed Jul 17 17:27:56 PDT 2024 ON: 20.00 +20.0 19.88 -12.8 31.0 06 0A 0014 091C Alarm State:  0
Wed Jul 17 17:26:55 PDT 2024 ON: 20.00 +20.0 19.90 -12.8 31.0 03 09 001F 0907 Alarm State:  0
Wed Jul 17 17:25:53 PDT 2024 ON: 19.99 +20.0 19.89 -12.8 31.0 06 0A 0029 0914 Alarm State:  0
Wed Jul 17 17:24:52 PDT 2024 ON: 20.00 +20.0 19.90 -12.8 31.0 06 09 0001 0901 Alarm State:  0
Wed Jul 17 17:23:50 PDT 2024 ON: 20.00 +20.0 19.89 -12.8 31.0 01 0A 000B 0913 Alarm State:  0
Wed Jul 17 17:22:49 PDT 2024 ON: 20.00 +20.0 19.89 -12.8 31.0 06 0A 0012 0900 Alarm State:  0
Wed Jul 17 17:21:47 PDT 2024 ON: 19.99 +20.0 19.89 -12.8 31.0 06 0A 001D 0928 Alarm State:  0
Wed Jul 17 17:20:46 PDT 2024 ON: 20.00 +20.0 19.91 -12.8 31.0 06 09 0023 0920 Alarm State:  0
Wed Jul 17 17:19:44 PDT 2024 ON: 20.00 +20.0 19.90 -12.8 31.0 06 09 002A 0902 Alarm State:  0
Wed Jul 17 17:18:42 PDT 2024 ON: 20.00 +20.0 19.89 -12.7 31.0 06 0A 0001 0927 Alarm State:  0
Wed Jul 17 17:17:41 PDT 2024 ON: 20.00 +20.0 19.90 -12.8 31.0 06 09 000C 0913 Alarm State:  0
Wed Jul 17 17:16:39 PDT 2024 ON: 20.00 +20.0 19.91 -12.8 31.0 06 09 0012 0928 Alarm State:  0
Wed Jul 17 17:15:38 PDT 2024 ON: 19.99 +20.0 19.90 -12.7 31.0 06 09 001D 0929 Alarm State:  0
Wed Jul 17 17:14:36 PDT 2024 ON: 20.00 +20.0 19.91 -12.8 31.0 06 09 0025 091D Alarm State:  0
Wed Jul 17 17:13:35 PDT 2024 ON: 20.00 +20.0 19.90 -12.8 31.0 06 09 0022 0900 Alarm State:  0
Wed Jul 17 17:12:33 PDT 2024 ON: 20.00 +20.0 19.89 -12.8 31.0 06 0A 0026 091F Alarm State:  0
Wed Jul 17 17:11:32 PDT 2024 ON: 20.00 +20.0 19.88 -12.8 31.0 06 0A 0031 0913 Alarm State:  0
Wed Jul 17 17:10:30 PDT 2024 ON: 20.00 +20.0 19.89 -12.7 31.0 06 0A 0031 0927 Alarm State:  0
Wed Jul 17 17:09:29 PDT 2024 ON: 20.00 +20.0 19.89 -12.7 31.0 06 0A 0009 0916 Alarm State:  0
Wed Jul 17 17:08:27 PDT 2024 ON: 20.00 +20.0 19.91 -12.8 31.0 06 09 0013 090C Alarm State:  0
Wed Jul 17 17:07:26 PDT 2024 ON: 20.00 +20.0 19.89 -12.8 31.0 06 0A 001A 0903 Alarm State:  0
Wed Jul 17 17:06:24 PDT 2024 ON: 20.01 +20.0 19.89 -12.7 31.0 06 0A 0022 0928 Alarm State:  0
Wed Jul 17 17:05:23 PDT 2024 ON: 20.00 +20.0 19.89 -12.7 31.0 06 0A 000F 090C Alarm State:  0
Wed Jul 17 17:04:21 PDT 2024 ON: 20.00 +20.0 19.90 -12.8 31.0 06 0A 0011 0A08 Alarm State:  0
Wed Jul 17 17:03:20 PDT 2024 ON: 20.00 +20.0 19.89 -12.8 31.0 06 0A 001C 0914 Alarm State:  0
Wed Jul 17 17:02:18 PDT 2024 ON: 20.00 +20.0 19.89 -12.7 31.0 06 0A 0026 0924 Alarm State:  0
Wed Jul 17 17:01:17 PDT 2024 ON: 19.99 +20.0 19.88 -12.8 31.0 06 0A 0031 0929 Alarm State:  0
Wed Jul 17 17:00:15 PDT 2024 ON: 20.00 +20.0 19.88 -12.8 31.0 06 0A 0008 091C Alarm State:  0
Wed Jul 17 16:59:14 PDT 2024 ON: 20.00 +20.0 19.89 -12.7 31.0 06 0A 0013 0917 Alarm State:  0
Wed Jul 17 16:58:12 PDT 2024 ON: 20.00 +20.0 19.89 -12.8 31.0 06 0A 000D 0902 Alarm State:  0
Wed Jul 17 16:57:11 PDT 2024 ON: 19.99 +20.0 19.90 -12.8 31.0 06 09 0010 0907 Alarm State:  0
Wed Jul 17 16:56:09 PDT 2024 ON: 20.00 +20.0 19.90 -12.8 31.1 06 0A 002F 0A11 Alarm State:  0
Wed Jul 17 16:55:08 PDT 2024 ON: 19.99 +20.0 19.88 -12.7 31.0 06 0B 0007 0A01 Alarm State:  0
Wed Jul 17 16:54:06 PDT 2024 ON: 20.00 +20.0 19.89 -12.7 31.0 06 0A 0011 091E Alarm State:  0
Wed Jul 17 16:53:05 PDT 2024 ON: 19.99 +20.0 19.91 -12.8 31.0 06 09 001A 0A06 Alarm State:  0
Wed Jul 17 16:52:03 PDT 2024 ON: 20.00 +20.0 19.90 -12.8 31.0 06 09 0024 0914 Alarm State:  0
Wed Jul 17 16:51:02 PDT 2024 ON: 20.00 +20.0 19.92 -12.8 31.0 06 08 002F 091E Alarm State:  0
Wed Jul 17 16:50:00 PDT 2024 ON: 19.99 +20.0 19.89 -12.8 30.9 06 0A 0006 090F Alarm State:  0
Wed Jul 17 16:48:59 PDT 2024 ON: 20.00 +20.0 19.89 -12.8 30.9 06 0A 0011 0922 Alarm State:  0
Wed Jul 17 16:47:57 PDT 2024 ON: 20.00 +20.0 19.90 -12.8 30.9 06 09 001B 091E Alarm State:  0
Wed Jul 17 16:46:56 PDT 2024 ON: 20.00 +20.0 19.90 -12.8 30.9 06 09 0026 0919 Alarm State:  0
Wed Jul 17 16:45:54 PDT 2024 ON: 20.00 +20.0 19.91 -12.8 30.9 06 09 002E 0927 Alarm State:  0
Wed Jul 17 16:44:53 PDT 2024 ON: 20.00 +20.0 19.88 -12.8 30.9 03 0A 0006 090B Alarm State:  0
Wed Jul 17 16:43:51 PDT 2024 ON: 20.00 +20.0 19.90 -12.8 30.8 06 09 0004 0909 Alarm State:  0
Wed Jul 17 16:42:50 PDT 2024 ON: 20.00 +20.0 19.89 -12.9 30.7 06 0A 002E 0918 Alarm State:  0
Wed Jul 17 16:41:48 PDT 2024 ON: 20.00 +20.0 19.89 -12.9 30.7 06 0A 001E 091A Alarm State:  0
Wed Jul 17 16:40:47 PDT 2024 ON: 20.00 +20.0 19.90 -12.9 30.7 06 09 0003 0902 Alarm State:  0
Wed Jul 17 16:39:45 PDT 2024 ON: 20.01 +20.0 19.90 -12.8 30.9 06 09 0009 0908 Alarm State:  0
Wed Jul 17 16:38:44 PDT 2024 ON: 20.00 +20.0 19.88 -12.8 30.9 01 0A 000C 0915 Alarm State:  0
Wed Jul 17 16:37:42 PDT 2024 ON: 19.99 +20.0 19.88 -12.9 30.6 06 0A 0016 0915 Alarm State:  0
Wed Jul 17 16:36:41 PDT 2024 ON: 20.00 +20.0 19.90 -12.9 30.7 06 09 0111 0926 Alarm State:  0
Wed Jul 17 16:35:39 PDT 2024 ON: 19.99 +20.0 19.90 -12.8 31.0 06 09 021B 0906 Alarm State:  0
Wed Jul 17 16:34:38 PDT 2024 ON: 20.00 +20.0 19.89 -12.7 31.0 06 0A 0326 090E Alarm State:  0
Wed Jul 17 16:33:36 PDT 2024 ON: 20.00 +20.0 19.88 -12.7 31.0 06 0A 0428 0922 Alarm State:  0
Wed Jul 17 16:32:35 PDT 2024 ON: 20.01 +20.0 19.90 -13.0 30.9 07 09 0511 0902 Alarm State:  0
Wed Jul 17 16:31:33 PDT 2024 ON: 20.01 +20.0 19.89 -12.9 30.9 01 0A 0617 090C Alarm State:  0
Wed Jul 17 16:30:32 PDT 2024 ON: 20.00 +20.0 19.88 -13.0 30.9 07 0A 0619 0921 Alarm State:  0
Wed Jul 17 16:29:30 PDT 2024 ON: 20.00 +20.0 19.89 -12.9 30.9 06 0A 0523 090C Alarm State:  0
Wed Jul 17 16:28:29 PDT 2024 ON: 20.02 +20.0 19.90 -13.1 30.9 07 09 0515 0921 Alarm State:  0
Wed Jul 17 16:27:27 PDT 2024 ON: 20.01 +20.0 19.91 -13.1 30.9 07 09 040D 090C Alarm State:  0
Wed Jul 17 16:26:26 PDT 2024 ON: 20.01 +20.0 19.90 -13.2 30.8 07 09 0306 0921 Alarm State:  0
Wed Jul 17 16:25:24 PDT 2024 ON: 20.02 +20.0 19.92 -13.4 30.5 02 08 012F 090C Alarm State:  0
Wed Jul 17 16:24:22 PDT 2024 ON: 20.02 +20.0 19.92 -13.6 30.5 07 08 0024 0921 Alarm State:  0
Wed Jul 17 16:23:21 PDT 2024 ON: 20.00 +20.0 19.90 -12.9 31.1 06 0A 0015 0A0C Alarm State:  0
Wed Jul 17 16:22:19 PDT 2024 ON: 20.00 +20.0 19.91 -12.6 31.1 06 09 001A 0A20 Alarm State:  0
Wed Jul 17 16:21:18 PDT 2024 ON: 19.99 +20.0 19.89 -12.6 31.0 06 0A 001E 0A25 Alarm State:  0
Wed Jul 17 16:20:16 PDT 2024 ON: 20.00 +20.0 19.90 -12.6 31.1 06 09 0029 0929 Alarm State:  0
Wed Jul 17 16:19:15 PDT 2024 ON: 20.00 +20.0 19.89 -12.6 31.0 06 0A 0000 0924 Alarm State:  0
Wed Jul 17 16:18:13 PDT 2024 ON: 20.00 +20.0 19.89 -12.6 31.1 06 0A 000B 091E Alarm State:  0
Wed Jul 17 16:17:12 PDT 2024 ON: 19.99 +20.0 19.89 -12.6 31.1 01 0A 0016 0A23 Alarm State:  0
Wed Jul 17 16:16:10 PDT 2024 ON: 20.00 +20.0 19.89 -12.6 31.1 03 0A 0020 092C Alarm State:  0
Wed Jul 17 16:15:09 PDT 2024 ON: 20.00 +20.0 19.90 -12.6 31.1 06 09 002B 090B Alarm State:  0
Wed Jul 17 16:14:07 PDT 2024 ON: 20.00 +20.0 19.90 -12.6 31.0 06 09 0002 0928 Alarm State:  0
Wed Jul 17 16:13:06 PDT 2024 ON: 19.99 +20.0 19.89 -12.6 31.1 06 0A 0009 0A0F Alarm State:  0
Wed Jul 17 16:12:04 PDT 2024 ON: 19.99 +20.0 19.88 -12.6 31.0 06 0A 0013 090E Alarm State:  0
Wed Jul 17 16:11:03 PDT 2024 ON: 20.01 +20.0 19.90 -12.6 31.1 03 09 001E 0924 Alarm State:  0
Wed Jul 17 16:10:01 PDT 2024 ON: 19.99 +20.0 19.90 -12.6 31.0 06 0A 0024 0A13 Alarm State:  0
Wed Jul 17 16:09:00 PDT 2024 ON: 20.00 +20.0 19.89 -12.6 31.0 06 0A 002F 0919 Alarm State:  0
Wed Jul 17 16:07:58 PDT 2024 ON: 20.00 +20.0 19.90 -12.6 31.1 06 09 0006 091A Alarm State:  0
Wed Jul 17 16:06:57 PDT 2024 ON: 20.00 +20.0 19.89 -12.6 31.1 06 0A 0011 0918 Alarm State:  0
Wed Jul 17 16:05:55 PDT 2024 ON: 19.99 +20.0 19.88 -12.6 31.1 06 0A 0011 0926 Alarm State:  0
Wed Jul 17 16:04:54 PDT 2024 ON: 20.00 +20.0 19.90 -12.6 31.0 06 09 001C 0925 Alarm State:  0
Wed Jul 17 16:03:52 PDT 2024 ON: 20.00 +20.0 19.91 -12.7 31.1 06 09 0026 0A07 Alarm State:  0
Wed Jul 17 16:02:51 PDT 2024 ON: 20.00 +20.0 19.88 -12.6 31.0 06 0A 0031 0916 Alarm State:  0
Wed Jul 17 16:01:49 PDT 2024 ON: 19.99 +20.0 19.90 -12.6 31.1 06 0A 0008 0A0C Alarm State:  0
Wed Jul 17 16:00:48 PDT 2024 ON: 19.99 +20.0 19.89 -12.7 31.0 03 0A 0013 0922 Alarm State:  0
Wed Jul 17 15:59:46 PDT 2024 ON: 19.99 +20.0 19.88 -12.6 31.1 06 0A 001D 0929 Alarm State:  0
Wed Jul 17 15:58:45 PDT 2024 ON: 20.00 +20.0 19.87 -12.6 31.0 06 0B 0028 0926 Alarm State:  0
Wed Jul 17 15:57:43 PDT 2024 ON: 19.99 +20.0 19.90 -12.7 31.1 06 09 0032 0928 Alarm State:  0
Wed Jul 17 15:56:42 PDT 2024 ON: 19.99 +20.0 19.90 -12.6 31.0 06 09 000A 090B Alarm State:  0
Wed Jul 17 15:55:40 PDT 2024 ON: 19.99 +20.0 19.89 -12.6 31.1 06 0A 0014 091A Alarm State:  0
Wed Jul 17 15:54:39 PDT 2024 ON: 19.99 +20.0 19.89 -12.6 31.1 06 0A 001F 0914 Alarm State:  0
Wed Jul 17 15:53:37 PDT 2024 ON: 19.99 +20.0 19.91 -12.7 31.0 06 09 000F 092B Alarm State:  0
Wed Jul 17 15:52:36 PDT 2024 ON: 19.99 +20.0 19.90 -12.6 31.1 06 0A 000C 0A1A Alarm State:  0
Wed Jul 17 15:51:34 PDT 2024 ON: 20.00 +20.0 19.89 -12.6 31.1 06 0A 0016 0919 Alarm State:  0
Wed Jul 17 15:50:33 PDT 2024 ON: 20.00 +20.0 19.87 -12.6 31.1 06 0B 0021 0911 Alarm State:  0
Wed Jul 17 15:49:31 PDT 2024 ON: 20.00 +20.0 19.90 -12.6 31.1 06 0A 002B 0A1F Alarm State:  0
Wed Jul 17 15:48:30 PDT 2024 ON: 19.99 +20.0 19.89 -12.6 31.1 03 0A 0003 092B Alarm State:  0
Wed Jul 17 15:47:28 PDT 2024 ON: 20.00 +20.0 19.92 -12.6 31.1 06 08 000D 0906 Alarm State:  0
Wed Jul 17 15:46:27 PDT 2024 ON: 20.00 +20.0 19.92 -12.6 31.0 06 09 0018 0A11 Alarm State:  0
Wed Jul 17 15:45:25 PDT 2024 ON: 20.00 +20.0 19.90 -12.6 31.1 06 09 0022 091E Alarm State:  0
Wed Jul 17 15:44:24 PDT 2024 ON: 19.98 +20.0 19.88 -12.6 31.1 06 0B 0029 0A0B Alarm State:  0
Wed Jul 17 15:43:22 PDT 2024 ON: 19.99 +20.0 19.89 -12.6 31.0 06 0A 0000 090C Alarm State:  0
Wed Jul 17 15:42:21 PDT 2024 ON: 20.00 +20.0 19.89 -12.6 31.0 06 0A 000B 0911 Alarm State:  0
Wed Jul 17 15:41:19 PDT 2024 ON: 20.00 +20.0 19.89 -12.6 31.0 06 0A 000F 0921 Alarm State:  0
Wed Jul 17 15:40:18 PDT 2024 ON: 20.00 +20.0 19.90 -12.6 31.1 06 0A 001A 0A16 Alarm State:  0
Wed Jul 17 15:39:16 PDT 2024 ON: 19.99 +20.0 19.89 -12.6 31.1 06 0A 0024 091B Alarm State:  0
Wed Jul 17 15:38:15 PDT 2024 ON: 20.00 +20.0 19.90 -12.6 31.1 06 09 002F 0914 Alarm State:  0
Wed Jul 17 15:37:13 PDT 2024 ON: 20.00 +20.0 19.90 -12.6 31.0 06 09 002F 0926 Alarm State:  0
Wed Jul 17 15:36:12 PDT 2024 ON: 20.00 +20.0 19.91 -12.6 31.0 01 09 0007 0A02 Alarm State:  0
Wed Jul 17 15:35:10 PDT 2024 ON: 19.99 +20.0 19.90 -12.6 31.0 06 0A 0011 0A0C Alarm State:  0
Wed Jul 17 15:34:09 PDT 2024 ON: 20.00 +20.0 19.88 -12.6 31.0 06 0A 001C 0918 Alarm State:  0
Wed Jul 17 15:33:07 PDT 2024 ON: 20.00 +20.0 19.87 -12.6 31.1 06 0B 0026 0918 Alarm State:  0
Wed Jul 17 15:32:06 PDT 2024 ON: 20.00 +20.0 19.89 -12.6 31.0 06 0A 0031 0A0C Alarm State:  0
Wed Jul 17 15:31:04 PDT 2024 ON: 20.00 +20.0 19.89 -12.6 31.1 06 0A 0008 091D Alarm State:  0
Wed Jul 17 15:30:02 PDT 2024 ON: 20.01 +20.0 19.88 -12.6 31.1 06 0A 0013 0918 Alarm State:  0
Wed Jul 17 15:29:01 PDT 2024 ON: 20.00 +20.0 19.92 -12.6 31.0 06 09 0017 0B03 Alarm State:  0
Wed Jul 17 15:27:59 PDT 2024 ON: 19.99 +20.0 19.91 -12.6 31.0 06 09 0022 0A0D Alarm State:  0
Wed Jul 17 15:26:58 PDT 2024 ON: 20.00 +20.0 19.89 -12.6 31.1 06 0A 002C 092A Alarm State:  0
Wed Jul 17 15:25:56 PDT 2024 ON: 20.00 +20.0 19.90 -12.6 31.0 06 09 0004 0922 Alarm State:  0
Wed Jul 17 15:24:55 PDT 2024 ON: 20.00 +20.0 19.89 -12.6 31.1 06 0A 000A 090D Alarm State:  0
Wed Jul 17 15:23:53 PDT 2024 ON: 20.00 +20.0 19.88 -12.6 31.1 06 0A 0015 0912 Alarm State:  0
Wed Jul 17 15:22:52 PDT 2024 ON: 20.00 +20.0 19.91 -12.6 31.1 06 09 001F 0A22 Alarm State:  0
Wed Jul 17 15:21:50 PDT 2024 ON: 19.99 +20.0 19.92 -12.6 30.9 06 09 002A 0A0F Alarm State:  0
Wed Jul 17 15:20:49 PDT 2024 ON: 19.99 +20.0 19.88 -12.6 31.0 03 0A 0001 0924 Alarm State:  0
Wed Jul 17 15:19:47 PDT 2024 ON: 19.99 +20.0 19.89 -12.6 31.1 06 0A 000C 091D Alarm State:  0
Wed Jul 17 15:18:46 PDT 2024 ON: 20.00 +20.0 19.90 -12.6 31.0 03 09 0016 0919 Alarm State:  0
Wed Jul 17 15:17:44 PDT 2024 ON: 19.99 +20.0 19.87 -12.6 31.1 06 0B 0021 091E Alarm State:  0
Wed Jul 17 15:16:43 PDT 2024 ON: 20.00 +20.0 19.90 -12.6 31.0 06 09 002B 0926 Alarm State:  0
Wed Jul 17 15:15:41 PDT 2024 ON: 19.99 +20.0 19.91 -12.6 31.0 06 09 0003 0A1D Alarm State:  0
Wed Jul 17 15:14:40 PDT 2024 ON: 20.00 +20.0 19.90 -12.6 31.2 06 09 000E 0910 Alarm State:  0
Wed Jul 17 15:13:38 PDT 2024 ON: 19.99 +20.0 19.88 -12.6 31.1 06 0A 0016 090B Alarm State:  0
Wed Jul 17 15:12:37 PDT 2024 ON: 19.99 +20.0 19.89 -12.6 31.1 06 0A 0021 091B Alarm State:  0
Wed Jul 17 15:11:35 PDT 2024 ON: 20.00 +20.0 19.89 -12.6 31.1 06 0A 002B 0A17 Alarm State:  0
Wed Jul 17 15:10:34 PDT 2024 ON: 19.99 +20.0 19.88 -12.6 31.0 06 0B 0003 0A1B Alarm State:  0
Wed Jul 17 15:09:32 PDT 2024 ON: 19.99 +20.0 19.88 -12.6 31.1 01 0A 000D 0912 Alarm State:  0
Wed Jul 17 15:08:31 PDT 2024 ON: 19.99 +20.0 19.88 -12.6 31.1 06 0A 0018 0922 Alarm State:  0
Wed Jul 17 15:07:29 PDT 2024 ON: 20.00 +20.0 19.89 -12.6 31.0 06 0A 0022 0924 Alarm State:  0
Wed Jul 17 15:06:28 PDT 2024 ON: 19.99 +20.0 19.89 -12.6 31.1 06 0A 0015 090F Alarm State:  0
Wed Jul 17 15:05:26 PDT 2024 ON: 19.99 +20.0 19.89 -12.6 31.0 06 0A 0001 0A05 Alarm State:  0
Wed Jul 17 15:04:25 PDT 2024 ON: 19.99 +20.0 19.89 -12.6 31.0 06 0A 002F 0A15 Alarm State:  0
Wed Jul 17 15:03:23 PDT 2024 ON: 20.00 +20.0 19.91 -12.6 31.0 06 09 0000 0A03 Alarm State:  0
Wed Jul 17 15:02:22 PDT 2024 ON: 20.00 +20.0 19.89 -12.6 31.2 06 0A 000B 090A Alarm State:  0
Wed Jul 17 15:01:20 PDT 2024 ON: 20.00 +20.0 19.89 -12.6 31.0 01 0A 0015 0915 Alarm State:  0
Wed Jul 17 15:00:19 PDT 2024 ON: 20.00 +20.0 19.88 -12.6 31.0 06 0A 0020 0903 Alarm State:  0
Wed Jul 17 14:59:17 PDT 2024 ON: 20.00 +20.0 19.90 -12.6 31.1 06 09 0026 091A Alarm State:  0
Wed Jul 17 14:58:16 PDT 2024 ON: 20.00 +20.0 19.89 -12.6 31.0 06 0A 0031 090A Alarm State:  0
Wed Jul 17 14:57:14 PDT 2024 ON: 20.00 +20.0 19.89 -12.6 31.1 06 0A 0000 0927 Alarm State:  0
Wed Jul 17 14:56:13 PDT 2024 ON: 19.99 +20.0 19.89 -12.6 31.1 06 0A 0032 0A0C Alarm State:  0
Wed Jul 17 14:55:11 PDT 2024 ON: 20.00 +20.0 19.88 -12.6 31.1 06 0A 0009 0922 Alarm State:  0
Wed Jul 17 14:54:10 PDT 2024 ON: 20.00 +20.0 19.90 -12.6 31.0 06 09 0010 0916 Alarm State:  0
Wed Jul 17 14:53:08 PDT 2024 ON: 20.01 +20.0 19.89 -12.6 31.1 06 0A 000E 091C Alarm State:  0
Wed Jul 17 14:52:07 PDT 2024 ON: 19.99 +20.0 19.90 -12.6 31.0 06 0A 0007 0A23 Alarm State:  0
Wed Jul 17 14:51:05 PDT 2024 ON: 19.99 +20.0 19.91 -12.6 31.0 06 09 0011 0A16 Alarm State:  0
Wed Jul 17 14:50:04 PDT 2024 ON: 19.99 +20.0 19.88 -12.6 31.1 06 0A 001C 0920 Alarm State:  0
Wed Jul 17 14:49:02 PDT 2024 ON: 19.99 +20.0 19.89 -12.6 31.1 06 0A 0026 0926 Alarm State:  0
Wed Jul 17 14:48:01 PDT 2024 ON: 19.99 +20.0 19.89 -12.6 31.0 06 0A 0031 0A01 Alarm State:  0
Wed Jul 17 14:46:59 PDT 2024 ON: 19.99 +20.0 19.89 -12.6 31.0 06 0A 0008 0931 Alarm State:  0
Wed Jul 17 14:45:58 PDT 2024 ON: 19.99 +20.0 19.89 -12.6 31.1 03 0A 0013 091B Alarm State:  0
Wed Jul 17 14:44:56 PDT 2024 ON: 19.99 +20.0 19.88 -12.6 31.0 06 0A 001B 091B Alarm State:  0
Wed Jul 17 14:43:55 PDT 2024 ON: 20.00 +20.0 19.92 -12.6 31.0 06 09 0026 0A0E Alarm State:  0
Wed Jul 17 14:42:53 PDT 2024 ON: 20.00 +20.0 19.89 -12.6 31.1 06 0A 0030 0923 Alarm State:  0
Wed Jul 17 14:41:52 PDT 2024 ON: 20.01 +20.0 19.89 -12.6 31.0 06 0A 0100 0914 Alarm State:  0
Wed Jul 17 14:40:50 PDT 2024 ON: 19.99 +20.0 19.90 -12.6 31.0 06 0A 0017 0A26 Alarm State:  0
Wed Jul 17 14:39:49 PDT 2024 ON: 20.01 +20.0 19.89 -12.6 31.0 06 0A 001A 090D Alarm State:  0
Wed Jul 17 14:38:47 PDT 2024 ON: 20.00 +20.0 19.89 -12.6 31.0 06 0A 0010 090F Alarm State:  0
Wed Jul 17 14:37:46 PDT 2024 ON: 19.99 +20.0 19.88 -12.6 31.0 06 0A 001B 090E Alarm State:  0
Wed Jul 17 14:36:44 PDT 2024 ON: 20.00 +20.0 19.88 -12.6 31.1 06 0A 0025 0909 Alarm State:  0
Wed Jul 17 14:35:42 PDT 2024 ON: 20.00 +20.0 19.90 -12.6 31.1 06 0A 0018 0A1C Alarm State:  0
Wed Jul 17 14:34:41 PDT 2024 ON: 19.99 +20.0 19.90 -12.6 31.1 06 0A 0022 0A09 Alarm State:  0
Wed Jul 17 14:33:39 PDT 2024 ON: 20.00 +20.0 19.89 -12.6 31.1 06 0A 002D 0925 Alarm State:  0
Wed Jul 17 14:32:38 PDT 2024 ON: 19.99 +20.0 19.89 -12.6 31.0 06 0A 0004 090D Alarm State:  0
Wed Jul 17 14:31:36 PDT 2024 ON: 20.00 +20.0 19.90 -12.6 31.0 06 0A 0005 0A06 Alarm State:  0
Wed Jul 17 14:30:35 PDT 2024 ON: 19.99 +20.0 19.89 -12.6 31.1 06 0A 000F 091B Alarm State:  0
Wed Jul 17 14:29:33 PDT 2024 ON: 19.99 +20.0 19.88 -12.6 31.0 06 0A 001A 090C Alarm State:  0
Wed Jul 17 14:28:32 PDT 2024 ON: 20.00 +20.0 19.89 -12.6 31.0 06 0A 0020 090E Alarm State:  0
Wed Jul 17 14:27:30 PDT 2024 ON: 20.01 +20.0 19.89 -12.6 31.1 06 0A 0011 0923 Alarm State:  0
Wed Jul 17 14:26:29 PDT 2024 ON: 19.99 +20.0 19.89 -12.6 31.1 06 0B 0005 0B04 Alarm State:  0
Wed Jul 17 14:25:27 PDT 2024 ON: 19.99 +20.0 19.89 -12.6 31.0 06 0A 0010 0A10 Alarm State:  0
Wed Jul 17 14:24:26 PDT 2024 ON: 19.99 +20.0 19.89 -12.6 31.0 06 0A 001A 092A Alarm State:  0
Wed Jul 17 14:23:24 PDT 2024 ON: 20.00 +20.0 19.89 -12.6 31.1 06 0A 0025 0904 Alarm State:  0
Wed Jul 17 14:22:23 PDT 2024 ON: 20.00 +20.0 19.90 -12.6 31.1 06 0A 0027 0A16 Alarm State:  0
Wed Jul 17 14:21:21 PDT 2024 ON: 20.00 +20.0 19.88 -12.6 31.0 06 0B 0032 0A06 Alarm State:  0
Wed Jul 17 14:20:20 PDT 2024 ON: 20.00 +20.0 19.89 -12.6 31.1 06 0A 002E 0918 Alarm State:  0
Wed Jul 17 14:19:18 PDT 2024 ON: 20.00 +20.0 19.88 -12.6 31.1 06 0B 0006 0A0F Alarm State:  0
Wed Jul 17 14:18:17 PDT 2024 ON: 19.99 +20.0 19.88 -12.6 31.1 06 0A 0010 0910 Alarm State:  0
Wed Jul 17 14:17:15 PDT 2024 ON: 20.00 +20.0 19.90 -12.6 31.1 06 09 001B 0922 Alarm State:  0
Wed Jul 17 14:16:14 PDT 2024 ON: 19.99 +20.0 19.88 -12.6 31.0 06 0A 0025 092E Alarm State:  0
Wed Jul 17 14:15:12 PDT 2024 ON: 19.99 +20.0 19.88 -12.6 31.1 06 0B 0026 0A0D Alarm State:  0
Wed Jul 17 14:14:11 PDT 2024 ON: 20.00 +20.0 19.88 -12.6 31.0 06 0A 0030 0900 Alarm State:  0
Wed Jul 17 14:13:09 PDT 2024 ON: 19.99 +20.0 19.88 -12.6 31.0 06 0A 0008 0916 Alarm State:  0
Wed Jul 17 14:12:08 PDT 2024 ON: 19.99 +20.0 19.89 -12.6 31.0 06 0A 0012 092E Alarm State:  0
Wed Jul 17 14:11:06 PDT 2024 ON: 20.00 +20.0 19.90 -12.6 31.1 06 09 001D 091B Alarm State:  0
Wed Jul 17 14:10:05 PDT 2024 ON: 19.99 +20.0 19.89 -12.6 31.1 06 0A 0028 0911 Alarm State:  0
Wed Jul 17 14:09:03 PDT 2024 ON: 20.00 +20.0 19.88 -12.6 31.1 06 0A 0032 0903 Alarm State:  0
Wed Jul 17 14:08:02 PDT 2024 ON: 19.99 +20.0 19.90 -12.6 31.0 06 0A 0025 0A16 Alarm State:  0
Wed Jul 17 14:07:00 PDT 2024 ON: 19.99 +20.0 19.88 -12.6 31.0 06 0A 002F 0925 Alarm State:  0
Wed Jul 17 14:05:59 PDT 2024 ON: 19.99 +20.0 19.89 -12.6 31.1 06 0A 0007 0904 Alarm State:  0
Wed Jul 17 14:04:57 PDT 2024 ON: 19.99 +20.0 19.87 -12.6 31.0 06 0B 000F 0915 Alarm State:  0
Wed Jul 17 14:03:56 PDT 2024 ON: 20.00 +20.0 19.88 -12.6 31.1 06 0A 001A 0928 Alarm State:  0
Wed Jul 17 14:02:54 PDT 2024 ON: 20.00 +20.0 19.89 -12.6 31.0 06 0A 0020 0A03 Alarm State:  0
Wed Jul 17 14:01:53 PDT 2024 ON: 20.00 +20.0 19.90 -12.6 31.1 06 09 002B 0923 Alarm State:  0
Wed Jul 17 14:00:51 PDT 2024 ON: 19.99 +20.0 19.90 -12.6 31.1 06 09 0002 092D Alarm State:  0
Wed Jul 17 13:59:50 PDT 2024 ON: 19.99 +20.0 19.89 -12.6 31.0 06 0A 0009 091D Alarm State:  0
Wed Jul 17 13:58:48 PDT 2024 ON: 19.99 +20.0 19.88 -12.6 31.0 06 0A 0013 092B Alarm State:  0
Wed Jul 17 13:57:47 PDT 2024 ON: 20.00 +20.0 19.90 -12.6 31.0 06 09 001E 090C Alarm State:  0
Wed Jul 17 13:56:45 PDT 2024 ON: 20.00 +20.0 19.88 -12.6 31.0 06 0A 0028 0900 Alarm State:  0
Wed Jul 17 13:55:44 PDT 2024 ON: 20.00 +20.0 19.90 -12.6 31.1 06 0A 0000 0A13 Alarm State:  0
Wed Jul 17 13:54:42 PDT 2024 ON: 19.99 +20.0 19.91 -12.6 31.1 06 09 000A 0926 Alarm State:  0
Wed Jul 17 13:53:41 PDT 2024 ON: 20.00 +20.0 19.89 -12.6 31.1 06 0A 0015 0916 Alarm State:  0
Wed Jul 17 13:52:39 PDT 2024 ON: 20.00 +20.0 19.91 -12.6 31.1 01 09 001F 0A18 Alarm State:  0
Wed Jul 17 13:51:38 PDT 2024 ON: 19.99 +20.0 19.87 -12.6 31.0 06 0B 002A 0A00 Alarm State:  0
Wed Jul 17 13:50:36 PDT 2024 ON: 20.00 +20.0 19.91 -12.6 31.1 06 09 0001 0A00 Alarm State:  0
Wed Jul 17 13:49:35 PDT 2024 ON: 19.99 +20.0 19.89 -12.6 31.1 06 0A 000C 0910 Alarm State:  0
Wed Jul 17 13:48:33 PDT 2024 ON: 19.99 +20.0 19.90 -12.6 31.0 01 09 0016 0911 Alarm State:  0
Wed Jul 17 13:47:32 PDT 2024 ON: 20.00 +20.0 19.89 -12.6 31.0 06 0A 001F 0919 Alarm State:  0
Wed Jul 17 13:46:30 PDT 2024 ON: 19.99 +20.0 19.91 -12.6 31.0 06 09 0023 0A1D Alarm State:  0
Wed Jul 17 13:45:29 PDT 2024 ON: 20.00 +20.0 19.90 -12.6 31.1 06 09 002E 0919 Alarm State:  0
Wed Jul 17 13:44:27 PDT 2024 ON: 19.99 +20.0 19.88 -12.6 31.1 06 0A 0005 091B Alarm State:  0
Wed Jul 17 13:43:26 PDT 2024 ON: 20.00 +20.0 19.89 -12.6 31.0 06 0A 0010 0906 Alarm State:  0
Wed Jul 17 13:42:24 PDT 2024 ON: 20.00 +20.0 19.89 -12.6 31.1 06 0A 0018 0A06 Alarm State:  0
Wed Jul 17 13:41:22 PDT 2024 ON: 20.00 +20.0 19.88 -12.6 31.0 06 0A 001B 091E Alarm State:  0
Wed Jul 17 13:40:21 PDT 2024 ON: 19.99 +20.0 19.88 -12.6 31.1 06 0A 0025 0923 Alarm State:  0
Wed Jul 17 13:39:19 PDT 2024 ON: 19.99 +20.0 19.88 -12.6 31.0 06 0A 0030 0914 Alarm State:  0
Wed Jul 17 13:38:18 PDT 2024 ON: 20.00 +20.0 19.90 -12.6 31.1 06 0A 0026 0A06 Alarm State:  0
Wed Jul 17 13:37:16 PDT 2024 ON: 19.99 +20.0 19.89 -12.6 31.0 06 0A 0031 0A04 Alarm State:  0
Wed Jul 17 13:36:15 PDT 2024 ON: 19.99 +20.0 19.88 -12.6 31.1 06 0B 002F 0A2E Alarm State:  0
Wed Jul 17 13:35:13 PDT 2024 ON: 19.99 +20.0 19.88 -12.6 31.1 06 0A 0007 092C Alarm State:  0
Wed Jul 17 13:34:12 PDT 2024 ON: 19.99 +20.0 19.89 -12.6 31.1 06 0A 0011 0919 Alarm State:  0
Wed Jul 17 13:33:10 PDT 2024 ON: 19.99 +20.0 19.89 -12.6 31.1 06 0A 001C 090D Alarm State:  0
Wed Jul 17 13:32:09 PDT 2024 ON: 19.99 +20.0 19.87 -12.6 31.1 06 0B 0026 0912 Alarm State:  0
Wed Jul 17 13:31:07 PDT 2024 ON: 19.99 +20.0 19.88 -12.6 31.0 06 0A 0031 0920 Alarm State:  0
Wed Jul 17 13:30:06 PDT 2024 ON: 20.00 +20.0 19.90 -12.6 31.0 06 0A 002F 0A1E Alarm State:  0
Wed Jul 17 13:29:04 PDT 2024 ON: 20.00 +20.0 19.89 -12.6 31.1 06 0A 0007 0A16 Alarm State:  0
Wed Jul 17 13:28:03 PDT 2024 ON: 19.99 +20.0 19.90 -12.6 31.0 06 0A 0011 0A0D Alarm State:  0
Wed Jul 17 13:27:01 PDT 2024 ON: 19.99 +20.0 19.88 -12.6 31.0 06 0A 001C 091A Alarm State:  0
Wed Jul 17 13:26:00 PDT 2024 ON: 20.00 +20.0 19.91 -12.6 31.1 06 09 0026 0927 Alarm State:  0
Wed Jul 17 13:24:58 PDT 2024 ON: 20.00 +20.0 19.88 -12.6 31.1 06 0A 0031 091B Alarm State:  0
Wed Jul 17 13:23:57 PDT 2024 ON: 20.00 +20.0 19.91 -12.6 31.0 06 09 0019 0A02 Alarm State:  0
Wed Jul 17 13:22:55 PDT 2024 ON: 19.99 +20.0 19.89 -12.6 31.0 06 0A 0024 0A1E Alarm State:  0
Wed Jul 17 13:21:54 PDT 2024 ON: 19.99 +20.0 19.90 -12.6 31.0 06 0A 002E 0A0D Alarm State:  0
Wed Jul 17 13:20:52 PDT 2024 ON: 19.99 +20.0 19.91 -12.6 31.1 06 09 0006 091F Alarm State:  0
Wed Jul 17 13:19:51 PDT 2024 ON: 20.00 +20.0 19.89 -12.6 31.0 06 0A 0010 0915 Alarm State:  0
Wed Jul 17 13:18:49 PDT 2024 ON: 20.00 +20.0 19.90 -12.6 31.1 06 09 001B 0929 Alarm State:  0
Wed Jul 17 13:17:48 PDT 2024 ON: 19.99 +20.0 19.89 -12.6 31.1 06 0A 0025 0A15 Alarm State:  0
Wed Jul 17 13:16:46 PDT 2024 ON: 20.00 +20.0 19.88 -12.6 31.1 06 0A 0030 0921 Alarm State:  0
Wed Jul 17 13:15:45 PDT 2024 ON: 20.00 +20.0 19.90 -12.6 31.0 06 09 0007 0923 Alarm State:  0
Wed Jul 17 13:14:43 PDT 2024 ON: 20.00 +20.0 19.90 -12.7 31.0 06 09 0012 0927 Alarm State:  0
Wed Jul 17 13:13:32 PDT 2024 ON: 20.00 +20.0 19.87 -12.6 31.0 06 0B 0026 0922 Alarm State:  0
Wed Jul 17 13:12:30 PDT 2024 ON: 20.00 +20.0 19.91 -12.6 31.1 06 09 0031 0A00 Alarm State:  0
Wed Jul 17 13:11:29 PDT 2024 ON: 19.99 +20.0 19.91 -12.6 31.1 06 09 0008 0921 Alarm State:  0
Wed Jul 17 13:10:27 PDT 2024 ON: 19.99 +20.0 19.87 -12.6 31.0 06 0B 0013 090B Alarm State:  0
Wed Jul 17 13:09:26 PDT 2024 ON: 19.99 +20.0 19.88 -12.6 31.1 06 0A 001D 090E Alarm State:  0
Wed Jul 17 13:08:24 PDT 2024 ON: 20.00 +20.0 19.91 -12.6 31.1 06 09 0024 0A09 Alarm State:  0
Wed Jul 17 13:07:23 PDT 2024 ON: 19.99 +20.0 19.90 -12.6 31.1 06 09 002E 0922 Alarm State:  0
Wed Jul 17 13:06:21 PDT 2024 ON: 20.00 +20.0 19.88 -12.6 31.0 06 0A 0006 0912 Alarm State:  0
Wed Jul 17 13:05:20 PDT 2024 ON: 19.99 +20.0 19.89 -12.6 31.0 06 0A 0004 0A0C Alarm State:  0
Wed Jul 17 13:04:18 PDT 2024 ON: 20.00 +20.0 19.89 -12.6 31.1 06 0A 000F 0915 Alarm State:  0
Wed Jul 17 13:03:17 PDT 2024 ON: 20.00 +20.0 19.91 -12.6 31.0 06 09 0019 0A0F Alarm State:  0
Wed Jul 17 13:02:15 PDT 2024 ON: 19.99 +20.0 19.90 -12.5 31.1 06 09 0018 092B Alarm State:  0
Wed Jul 17 13:01:14 PDT 2024 ON: 19.99 +20.0 19.90 -12.6 31.2 06 0A 0022 0A07 Alarm State:  0
Wed Jul 17 13:00:12 PDT 2024 ON: 19.99 +20.0 19.89 -12.6 31.0 06 0A 002D 0923 Alarm State:  0
Wed Jul 17 12:59:11 PDT 2024 ON: 19.99 +20.0 19.91 -12.6 31.1 06 09 0004 091E Alarm State:  0
Wed Jul 17 12:58:09 PDT 2024 ON: 20.00 +20.0 19.89 -12.6 31.1 06 0A 0001 0A0F Alarm State:  0
Wed Jul 17 12:57:08 PDT 2024 ON: 19.99 +20.0 19.86 -12.6 31.0 06 0B 000B 091C Alarm State:  0
Wed Jul 17 12:56:06 PDT 2024 ON: 19.99 +20.0 19.88 -12.6 31.0 06 0A 0016 0923 Alarm State:  0
Wed Jul 17 12:55:05 PDT 2024 ON: 20.00 +20.0 19.89 -12.6 31.1 06 0A 0020 092C Alarm State:  0
Wed Jul 17 12:53:53 PDT 2024  Alarm State: 0
Wed Jul 17 12:53:53 PDT 2024 Chiller did not report ON, got this reading: 
Wed Jul 17 12:52:52 PDT 2024 ON: 19.99 +20.0 19.89 -12.6 31.1 06 0A 0006 0A1A Alarm State:  0
Wed Jul 17 12:51:50 PDT 2024 ON: 19.99 +20.0 19.88 -12.6 31.1 06 0A 0011 0916 Alarm State:  0
Wed Jul 17 12:50:49 PDT 2024 ON: 20.00 +20.0 19.90 -12.6 31.1 06 09 001B 091F Alarm State:  0
Wed Jul 17 12:49:47 PDT 2024 ON: 19.99 +20.0 19.90 -12.6 31.0 06 09 0026 0914 Alarm State:  0
Wed Jul 17 12:48:46 PDT 2024 ON: 20.00 +20.0 19.89 -12.6 31.1 06 0A 0030 0A04 Alarm State:  0
Wed Jul 17 12:47:44 PDT 2024 ON: 20.00 +20.0 19.91 -12.6 31.0 06 09 0006 0928 Alarm State:  0
Wed Jul 17 12:46:43 PDT 2024 ON: 20.00 +20.0 19.90 -12.6 31.0 06 09 0010 091C Alarm State:  0
Wed Jul 17 12:45:41 PDT 2024 ON: 19.99 +20.0 19.89 -12.6 31.0 06 0A 0019 0929 Alarm State:  0
Wed Jul 17 12:44:40 PDT 2024 ON: 19.99 +20.0 19.91 -12.6 31.0 06 09 0023 0A0D Alarm State:  0
Wed Jul 17 12:43:38 PDT 2024 ON: 19.99 +20.0 19.90 -12.6 31.1 06 09 002E 0911 Alarm State:  0
Wed Jul 17 12:42:37 PDT 2024 ON: 20.00 +20.0 19.89 -12.6 31.0 06 0A 0005 091E Alarm State:  0
Wed Jul 17 12:41:35 PDT 2024 ON: 19.99 +20.0 19.90 -12.6 31.1 06 09 0010 0929 Alarm State:  0
Wed Jul 17 12:40:34 PDT 2024 ON: 20.01 +20.0 19.90 -12.6 31.0 06 09 0012 0921 Alarm State:  0
Wed Jul 17 12:39:32 PDT 2024 ON: 20.00 +20.0 19.92 -12.6 31.1 06 09 0015 0A22 Alarm State:  0
Wed Jul 17 12:38:31 PDT 2024 ON: 19.99 +20.0 19.89 -12.6 31.1 06 0A 001F 0A1C Alarm State:  0
Wed Jul 17 12:37:29 PDT 2024 ON: 19.99 +20.0 19.88 -12.6 31.0 06 0A 002A 091A Alarm State:  0
Wed Jul 17 12:36:28 PDT 2024 ON: 19.99 +20.0 19.89 -12.6 31.1 06 0A 0001 0A06 Alarm State:  0
Wed Jul 17 12:35:26 PDT 2024 ON: 20.00 +20.0 19.90 -12.6 31.0 06 09 000C 0926 Alarm State:  0
Wed Jul 17 12:34:25 PDT 2024 ON: 19.99 +20.0 19.89 -12.6 31.1 06 0A 0014 0A09 Alarm State:  0
Wed Jul 17 12:33:13 PDT 2024 ON: 19.99 +20.0 19.88 -12.6 31.0 01 0B 0027 0A15 Alarm State:  0
Wed Jul 17 12:32:12 PDT 2024 ON: 19.99 +20.0 19.89 -12.6 31.0 06 0A 0031 0920 Alarm State:  0
Wed Jul 17 12:31:10 PDT 2024 ON: 19.99 +20.0 19.90 -12.6 31.0 06 09 0009 092B Alarm State:  0
Wed Jul 17 12:30:09 PDT 2024 ON: 19.99 +20.0 19.90 -12.6 31.0 03 09 0013 092E Alarm State:  0
Wed Jul 17 12:29:07 PDT 2024 ON: 20.00 +20.0 19.88 -12.6 31.0 06 0B 001E 0A01 Alarm State:  0
Wed Jul 17 12:28:06 PDT 2024 ON: 20.00 +20.0 19.90 -12.6 31.0 06 09 0028 091E Alarm State:  0
Wed Jul 17 12:27:04 PDT 2024 ON: 20.00 +20.0 19.90 -12.6 31.0 06 0A 0000 0A21 Alarm State:  0
Wed Jul 17 12:26:03 PDT 2024 ON: 20.00 +20.0 19.89 -12.6 31.0 06 0A 000A 0926 Alarm State:  0
Wed Jul 17 12:25:01 PDT 2024 ON: 19.99 +20.0 19.90 -12.6 31.1 06 09 0015 092E Alarm State:  0
Wed Jul 17 12:24:00 PDT 2024 ON: 20.00 +20.0 19.90 -12.6 31.1 06 09 001F 091D Alarm State:  0
Wed Jul 17 12:22:58 PDT 2024 ON: 20.00 +20.0 19.90 -12.6 31.0 06 09 0024 091A Alarm State:  0
Wed Jul 17 12:21:57 PDT 2024 ON: 20.00 +20.0 19.90 -12.6 31.0 06 0A 0010 0B05 Alarm State:  0
Wed Jul 17 12:20:55 PDT 2024 ON: 19.99 +20.0 19.92 -12.6 31.0 00 09 001B 0A25 Alarm State:  0
Wed Jul 17 12:19:54 PDT 2024 ON: 19.99 +20.0 19.89 -12.6 31.1 06 0A 0025 092C Alarm State:  0
Wed Jul 17 12:18:52 PDT 2024 ON: 19.99 +20.0 19.89 -12.6 31.0 06 0A 0030 0911 Alarm State:  0
Wed Jul 17 12:17:51 PDT 2024 ON: 19.99 +20.0 19.89 -12.6 31.0 06 0A 0007 092B Alarm State:  0
Wed Jul 17 12:16:49 PDT 2024 ON: 20.01 +20.0 19.90 -12.6 31.0 06 0A 0025 0A0C Alarm State:  0
Wed Jul 17 12:15:48 PDT 2024 ON: 20.00 +20.0 19.91 -12.6 31.0 06 0A 0029 0B0E Alarm State:  0
Wed Jul 17 12:14:46 PDT 2024 ON: 19.99 +20.0 19.90 -12.6 31.0 01 0A 0001 0A0A Alarm State:  0
Wed Jul 17 12:13:45 PDT 2024 ON: 20.00 +20.0 19.90 -12.6 31.1 06 09 0003 0912 Alarm State:  0
Wed Jul 17 12:12:43 PDT 2024 ON: 19.99 +20.0 19.90 -12.6 31.1 06 0A 000E 0A1D Alarm State:  0
Wed Jul 17 12:11:42 PDT 2024 ON: 19.98 +20.0 19.90 -12.6 31.0 06 09 0018 091C Alarm State:  0
Wed Jul 17 12:10:40 PDT 2024 ON: 19.99 +20.0 19.90 -12.6 31.0 06 09 0023 0912 Alarm State:  0
Wed Jul 17 12:09:39 PDT 2024 ON: 20.00 +20.0 19.89 -12.6 31.0 06 0A 002D 0925 Alarm State:  0
Wed Jul 17 12:08:37 PDT 2024 ON: 20.00 +20.0 19.88 -12.6 31.1 06 0A 0005 0924 Alarm State:  0
Wed Jul 17 12:07:36 PDT 2024 ON: 19.99 +20.0 19.88 -12.6 31.1 06 0B 000F 0A1C Alarm State:  0
Wed Jul 17 12:06:34 PDT 2024 ON: 19.99 +20.0 19.91 -12.6 31.0 06 09 001A 0A24 Alarm State:  0
Wed Jul 17 12:05:33 PDT 2024 ON: 20.00 +20.0 19.89 -12.6 31.0 06 0A 0025 0924 Alarm State:  0
Wed Jul 17 12:04:31 PDT 2024 ON: 20.00 +20.0 19.89 -12.6 31.0 06 0A 002F 0A01 Alarm State:  0
Wed Jul 17 12:03:30 PDT 2024 ON: 20.00 +20.0 19.90 -12.6 31.0 06 09 0007 0919 Alarm State:  0
Wed Jul 17 12:02:28 PDT 2024 ON: 20.00 +20.0 19.90 -12.6 31.0 06 0A 0011 0A01 Alarm State:  0
Wed Jul 17 12:01:27 PDT 2024 ON: 20.00 +20.0 19.90 -12.6 31.1 06 0A 001C 0A0D Alarm State:  0
Wed Jul 17 12:00:25 PDT 2024 ON: 19.99 +20.0 19.91 -12.6 31.0 06 09 0026 092E Alarm State:  0
Wed Jul 17 11:59:24 PDT 2024 ON: 20.00 +20.0 19.91 -12.6 31.0 06 09 0031 0A01 Alarm State:  0
Wed Jul 17 11:58:22 PDT 2024 ON: 20.00 +20.0 19.89 -12.6 31.1 06 0A 0008 0A22 Alarm State:  0
Wed Jul 17 11:57:21 PDT 2024 ON: 20.00 +20.0 19.92 -12.6 31.1 06 09 0011 0A2C Alarm State:  0
Wed Jul 17 11:56:19 PDT 2024 ON: 20.00 +20.0 19.90 -12.6 31.0 06 0A 001B 0B0C Alarm State:  0
Wed Jul 17 11:55:18 PDT 2024 ON: 19.99 +20.0 19.89 -12.6 31.0 06 0A 0026 0A12 Alarm State:  0
Wed Jul 17 11:54:16 PDT 2024 ON: 20.00 +20.0 19.89 -12.6 31.0 06 0A 0030 0A0A Alarm State:  0
Wed Jul 17 11:53:14 PDT 2024 ON: 20.00 +20.0 19.88 -12.6 31.1 06 0A 0008 0918 Alarm State:  0
Wed Jul 17 11:52:13 PDT 2024 ON: 20.00 +20.0 19.88 -12.6 31.1 06 0A 0012 0915 Alarm State:  0
Wed Jul 17 11:51:11 PDT 2024 ON: 19.99 +20.0 19.87 -12.6 31.1 06 0B 001D 091E Alarm State:  0
Wed Jul 17 11:50:10 PDT 2024 ON: 20.00 +20.0 19.89 -12.6 31.1 06 0A 001F 091D Alarm State:  0
Wed Jul 17 11:49:08 PDT 2024 ON: 20.00 +20.0 19.91 -12.6 31.1 06 09 002A 0A14 Alarm State:  0
Wed Jul 17 11:48:07 PDT 2024 ON: 19.99 +20.0 19.89 -12.6 31.0 06 0A 002E 0A13 Alarm State:  0
Wed Jul 17 11:47:05 PDT 2024 ON: 19.99 +20.0 19.88 -12.6 31.0 06 0A 0006 0926 Alarm State:  0
Wed Jul 17 11:46:04 PDT 2024 ON: 20.00 +20.0 19.91 -12.6 31.1 06 09 0010 0923 Alarm State:  0
Wed Jul 17 11:45:02 PDT 2024 ON: 20.00 +20.0 19.89 -12.6 31.0 06 0A 001B 0A0A Alarm State:  0
Wed Jul 17 11:44:01 PDT 2024 ON: 20.00 +20.0 19.91 -12.6 31.0 06 09 0025 0A23 Alarm State:  0
Wed Jul 17 11:42:59 PDT 2024 ON: 19.99 +20.0 19.89 -12.6 31.1 06 0A 0030 0A14 Alarm State:  0
Wed Jul 17 11:41:58 PDT 2024 ON: 19.99 +20.0 19.90 -12.6 31.1 06 09 0007 0927 Alarm State:  0
Wed Jul 17 11:40:56 PDT 2024 ON: 19.99 +20.0 19.89 -12.6 31.0 06 0A 0012 0919 Alarm State:  0
Wed Jul 17 11:39:55 PDT 2024 ON: 20.00 +20.0 19.87 -12.6 31.1 06 0B 001C 091C Alarm State:  0
Wed Jul 17 11:38:53 PDT 2024 ON: 19.99 +20.0 19.90 -12.6 31.0 06 0A 0021 0A1D Alarm State:  0
Wed Jul 17 11:37:52 PDT 2024 ON: 19.99 +20.0 19.90 -12.6 31.1 06 0A 0009 0B0F Alarm State:  0
Wed Jul 17 11:36:50 PDT 2024 ON: 19.99 +20.0 19.89 -12.6 31.1 06 0A 0014 0A11 Alarm State:  0
Wed Jul 17 11:35:49 PDT 2024 ON: 20.00 +20.0 19.88 -12.6 31.1 06 0A 001E 0916 Alarm State:  0
Wed Jul 17 11:34:47 PDT 2024 ON: 19.99 +20.0 19.88 -12.6 31.1 06 0A 0029 0914 Alarm State:  0
Wed Jul 17 11:33:46 PDT 2024 ON: 20.00 +20.0 19.91 -12.7 31.0 06 09 0000 0A06 Alarm State:  0
Wed Jul 17 11:32:44 PDT 2024 ON: 19.99 +20.0 19.89 -12.7 31.1 06 0A 000B 092D Alarm State:  0
Wed Jul 17 11:31:43 PDT 2024 ON: 20.00 +20.0 19.90 -12.6 31.1 06 0A 0011 0A13 Alarm State:  0
Wed Jul 17 11:30:41 PDT 2024 ON: 20.00 +20.0 19.91 -12.7 31.1 06 09 001C 0A21 Alarm State:  0
Wed Jul 17 11:29:40 PDT 2024 ON: 20.00 +20.0 19.90 -12.6 31.1 06 0A 0026 0A11 Alarm State:  0
Wed Jul 17 11:28:38 PDT 2024 ON: 20.00 +20.0 19.91 -12.7 31.0 06 09 0031 0927 Alarm State:  0
Wed Jul 17 11:27:37 PDT 2024 ON: 20.00 +20.0 19.87 -12.7 31.1 06 0B 0008 0910 Alarm State:  0
Wed Jul 17 11:26:35 PDT 2024 ON: 19.99 +20.0 19.89 -12.7 31.1 06 0A 0011 0A07 Alarm State:  0
Wed Jul 17 11:25:34 PDT 2024 ON: 20.00 +20.0 19.89 -12.6 31.0 06 0A 001B 0A16 Alarm State:  0
Wed Jul 17 11:24:32 PDT 2024 ON: 20.00 +20.0 19.90 -12.6 31.1 06 09 0026 0922 Alarm State:  0
Wed Jul 17 11:23:31 PDT 2024 ON: 19.99 +20.0 19.89 -12.6 31.0 06 0A 0030 0925 Alarm State:  0
Wed Jul 17 11:22:29 PDT 2024 ON: 20.00 +20.0 19.89 -12.6 31.1 06 0A 0000 0928 Alarm State:  0
Wed Jul 17 11:21:28 PDT 2024 ON: 20.00 +20.0 19.89 -12.6 31.0 06 0A 000A 0A0E Alarm State:  0
Wed Jul 17 11:20:26 PDT 2024 ON: 19.99 +20.0 19.89 -12.6 31.1 06 0A 0015 0A27 Alarm State:  0
Wed Jul 17 11:19:25 PDT 2024 ON: 19.99 +20.0 19.88 -12.6 31.1 06 0A 001F 091C Alarm State:  0
Wed Jul 17 11:18:23 PDT 2024 ON: 20.00 +20.0 19.89 -12.6 31.1 06 0A 002A 0920 Alarm State:  0
Wed Jul 17 11:17:22 PDT 2024 ON: 20.00 +20.0 19.91 -12.6 31.0 06 09 0001 0A12 Alarm State:  0
Wed Jul 17 11:16:20 PDT 2024 ON: 19.99 +20.0 19.89 -12.6 31.0 06 0A 000A 0A2B Alarm State:  0
Wed Jul 17 11:15:19 PDT 2024 ON: 19.99 +20.0 19.89 -12.6 31.0 06 0A 0014 0920 Alarm State:  0
Wed Jul 17 11:14:17 PDT 2024 ON: 19.99 +20.0 19.89 -12.6 31.1 06 0A 001F 0906 Alarm State:  0
Wed Jul 17 11:13:16 PDT 2024 ON: 20.00 +20.0 19.90 -12.6 31.1 06 0A 0001 0A0A Alarm State:  0
Wed Jul 17 11:12:14 PDT 2024 ON: 20.00 +20.0 19.90 -12.6 31.1 06 0A 000C 0A22 Alarm State:  0
Wed Jul 17 11:11:13 PDT 2024 ON: 20.00 +20.0 19.89 -12.6 31.1 06 0A 0016 0A0B Alarm State:  0
Wed Jul 17 11:10:11 PDT 2024 ON: 20.00 +20.0 19.88 -12.6 31.1 06 0B 0015 0A1C Alarm State:  0
Wed Jul 17 11:09:10 PDT 2024 ON: 19.99 +20.0 19.90 -12.6 31.1 06 0A 0017 0A1F Alarm State:  0
Wed Jul 17 11:08:08 PDT 2024 ON: 19.99 +20.0 19.90 -12.6 31.1 06 09 0022 0929 Alarm State:  0
Wed Jul 17 11:07:07 PDT 2024 ON: 20.00 +20.0 19.90 -12.6 31.0 06 0A 0026 0B00 Alarm State:  0
Wed Jul 17 11:06:05 PDT 2024 ON: 19.99 +20.0 19.92 -12.6 31.0 06 09 0031 0A18 Alarm State:  0
Wed Jul 17 11:05:04 PDT 2024 ON: 20.00 +20.0 19.89 -12.6 31.0 06 0A 0008 0906 Alarm State:  0
Wed Jul 17 11:04:02 PDT 2024 ON: 20.00 +20.0 19.90 -12.6 31.1 06 0A 000D 0A0B Alarm State:  0
Wed Jul 17 11:03:01 PDT 2024 ON: 20.00 +20.0 19.91 -12.6 31.1 06 09 0015 0A2E Alarm State:  0
Wed Jul 17 11:01:59 PDT 2024 ON: 19.99 +20.0 19.90 -12.6 31.1 06 0A 0014 0A20 Alarm State:  0
Wed Jul 17 11:00:58 PDT 2024 ON: 20.00 +20.0 19.89 -12.6 31.0 06 0A 001E 0A0C Alarm State:  0
Wed Jul 17 10:59:56 PDT 2024 ON: 20.00 +20.0 19.89 -12.6 31.0 06 0A 0029 0A0A Alarm State:  0
Wed Jul 17 10:58:55 PDT 2024 ON: 19.99 +20.0 19.89 -12.6 31.0 06 0A 002F 0A28 Alarm State:  0
Wed Jul 17 10:57:53 PDT 2024 ON: 19.99 +20.0 19.89 -12.6 31.1 06 0A 0007 091C Alarm State:  0
Wed Jul 17 10:56:52 PDT 2024 ON: 20.00 +20.0 19.90 -12.6 31.1 06 0A 0011 0A10 Alarm State:  0
Wed Jul 17 10:55:50 PDT 2024 ON: 20.00 +20.0 19.89 -12.6 31.1 06 0A 001C 0A12 Alarm State:  0
Wed Jul 17 10:54:48 PDT 2024 ON: 19.99 +20.0 19.88 -12.6 31.1 03 0A 0027 0920 Alarm State:  0
Wed Jul 17 10:53:47 PDT 2024 ON: 19.99 +20.0 19.89 -12.6 31.1 06 0A 0031 091B Alarm State:  0
Wed Jul 17 10:52:45 PDT 2024 ON: 20.00 +20.0 19.89 -12.6 31.1 06 0A 0009 0914 Alarm State:  0
Wed Jul 17 10:51:44 PDT 2024 ON: 20.00 +20.0 19.90 -12.6 31.1 06 0A 0009 0A08 Alarm State:  0
Wed Jul 17 10:50:42 PDT 2024 ON: 20.00 +20.0 19.88 -12.6 31.1 06 0B 0014 0A12 Alarm State:  0
Wed Jul 17 10:49:41 PDT 2024 ON: 19.99 +20.0 19.87 -12.6 31.1 06 0B 001E 0A01 Alarm State:  0
Wed Jul 17 10:48:39 PDT 2024 ON: 20.01 +20.0 19.89 -12.6 31.0 06 0A 0023 092B Alarm State:  0
Wed Jul 17 10:47:38 PDT 2024 ON: 20.00 +20.0 19.89 -12.6 31.1 06 0A 0021 0A1F Alarm State:  0
Wed Jul 17 10:46:36 PDT 2024 ON: 20.00 +20.0 19.88 -12.6 31.0 06 0B 002C 0A10 Alarm State:  0
Wed Jul 17 10:45:35 PDT 2024 ON: 19.99 +20.0 19.90 -12.6 31.0 03 0A 0030 0A24 Alarm State:  0
Wed Jul 17 10:44:33 PDT 2024 ON: 20.00 +20.0 19.91 -12.6 31.0 06 09 0008 0A0A Alarm State:  0
Wed Jul 17 10:43:32 PDT 2024 ON: 20.00 +20.0 19.90 -12.6 31.1 06 09 0012 0923 Alarm State:  0
Wed Jul 17 10:42:30 PDT 2024 ON: 20.00 +20.0 19.90 -12.6 31.1 06 0A 001D 0A04 Alarm State:  0
Wed Jul 17 10:41:29 PDT 2024 ON: 19.99 +20.0 19.87 -12.6 31.1 06 0B 0027 0917 Alarm State:  0
Wed Jul 17 10:40:27 PDT 2024 ON: 19.99 +20.0 19.87 -12.6 31.0 06 0B 002E 0A0A Alarm State:  0
Wed Jul 17 10:39:26 PDT 2024 ON: 19.99 +20.0 19.89 -12.6 31.0 03 0A 0003 0A1E Alarm State:  0
Wed Jul 17 10:38:24 PDT 2024 ON: 20.00 +20.0 19.89 -12.6 31.1 06 0A 0031 0A0C Alarm State:  0
Wed Jul 17 10:37:23 PDT 2024 ON: 19.99 +20.0 19.89 -12.6 31.1 06 0A 0008 0A10 Alarm State:  0
Wed Jul 17 10:36:21 PDT 2024 ON: 19.99 +20.0 19.87 -12.6 31.1 06 0B 0013 0930 Alarm State:  0
Wed Jul 17 10:35:20 PDT 2024 ON: 20.00 +20.0 19.90 -12.6 31.1 06 09 001D 0924 Alarm State:  0
Wed Jul 17 10:34:18 PDT 2024 ON: 20.00 +20.0 19.90 -12.6 31.1 00 0A 001A 0A23 Alarm State:  0
Wed Jul 17 10:33:17 PDT 2024 ON: 19.99 +20.0 19.88 -12.6 31.1 06 0B 0012 0B05 Alarm State:  0
Wed Jul 17 10:32:15 PDT 2024 ON: 19.99 +20.0 19.88 -12.6 31.1 06 0A 001D 092D Alarm State:  0
Wed Jul 17 10:31:14 PDT 2024 ON: 19.99 +20.0 19.89 -12.6 31.1 06 0A 0027 0A07 Alarm State:  0
Wed Jul 17 10:30:12 PDT 2024 ON: 20.00 +20.0 19.89 -12.6 31.0 06 0A 0032 0917 Alarm State:  0
Wed Jul 17 10:29:11 PDT 2024 ON: 20.00 +20.0 19.89 -12.6 31.1 06 0A 0009 0A0B Alarm State:  0
Wed Jul 17 10:28:09 PDT 2024 ON: 19.99 +20.0 19.88 -12.6 31.1 06 0B 0014 0A13 Alarm State:  0
Wed Jul 17 10:27:08 PDT 2024 ON: 20.00 +20.0 19.90 -12.6 31.0 06 0A 001E 0A03 Alarm State:  0
Wed Jul 17 10:26:06 PDT 2024 ON: 20.00 +20.0 19.89 -12.6 31.1 06 0A 0017 0A04 Alarm State:  0
Wed Jul 17 10:25:05 PDT 2024 ON: 19.99 +20.0 19.90 -12.6 31.0 06 0A 0021 0A21 Alarm State:  0
Wed Jul 17 10:24:03 PDT 2024 ON: 20.01 +20.0 19.91 -12.6 31.0 06 09 0026 0A0B Alarm State:  0
Wed Jul 17 10:23:02 PDT 2024 ON: 19.99 +20.0 19.89 -12.6 31.1 06 0A 002E 0A02 Alarm State:  0
Wed Jul 17 10:22:00 PDT 2024 ON: 19.99 +20.0 19.90 -12.6 31.1 06 0A 0006 0A21 Alarm State:  0
Wed Jul 17 10:20:59 PDT 2024 ON: 19.99 +20.0 19.91 -12.6 31.1 06 09 0010 0928 Alarm State:  0
Wed Jul 17 10:19:57 PDT 2024 ON: 20.00 +20.0 19.90 -12.6 31.0 06 09 001B 0909 Alarm State:  0
Wed Jul 17 10:18:56 PDT 2024 ON: 20.00 +20.0 19.89 -12.6 31.0 06 0A 002C 0A11 Alarm State:  0
Wed Jul 17 10:17:54 PDT 2024 ON: 19.99 +20.0 19.90 -12.6 30.9 06 0A 002B 0A17 Alarm State:  0
Wed Jul 17 10:16:53 PDT 2024 ON: 19.99 +20.0 19.89 -12.6 31.0 06 0A 0000 0A24 Alarm State:  0
Wed Jul 17 10:15:51 PDT 2024 ON: 19.99 +20.0 19.89 -12.6 31.0 06 0A 000B 0920 Alarm State:  0
Wed Jul 17 10:14:50 PDT 2024 ON: 20.00 +20.0 19.88 -12.6 31.1 06 0A 0013 091A Alarm State:  0
Wed Jul 17 10:13:48 PDT 2024 ON: 20.00 +20.0 19.91 -12.6 31.1 06 09 000A 0A27 Alarm State:  0
Wed Jul 17 10:12:47 PDT 2024 ON: 20.00 +20.0 19.89 -12.6 31.1 06 0B 0008 0B29 Alarm State:  0
Wed Jul 17 10:11:45 PDT 2024 ON: 19.98 +20.0 19.90 -12.6 31.1 06 0A 0013 0A27 Alarm State:  0
Wed Jul 17 10:10:44 PDT 2024 ON: 19.98 +20.0 19.88 -12.6 31.1 06 0A 001D 0928 Alarm State:  0
Wed Jul 17 10:09:42 PDT 2024 ON: 19.99 +20.0 19.88 -12.6 31.1 06 0A 0028 091D Alarm State:  0
Wed Jul 17 10:08:41 PDT 2024 ON: 20.01 +20.0 19.89 -12.6 31.1 06 0A 0032 091D Alarm State:  0
Wed Jul 17 10:07:39 PDT 2024 ON: 19.99 +20.0 19.91 -12.6 31.1 06 0A 0029 0B05 Alarm State:  0
Wed Jul 17 10:06:38 PDT 2024 ON: 20.00 +20.0 19.90 -12.6 31.1 06 0A 0000 0B03 Alarm State:  0
Wed Jul 17 10:05:36 PDT 2024 ON: 19.99 +20.0 19.88 -12.6 31.1 06 0B 000B 0A14 Alarm State:  0
Wed Jul 17 10:04:35 PDT 2024 ON: 19.99 +20.0 19.89 -12.6 31.0 06 0A 0015 092B Alarm State:  0
Wed Jul 17 10:03:33 PDT 2024 ON: 19.99 +20.0 19.89 -12.6 30.9 06 0A 0020 092A Alarm State:  0
Wed Jul 17 10:02:31 PDT 2024 ON: 20.00 +20.0 19.89 -12.6 31.0 06 0A 001A 090D Alarm State:  0
Wed Jul 17 10:01:30 PDT 2024 ON: 20.00 +20.0 19.90 -12.7 30.9 06 0A 0019 0A14 Alarm State:  0
Wed Jul 17 10:00:28 PDT 2024 ON: 20.00 +20.0 19.90 -12.6 31.0 06 0A 0023 0A19 Alarm State:  0
Wed Jul 17 09:59:27 PDT 2024 ON: 20.00 +20.0 19.91 -12.7 30.9 06 09 002E 0A23 Alarm State:  0
Wed Jul 17 09:58:25 PDT 2024 ON: 19.99 +20.0 19.89 -12.7 30.9 06 0A 0005 0928 Alarm State:  0
Wed Jul 17 09:57:24 PDT 2024 ON: 20.00 +20.0 19.90 -12.7 30.9 06 0A 0010 0A07 Alarm State:  0
Wed Jul 17 09:56:22 PDT 2024 ON: 19.99 +20.0 19.88 -12.7 30.8 06 0A 001A 0912 Alarm State:  0
Wed Jul 17 09:55:21 PDT 2024 ON: 20.00 +20.0 19.90 -12.7 30.9 06 09 0025 0910 Alarm State:  0
Wed Jul 17 09:54:10 PDT 2024 ON: 20.00 +20.0 19.93 -12.7 30.9 06 08 0021 0A24 Alarm State:  0
Wed Jul 17 09:53:08 PDT 2024 ON: 19.99 +20.0 19.91 -12.7 30.9 06 09 002C 0A17 Alarm State:  0
Wed Jul 17 09:52:07 PDT 2024 ON: 19.99 +20.0 19.87 -12.6 30.9 06 0B 0003 090C Alarm State:  0
Wed Jul 17 09:51:05 PDT 2024 ON: 19.99 +20.0 19.88 -12.7 30.8 06 0A 000E 0918 Alarm State:  0
Wed Jul 17 09:50:04 PDT 2024 ON: 20.00 +20.0 19.91 -12.7 30.8 06 09 0014 0A08 Alarm State:  0
Wed Jul 17 09:49:02 PDT 2024 ON: 20.00 +20.0 19.90 -12.7 30.8 06 0A 0011 0A1C Alarm State:  0
Wed Jul 17 09:48:01 PDT 2024 ON: 19.99 +20.0 19.90 -12.7 30.8 06 09 001B 092D Alarm State:  0
Wed Jul 17 09:46:59 PDT 2024 ON: 20.00 +20.0 19.92 -12.7 30.8 06 09 0026 0A0A Alarm State:  0
Wed Jul 17 09:45:57 PDT 2024 ON: 19.99 +20.0 19.89 -12.7 30.8 06 0A 0030 092D Alarm State:  0
Wed Jul 17 09:44:56 PDT 2024 ON: 20.00 +20.0 19.90 -12.7 30.7 06 09 0008 0926 Alarm State:  0
Wed Jul 17 09:43:54 PDT 2024 ON: 20.00 +20.0 19.89 -12.7 30.8 06 0A 0012 0916 Alarm State:  0
Wed Jul 17 09:42:53 PDT 2024 ON: 19.99 +20.0 19.90 -12.7 30.8 06 0A 001D 0A17 Alarm State:  0
Wed Jul 17 09:41:51 PDT 2024 ON: 20.00 +20.0 19.89 -12.7 30.8 06 0A 0027 0A1C Alarm State:  0
Wed Jul 17 09:40:50 PDT 2024 ON: 19.99 +20.0 19.90 -12.7 30.8 06 0A 002C 0A26 Alarm State:  0
Wed Jul 17 09:39:48 PDT 2024 ON: 19.99 +20.0 19.88 -12.7 30.7 06 0A 0003 0931 Alarm State:  0
Wed Jul 17 09:38:47 PDT 2024 ON: 19.99 +20.0 19.88 -12.7 30.8 06 0A 000E 0903 Alarm State:  0
Wed Jul 17 09:37:45 PDT 2024 ON: 19.99 +20.0 19.87 -12.7 30.7 06 0B 0018 0912 Alarm State:  0
Wed Jul 17 09:36:44 PDT 2024 ON: 20.00 +20.0 19.91 -12.7 30.8 06 09 0007 0A15 Alarm State:  0
Wed Jul 17 09:35:42 PDT 2024 ON: 19.99 +20.0 19.88 -12.7 30.6 06 0B 0012 0A0B Alarm State:  0
Wed Jul 17 09:34:41 PDT 2024 ON: 20.00 +20.0 19.90 -12.8 30.6 06 0A 001C 0A12 Alarm State:  0
Wed Jul 17 09:33:39 PDT 2024 ON: 19.99 +20.0 19.88 -12.7 30.7 06 0A 0027 092F Alarm State:  0
Wed Jul 17 09:32:38 PDT 2024 ON: 19.99 +20.0 19.89 -12.8 30.7 06 0A 0031 0918 Alarm State:  0
Wed Jul 17 09:31:36 PDT 2024 ON: 19.99 +20.0 19.88 -12.8 30.7 06 0A 0009 0927 Alarm State:  0
Wed Jul 17 09:30:35 PDT 2024 ON: 20.00 +20.0 19.90 -12.8 30.6 06 0A 0013 0A0B Alarm State:  0
Wed Jul 17 09:29:33 PDT 2024 ON: 19.99 +20.0 19.89 -12.7 30.7 06 0A 001E 0A17 Alarm State:  0
Wed Jul 17 09:28:32 PDT 2024 ON: 19.99 +20.0 19.88 -12.7 30.7 06 0A 0028 0926 Alarm State:  0
Wed Jul 17 09:27:30 PDT 2024 ON: 19.99 +20.0 19.88 -12.8 30.6 06 0A 0000 0916 Alarm State:  0
Wed Jul 17 09:26:29 PDT 2024 ON: 20.00 +20.0 19.90 -12.8 30.6 06 09 000A 091B Alarm State:  0
Wed Jul 17 09:25:27 PDT 2024 ON: 20.00 +20.0 19.91 -12.8 30.6 06 09 0015 0A08 Alarm State:  0
Wed Jul 17 09:24:26 PDT 2024 ON: 20.00 +20.0 19.90 -12.8 30.6 06 0A 001F 0A17 Alarm State:  0
Wed Jul 17 09:23:24 PDT 2024 ON: 20.00 +20.0 19.91 -12.8 30.6 06 09 002A 0A02 Alarm State:  0
Wed Jul 17 09:22:23 PDT 2024 ON: 19.99 +20.0 19.91 -12.8 30.6 06 09 0001 0913 Alarm State:  0
Wed Jul 17 09:21:21 PDT 2024 ON: 19.99 +20.0 19.90 -12.8 30.6 06 09 000C 091A Alarm State:  0
Wed Jul 17 09:20:20 PDT 2024 ON: 19.99 +20.0 19.88 -12.8 30.6 01 0A 0010 091E Alarm State:  0
Wed Jul 17 09:19:18 PDT 2024 ON: 19.99 +20.0 19.90 -12.8 30.5 06 0A 0019 0A04 Alarm State:  0
Wed Jul 17 09:18:17 PDT 2024 ON: 19.99 +20.0 19.89 -12.8 30.5 06 0A 0021 0925 Alarm State:  0
Wed Jul 17 09:17:15 PDT 2024 ON: 19.99 +20.0 19.89 -12.8 30.5 06 0A 0014 0A04 Alarm State:  0
Wed Jul 17 09:16:14 PDT 2024 ON: 19.99 +20.0 19.89 -12.8 30.5 06 0A 001E 0A0B Alarm State:  0
Wed Jul 17 09:15:12 PDT 2024 ON: 19.99 +20.0 19.93 -12.8 30.5 06 08 0029 0A19 Alarm State:  0
Wed Jul 17 09:14:11 PDT 2024 ON: 20.00 +20.0 19.90 -12.8 30.5 06 09 0000 091C Alarm State:  0
Wed Jul 17 09:13:09 PDT 2024 ON: 20.00 +20.0 19.90 -12.8 30.5 06 09 000B 0923 Alarm State:  0
Wed Jul 17 09:12:08 PDT 2024 ON: 20.00 +20.0 19.90 -12.8 30.4 06 09 000D 0919 Alarm State:  0
Wed Jul 17 09:11:06 PDT 2024 ON: 20.00 +20.0 19.92 -12.8 30.4 06 09 0002 0A1C Alarm State:  0
Wed Jul 17 09:10:05 PDT 2024 ON: 19.99 +20.0 19.88 -12.8 30.5 06 0B 000C 0A0F Alarm State:  0
Wed Jul 17 09:09:03 PDT 2024 ON: 20.00 +20.0 19.90 -12.8 30.6 06 0A 0017 0A02 Alarm State:  0
Wed Jul 17 09:08:02 PDT 2024 ON: 19.99 +20.0 19.89 -12.7 30.5 06 0A 0021 091F Alarm State:  0
Wed Jul 17 09:07:00 PDT 2024 ON: 20.00 +20.0 19.90 -13.0 30.3 07 09 002A 091F Alarm State:  0
Wed Jul 17 09:05:59 PDT 2024 ON: 20.00 +20.0 19.88 -13.0 30.4 07 0A 0001 091A Alarm State:  0
Wed Jul 17 09:04:57 PDT 2024 ON: 19.99 +20.0 19.89 -13.0 30.4 07 0A 001D 0902 Alarm State:  0
Wed Jul 17 09:03:56 PDT 2024 ON: 20.00 +20.0 19.92 -13.2 30.2 07 08 0032 0925 Alarm State:  0
Wed Jul 17 09:02:54 PDT 2024 ON: 20.00 +20.0 19.89 -13.4 30.1 07 0A 0007 0909 Alarm State:  0
Wed Jul 17 09:01:53 PDT 2024 ON: 20.01 +20.0 19.90 -13.3 30.3 07 09 0103 091D Alarm State:  0
Wed Jul 17 09:00:51 PDT 2024 ON: 20.00 +20.0 19.89 -12.8 30.4 06 0A 002B 0A10 Alarm State:  0
Wed Jul 17 08:59:50 PDT 2024 ON: 19.99 +20.0 19.90 -12.8 30.4 06 09 0002 0931 Alarm State:  0
Wed Jul 17 08:58:48 PDT 2024 ON: 19.99 +20.0 19.89 -12.8 30.5 06 0A 000D 0920 Alarm State:  0
Wed Jul 17 08:57:47 PDT 2024 ON: 19.99 +20.0 19.89 -12.8 30.5 06 0A 0013 0A0A Alarm State:  0
Wed Jul 17 08:56:45 PDT 2024 ON: 20.00 +20.0 19.88 -12.8 30.4 06 0A 001E 0918 Alarm State:  0
Wed Jul 17 08:55:44 PDT 2024 ON: 20.00 +20.0 19.88 -12.8 30.3 06 0A 0024 091A Alarm State:  0
Wed Jul 17 08:54:42 PDT 2024 ON: 20.00 +20.0 19.91 -12.8 30.4 06 09 0027 0A0F Alarm State:  0
Wed Jul 17 08:53:41 PDT 2024 ON: 19.99 +20.0 19.90 -12.8 30.4 06 0A 0031 0A29 Alarm State:  0
Wed Jul 17 08:52:39 PDT 2024 ON: 19.99 +20.0 19.86 -12.8 30.4 06 0C 0009 0A05 Alarm State:  0
Wed Jul 17 08:51:37 PDT 2024 ON: 19.99 +20.0 19.89 -12.8 30.4 06 0A 0013 092F Alarm State:  0
Wed Jul 17 08:50:36 PDT 2024 ON: 20.00 +20.0 19.88 -12.8 30.5 06 0A 001E 090D Alarm State:  0
Wed Jul 17 08:49:34 PDT 2024 ON: 19.99 +20.0 19.89 -12.8 30.4 06 0A 0028 0A01 Alarm State:  0
Wed Jul 17 08:48:33 PDT 2024 ON: 20.01 +20.0 19.90 -12.8 30.4 03 09 001F 0914 Alarm State:  0
Wed Jul 17 08:47:31 PDT 2024 ON: 20.00 +20.0 19.88 -12.8 30.4 06 0B 0015 0A0A Alarm State:  0
Wed Jul 17 08:46:30 PDT 2024 ON: 19.99 +20.0 19.88 -12.8 30.4 06 0B 002F 0A29 Alarm State:  0
Wed Jul 17 08:45:28 PDT 2024 ON: 19.98 +20.0 19.87 -12.8 30.4 06 0B 0006 0A10 Alarm State:  0
Wed Jul 17 08:44:27 PDT 2024 ON: 19.99 +20.0 19.88 -12.8 30.4 06 0A 0011 090C Alarm State:  0
Wed Jul 17 08:43:25 PDT 2024 ON: 20.00 +20.0 19.90 -12.8 30.4 06 09 001B 091F Alarm State:  0
Wed Jul 17 08:42:24 PDT 2024 ON: 20.00 +20.0 19.90 -12.8 30.4 06 0A 0014 0A0E Alarm State:  0
Wed Jul 17 08:41:22 PDT 2024 ON: 19.99 +20.0 19.91 -12.8 30.5 06 09 001E 0A20 Alarm State:  0
Wed Jul 17 08:40:21 PDT 2024 ON: 19.99 +20.0 19.92 -12.8 30.5 06 08 0029 091E Alarm State:  0
Wed Jul 17 08:39:19 PDT 2024 ON: 19.99 +20.0 19.89 -12.8 30.5 06 0A 0000 0A0C Alarm State:  0
Wed Jul 17 08:38:18 PDT 2024 ON: 19.99 +20.0 19.89 -12.8 30.5 06 0A 000B 0A03 Alarm State:  0
Wed Jul 17 08:37:16 PDT 2024 ON: 19.99 +20.0 19.91 -12.8 30.5 06 09 0015 0A09 Alarm State:  0
Wed Jul 17 08:36:15 PDT 2024 ON: 19.99 +20.0 19.89 -12.8 30.5 06 0A 0020 091B Alarm State:  0
Wed Jul 17 08:35:13 PDT 2024 ON: 19.99 +20.0 19.89 -12.7 30.6 06 0A 0026 0A11 Alarm State:  0
Wed Jul 17 08:34:12 PDT 2024 ON: 19.99 +20.0 19.88 -12.7 30.6 06 0B 0031 0A15 Alarm State:  0
Wed Jul 17 08:33:10 PDT 2024 ON: 19.99 +20.0 19.88 -12.7 30.6 06 0A 0008 091A Alarm State:  0
Wed Jul 17 08:32:09 PDT 2024 ON: 19.99 +20.0 19.89 -12.7 30.6 06 0A 0013 0925 Alarm State:  0
Wed Jul 17 08:31:07 PDT 2024 ON: 19.99 +20.0 19.88 -12.8 30.6 06 0A 001E 0930 Alarm State:  0
Wed Jul 17 08:30:06 PDT 2024 ON: 19.99 +20.0 19.89 -12.7 30.6 06 0A 0028 0A04 Alarm State:  0
Wed Jul 17 08:29:04 PDT 2024 ON: 19.99 +20.0 19.88 -12.7 30.6 06 0A 002D 091D Alarm State:  0
Wed Jul 17 08:28:03 PDT 2024 ON: 19.99 +20.0 19.89 -12.7 30.7 06 0A 0002 0A05 Alarm State:  0
Wed Jul 17 08:27:01 PDT 2024 ON: 19.99 +20.0 19.88 -12.7 30.6 01 0A 000D 090B Alarm State:  0
Wed Jul 17 08:26:00 PDT 2024 ON: 20.00 +20.0 19.91 -13.0 30.4 01 09 0024 0909 Alarm State:  0
Wed Jul 17 08:24:58 PDT 2024 ON: 20.00 +20.0 19.89 -13.0 30.5 07 0A 001B 0912 Alarm State:  0
Wed Jul 17 08:23:57 PDT 2024 ON: 20.01 +20.0 19.90 -13.0 30.7 07 09 0011 0922 Alarm State:  0
Wed Jul 17 08:22:55 PDT 2024 ON: 19.99 +20.0 19.90 -13.1 30.6 07 09 0000 0927 Alarm State:  0
Wed Jul 17 08:21:54 PDT 2024 ON: 19.99 +20.0 19.90 -12.8 31.0 06 09 0004 0929 Alarm State:  0
Wed Jul 17 08:20:52 PDT 2024 ON: 19.99 +20.0 19.88 -12.7 31.3 03 0A 000F 0922 Alarm State:  0
Wed Jul 17 08:19:51 PDT 2024 ON: 19.99 +20.0 19.88 -12.6 31.1 06 0A 0019 090D Alarm State:  0
Wed Jul 17 08:18:49 PDT 2024 ON: 19.99 +20.0 19.89 -12.9 30.8 06 0A 001C 090E Alarm State:  0
Wed Jul 17 08:17:48 PDT 2024 ON: 20.00 +20.0 19.90 -12.9 30.7 06 09 0004 0927 Alarm State:  0
Wed Jul 17 08:16:46 PDT 2024 ON: 19.99 +20.0 19.89 -13.0 30.6 07 0A 002E 0917 Alarm State:  0
Wed Jul 17 08:15:45 PDT 2024 ON: 19.99 +20.0 19.89 -12.8 31.0 03 0A 0005 091E Alarm State:  0
Wed Jul 17 08:14:43 PDT 2024 ON: 19.99 +20.0 19.89 -12.7 31.2 06 0A 0008 0A11 Alarm State:  0
Wed Jul 17 08:13:42 PDT 2024 ON: 19.99 +20.0 19.88 -12.8 31.0 06 0A 0012 0920 Alarm State:  0
Wed Jul 17 08:12:40 PDT 2024 ON: 20.00 +20.0 19.89 -12.8 31.0 06 0A 001D 0908 Alarm State:  0
Wed Jul 17 08:11:39 PDT 2024 ON: 20.00 +20.0 19.91 -12.7 31.1 06 09 0027 0917 Alarm State:  0
Wed Jul 17 08:10:37 PDT 2024 ON: 20.00 +20.0 19.90 -12.8 30.9 06 09 0032 0921 Alarm State:  0
Wed Jul 17 08:09:36 PDT 2024 ON: 20.00 +20.0 19.92 -12.8 30.9 06 08 0009 0915 Alarm State:  0
Wed Jul 17 08:08:34 PDT 2024 ON: 19.99 +20.0 19.90 -12.8 30.9 06 09 0010 0904 Alarm State:  0
Wed Jul 17 08:07:33 PDT 2024 ON: 20.00 +20.0 19.89 -12.8 31.0 06 0A 001A 091F Alarm State:  0
Wed Jul 17 08:06:31 PDT 2024 ON: 19.99 +20.0 19.88 -12.8 30.9 06 0A 0025 092E Alarm State:  0
Wed Jul 17 08:05:30 PDT 2024 ON: 20.01 +20.0 19.89 -12.8 31.0 06 0A 001F 090E Alarm State:  0
Wed Jul 17 08:04:28 PDT 2024 ON: 19.99 +20.0 19.90 -12.8 30.9 06 09 0020 092F Alarm State:  0
Wed Jul 17 08:03:27 PDT 2024 ON: 20.00 +20.0 19.90 -12.8 31.0 06 09 002A 0922 Alarm State:  0
Wed Jul 17 08:02:25 PDT 2024 ON: 20.00 +20.0 19.91 -12.8 31.0 06 09 0002 091B Alarm State:  0
Wed Jul 17 08:01:24 PDT 2024 ON: 20.01 +20.0 19.89 -12.9 30.8 06 0A 000C 0921 Alarm State:  0
Wed Jul 17 08:00:22 PDT 2024 ON: 19.99 +20.0 19.89 -12.8 30.9 06 0A 0013 0909 Alarm State:  0
Wed Jul 17 07:59:21 PDT 2024 ON: 20.00 +20.0 19.89 -12.8 30.9 06 0A 001D 0924 Alarm State:  0
Wed Jul 17 07:58:19 PDT 2024 ON: 19.99 +20.0 19.91 -12.9 30.9 06 09 0012 0926 Alarm State:  0
Wed Jul 17 07:57:18 PDT 2024 ON: 19.99 +20.0 19.92 -12.8 31.0 06 08 001C 0916 Alarm State:  0
Wed Jul 17 07:56:16 PDT 2024 ON: 19.99 +20.0 19.90 -12.8 31.0 06 09 001D 0909 Alarm State:  0
Wed Jul 17 07:55:14 PDT 2024 ON: 19.99 +20.0 19.88 -12.8 31.0 06 0A 0021 0912 Alarm State:  0
Wed Jul 17 07:54:13 PDT 2024 ON: 20.00 +20.0 19.87 -12.8 30.9 06 0B 002C 090E Alarm State:  0
Wed Jul 17 07:53:11 PDT 2024 ON: 20.00 +20.0 19.90 -12.8 31.0 00 09 0003 0910 Alarm State:  0
Wed Jul 17 07:52:10 PDT 2024 ON: 20.00 +20.0 19.89 -12.9 30.9 06 0A 0002 0909 Alarm State:  0
Wed Jul 17 07:51:08 PDT 2024 ON: 20.00 +20.0 19.89 -12.8 31.0 06 0A 0006 090F Alarm State:  0
Wed Jul 17 07:50:07 PDT 2024 ON: 20.00 +20.0 19.91 -12.8 31.0 06 09 000F 0A00 Alarm State:  0
Wed Jul 17 07:49:05 PDT 2024 ON: 19.99 +20.0 19.89 -12.8 31.0 06 0A 0015 0A07 Alarm State:  0
Wed Jul 17 07:48:04 PDT 2024 ON: 20.00 +20.0 19.89 -12.8 31.1 06 0A 0020 091F Alarm State:  0
Wed Jul 17 07:47:02 PDT 2024 ON: 20.00 +20.0 19.88 -12.8 31.1 06 0A 0028 091D Alarm State:  0
Wed Jul 17 07:46:01 PDT 2024 ON: 20.00 +20.0 19.89 -12.8 30.9 06 0A 0023 0922 Alarm State:  0
Wed Jul 17 07:44:59 PDT 2024 ON: 20.00 +20.0 19.90 -12.8 30.9 06 09 0013 092A Alarm State:  0
Wed Jul 17 07:43:58 PDT 2024 ON: 20.00 +20.0 19.89 -12.8 30.9 06 0A 001E 0909 Alarm State:  0
Wed Jul 17 07:42:56 PDT 2024 ON: 20.00 +20.0 19.91 -12.8 30.9 06 09 001A 0928 Alarm State:  0
Wed Jul 17 07:41:55 PDT 2024 ON: 20.00 +20.0 19.90 -12.8 30.9 06 09 0025 0914 Alarm State:  0
Wed Jul 17 07:40:53 PDT 2024 ON: 20.00 +20.0 19.90 -12.8 31.0 06 09 0029 0925 Alarm State:  0
Wed Jul 17 07:39:52 PDT 2024 ON: 19.99 +20.0 19.90 -12.8 30.9 06 09 0001 0928 Alarm State:  0
Wed Jul 17 07:38:50 PDT 2024 ON: 19.99 +20.0 19.88 -12.8 30.9 06 0A 000B 090C Alarm State:  0
Wed Jul 17 07:37:49 PDT 2024 ON: 20.00 +20.0 19.89 -12.8 31.0 06 0A 000C 091A Alarm State:  0
Wed Jul 17 07:36:47 PDT 2024 ON: 19.98 +20.0 19.89 -12.9 30.9 06 0A 0012 0919 Alarm State:  0
Wed Jul 17 07:35:46 PDT 2024 ON: 20.00 +20.0 19.91 -12.8 30.9 06 09 0015 091E Alarm State:  0
Wed Jul 17 07:34:44 PDT 2024 ON: 19.99 +20.0 19.89 -12.8 31.0 06 0A 0013 091A Alarm State:  0
Wed Jul 17 07:33:43 PDT 2024 ON: 20.00 +20.0 19.90 -12.8 30.9 06 09 001E 0921 Alarm State:  0
Wed Jul 17 07:32:41 PDT 2024 ON: 19.99 +20.0 19.89 -12.8 31.0 06 0A 0026 092F Alarm State:  0
Wed Jul 17 07:31:40 PDT 2024 ON: 20.01 +20.0 19.90 -12.8 31.0 06 09 0025 0924 Alarm State:  0
Wed Jul 17 07:30:38 PDT 2024 ON: 19.99 +20.0 19.92 -12.8 30.9 06 09 0028 0A12 Alarm State:  0
Wed Jul 17 07:29:37 PDT 2024 ON: 20.01 +20.0 19.90 -12.9 30.9 06 09 002B 0911 Alarm State:  0
Wed Jul 17 07:28:35 PDT 2024 ON: 20.00 +20.0 19.90 -12.8 30.9 06 09 002E 091B Alarm State:  0
Wed Jul 17 07:27:34 PDT 2024 ON: 19.99 +20.0 19.88 -12.8 30.9 06 0A 0024 0923 Alarm State:  0
Wed Jul 17 07:26:32 PDT 2024 ON: 19.99 +20.0 19.90 -12.8 30.9 06 09 002F 0921 Alarm State:  0
Wed Jul 17 07:25:31 PDT 2024 ON: 20.00 +20.0 19.90 -12.8 30.9 06 09 0006 0917 Alarm State:  0
Wed Jul 17 07:24:29 PDT 2024 ON: 20.00 +20.0 19.90 -12.8 30.9 06 09 0011 0907 Alarm State:  0
Wed Jul 17 07:23:28 PDT 2024 ON: 20.00 +20.0 19.92 -12.9 30.9 06 09 002A 0A03 Alarm State:  0
Wed Jul 17 07:22:26 PDT 2024 ON: 20.00 +20.0 19.90 -12.8 31.0 06 09 0025 090E Alarm State:  0
Wed Jul 17 07:21:25 PDT 2024 ON: 20.00 +20.0 19.89 -12.8 30.9 06 0A 002F 0911 Alarm State:  0
Wed Jul 17 07:20:23 PDT 2024 ON: 19.99 +20.0 19.91 -12.9 30.9 03 09 0007 0925 Alarm State:  0
Wed Jul 17 07:19:22 PDT 2024 ON: 20.00 +20.0 19.91 -12.8 30.9 06 09 0011 0922 Alarm State:  0
Wed Jul 17 07:18:20 PDT 2024 ON: 19.99 +20.0 19.93 -12.8 30.9 06 08 001C 0A07 Alarm State:  0
Wed Jul 17 07:17:19 PDT 2024 ON: 20.00 +20.0 19.88 -12.8 31.0 06 0A 0022 091B Alarm State:  0
Wed Jul 17 07:16:17 PDT 2024 ON: 19.99 +20.0 19.88 -12.8 31.0 06 0A 002D 0904 Alarm State:  0
Wed Jul 17 07:15:16 PDT 2024 ON: 20.00 +20.0 19.91 -12.8 30.9 06 09 0000 0917 Alarm State:  0
Wed Jul 17 07:14:14 PDT 2024 ON: 20.00 +20.0 19.90 -12.8 30.9 06 09 0009 0900 Alarm State:  0
Wed Jul 17 07:13:13 PDT 2024 ON: 19.99 +20.0 19.89 -12.8 30.9 06 0A 0009 0919 Alarm State:  0
Wed Jul 17 07:12:11 PDT 2024 ON: 20.00 +20.0 19.90 -12.9 30.9 06 09 0006 090C Alarm State:  0
Wed Jul 17 07:11:10 PDT 2024 ON: 20.00 +20.0 19.88 -12.8 31.0 06 0A 0010 0927 Alarm State:  0
Wed Jul 17 07:10:08 PDT 2024 ON: 20.00 +20.0 19.91 -12.8 30.9 06 09 0030 0A11 Alarm State:  0
Wed Jul 17 07:09:07 PDT 2024 ON: 20.00 +20.0 19.89 -12.8 30.9 06 0A 0007 0903 Alarm State:  0
Wed Jul 17 07:08:05 PDT 2024 ON: 19.99 +20.0 19.89 -12.8 30.9 03 0A 000E 091F Alarm State:  0
Wed Jul 17 07:07:04 PDT 2024 ON: 19.99 +20.0 19.89 -12.8 30.9 06 0A 0014 092F Alarm State:  0
Wed Jul 17 07:06:02 PDT 2024 ON: 19.99 +20.0 19.88 -12.8 30.9 06 0A 001D 0929 Alarm State:  0
Wed Jul 17 07:05:01 PDT 2024 ON: 20.00 +20.0 19.88 -12.9 30.9 06 0A 001D 0911 Alarm State:  0
Wed Jul 17 07:03:59 PDT 2024 ON: 19.99 +20.0 19.91 -12.9 30.9 06 09 0016 0A0C Alarm State:  0
Wed Jul 17 07:02:58 PDT 2024 ON: 20.00 +20.0 19.90 -12.8 30.9 06 09 0020 090C Alarm State:  0
Wed Jul 17 07:01:56 PDT 2024 ON: 20.00 +20.0 19.92 -12.8 30.9 06 09 002B 0A1B Alarm State:  0
Wed Jul 17 07:00:54 PDT 2024 ON: 19.99 +20.0 19.89 -12.8 30.9 06 0A 0002 0922 Alarm State:  0
Wed Jul 17 06:59:53 PDT 2024 ON: 20.00 +20.0 19.89 -12.8 30.9 06 0A 000D 0927 Alarm State:  0
Wed Jul 17 06:58:51 PDT 2024 ON: 20.00 +20.0 19.89 -12.8 30.9 06 0A 0017 0906 Alarm State:  0
Wed Jul 17 06:57:50 PDT 2024 ON: 19.98 +20.0 19.87 -12.8 30.9 06 0B 0022 0923 Alarm State:  0
Wed Jul 17 06:56:48 PDT 2024 ON: 20.00 +20.0 19.90 -12.8 30.9 06 09 002C 0916 Alarm State:  0
Wed Jul 17 06:55:47 PDT 2024 ON: 19.99 +20.0 19.87 -12.8 30.9 06 0B 0004 0912 Alarm State:  0
Wed Jul 17 06:54:45 PDT 2024 ON: 20.00 +20.0 19.90 -12.9 30.9 06 09 000E 090B Alarm State:  0
Wed Jul 17 06:53:44 PDT 2024 ON: 20.00 +20.0 19.88 -12.8 30.9 06 0A 0019 0923 Alarm State:  0
Wed Jul 17 06:52:42 PDT 2024 ON: 19.99 +20.0 19.89 -12.9 30.9 03 0A 0023 0912 Alarm State:  0
Wed Jul 17 06:51:41 PDT 2024 ON: 20.00 +20.0 19.90 -12.9 31.0 06 09 002E 0920 Alarm State:  0
Wed Jul 17 06:50:39 PDT 2024 ON: 19.99 +20.0 19.89 -12.9 30.8 06 0A 0005 0925 Alarm State:  0
Wed Jul 17 06:49:38 PDT 2024 ON: 19.99 +20.0 19.89 -12.9 30.9 06 0A 0010 091B Alarm State:  0
Wed Jul 17 06:48:36 PDT 2024 ON: 19.99 +20.0 19.89 -12.8 30.8 06 0A 001A 0A03 Alarm State:  0
Wed Jul 17 06:47:35 PDT 2024 ON: 20.00 +20.0 19.89 -12.8 30.9 06 0A 0025 0920 Alarm State:  0
Wed Jul 17 06:46:33 PDT 2024 ON: 20.00 +20.0 19.91 -12.8 31.0 06 09 002F 0925 Alarm State:  0
Wed Jul 17 06:45:32 PDT 2024 ON: 20.00 +20.0 19.89 -12.8 30.9 06 0A 0007 0924 Alarm State:  0
Wed Jul 17 06:44:30 PDT 2024 ON: 20.00 +20.0 19.88 -12.8 30.9 06 0A 0011 0923 Alarm State:  0
Wed Jul 17 06:43:29 PDT 2024 ON: 19.99 +20.0 19.90 -12.8 30.9 06 09 001C 0917 Alarm State:  0
Wed Jul 17 06:42:27 PDT 2024 ON: 20.00 +20.0 19.89 -12.8 30.9 06 0A 0026 090E Alarm State:  0
Wed Jul 17 06:41:26 PDT 2024 ON: 20.00 +20.0 19.90 -12.8 30.9 06 09 0031 0928 Alarm State:  0
Wed Jul 17 06:40:24 PDT 2024 ON: 19.98 +20.0 19.88 -12.9 30.8 06 0A 0008 092A Alarm State:  0
Wed Jul 17 06:39:23 PDT 2024 ON: 19.99 +20.0 19.91 -12.9 30.9 06 09 0013 0920 Alarm State:  0
Wed Jul 17 06:38:21 PDT 2024 ON: 20.00 +20.0 19.91 -12.8 30.9 06 09 001D 091B Alarm State:  0
Wed Jul 17 06:37:20 PDT 2024 ON: 20.00 +20.0 19.89 -12.8 30.9 06 0A 0028 0921 Alarm State:  0
Wed Jul 17 06:36:18 PDT 2024 ON: 19.99 +20.0 19.90 -12.8 30.9 06 09 0030 091A Alarm State:  0
Wed Jul 17 06:35:17 PDT 2024 ON: 19.99 +20.0 19.89 -12.8 30.9 06 0A 0008 0914 Alarm State:  0
Wed Jul 17 06:34:15 PDT 2024 ON: 20.00 +20.0 19.89 -12.8 30.8 06 0A 0006 090D Alarm State:  0
Wed Jul 17 06:33:14 PDT 2024 ON: 20.00 +20.0 19.89 -12.8 30.9 06 0A 0011 0928 Alarm State:  0
Wed Jul 17 06:32:12 PDT 2024 ON: 20.00 +20.0 19.89 -12.8 31.0 06 0A 001B 0918 Alarm State:  0
Wed Jul 17 06:31:11 PDT 2024 ON: 20.00 +20.0 19.90 -12.8 31.0 06 09 0026 091E Alarm State:  0
Wed Jul 17 06:30:09 PDT 2024 ON: 20.00 +20.0 19.89 -12.9 30.9 06 0A 0030 092B Alarm State:  0
Wed Jul 17 06:29:08 PDT 2024 ON: 20.00 +20.0 19.89 -12.9 30.9 06 0A 0008 091F Alarm State:  0
Wed Jul 17 06:28:06 PDT 2024 ON: 19.99 +20.0 19.89 -12.9 30.9 06 0A 0012 091B Alarm State:  0
Wed Jul 17 06:27:05 PDT 2024 ON: 20.00 +20.0 19.90 -12.9 31.0 06 09 001D 0903 Alarm State:  0
Wed Jul 17 06:26:03 PDT 2024 ON: 19.99 +20.0 19.88 -12.8 31.0 06 0A 0027 0924 Alarm State:  0
Wed Jul 17 06:25:02 PDT 2024 ON: 19.99 +20.0 19.89 -12.9 30.9 06 0A 0018 091F Alarm State:  0
Wed Jul 17 06:24:00 PDT 2024 ON: 20.00 +20.0 19.88 -12.8 31.0 06 0A 0023 091E Alarm State:  0
Wed Jul 17 06:22:59 PDT 2024 ON: 20.00 +20.0 19.91 -12.9 30.9 06 09 0021 0922 Alarm State:  0
Wed Jul 17 06:21:57 PDT 2024 ON: 20.00 +20.0 19.90 -12.9 30.9 06 09 002C 0908 Alarm State:  0
Wed Jul 17 06:20:56 PDT 2024 ON: 20.00 +20.0 19.87 -12.8 30.9 06 0B 0003 091D Alarm State:  0
Wed Jul 17 06:19:54 PDT 2024 ON: 20.00 +20.0 19.88 -12.8 30.9 06 0A 000E 0901 Alarm State:  0
Wed Jul 17 06:18:53 PDT 2024 ON: 20.01 +20.0 19.92 -12.8 30.9 06 09 000E 0A0D Alarm State:  0
Wed Jul 17 06:17:51 PDT 2024 ON: 19.99 +20.0 19.89 -12.8 30.9 06 0A 0011 0919 Alarm State:  0
Wed Jul 17 06:16:50 PDT 2024 ON: 20.00 +20.0 19.88 -12.8 30.9 06 0A 001B 0921 Alarm State:  0
Wed Jul 17 06:15:48 PDT 2024 ON: 20.00 +20.0 19.88 -12.8 30.9 06 0A 0026 091A Alarm State:  0
Wed Jul 17 06:14:47 PDT 2024 ON: 19.99 +20.0 19.89 -12.9 30.9 06 0A 0030 0918 Alarm State:  0
Wed Jul 17 06:13:45 PDT 2024 ON: 20.00 +20.0 19.90 -12.9 30.9 06 09 0008 091E Alarm State:  0
Wed Jul 17 06:12:44 PDT 2024 ON: 20.00 +20.0 19.91 -12.8 30.9 06 09 0012 0920 Alarm State:  0
Wed Jul 17 06:11:42 PDT 2024 ON: 20.00 +20.0 19.89 -12.8 30.9 06 0A 001D 091B Alarm State:  0
Wed Jul 17 06:10:41 PDT 2024 ON: 19.99 +20.0 19.89 -12.9 30.9 06 0A 0027 091A Alarm State:  0
Wed Jul 17 06:09:39 PDT 2024 ON: 20.00 +20.0 19.91 -12.9 30.8 06 09 0032 091C Alarm State:  0
Wed Jul 17 06:08:37 PDT 2024 ON: 20.00 +20.0 19.89 -12.9 30.9 06 0A 0009 0912 Alarm State:  0
Wed Jul 17 06:07:36 PDT 2024 ON: 20.00 +20.0 19.92 -12.9 30.8 06 08 0014 0924 Alarm State:  0
Wed Jul 17 06:06:34 PDT 2024 ON: 20.00 +20.0 19.89 -12.8 30.9 06 0A 001E 0929 Alarm State:  0
Wed Jul 17 06:05:33 PDT 2024 ON: 20.00 +20.0 19.87 -12.9 30.8 06 0B 0029 0920 Alarm State:  0
Wed Jul 17 06:04:31 PDT 2024 ON: 19.99 +20.0 19.90 -12.8 30.9 00 09 0019 0903 Alarm State:  0
Wed Jul 17 06:03:30 PDT 2024 ON: 20.00 +20.0 19.89 -12.8 30.8 06 0A 0018 0923 Alarm State:  0
Wed Jul 17 06:02:28 PDT 2024 ON: 20.00 +20.0 19.89 -12.8 30.9 06 0A 0022 0911 Alarm State:  0
Wed Jul 17 06:01:27 PDT 2024 ON: 20.00 +20.0 19.88 -12.8 30.9 06 0A 002D 090F Alarm State:  0
Wed Jul 17 06:00:25 PDT 2024 ON: 19.99 +20.0 19.89 -12.8 30.8 06 0A 0004 091F Alarm State:  0
Wed Jul 17 05:59:24 PDT 2024 ON: 20.00 +20.0 19.89 -12.9 30.9 06 0A 000F 0901 Alarm State:  0
Wed Jul 17 05:58:22 PDT 2024 ON: 20.00 +20.0 19.89 -12.9 30.9 06 0A 0019 0901 Alarm State:  0
Wed Jul 17 05:57:21 PDT 2024 ON: 20.00 +20.0 19.90 -12.9 30.9 03 09 0020 0927 Alarm State:  0
Wed Jul 17 05:56:19 PDT 2024 ON: 20.00 +20.0 19.90 -12.8 30.9 06 09 002A 0908 Alarm State:  0
Wed Jul 17 05:55:18 PDT 2024 ON: 20.00 +20.0 19.89 -12.8 30.9 06 0A 0002 0903 Alarm State:  0
Wed Jul 17 05:54:16 PDT 2024 ON: 20.00 +20.0 19.90 -12.8 30.9 06 09 000C 091A Alarm State:  0
Wed Jul 17 05:53:15 PDT 2024 ON: 19.99 +20.0 19.89 -12.8 30.9 06 0A 0017 0919 Alarm State:  0
Wed Jul 17 05:52:13 PDT 2024 ON: 20.00 +20.0 19.90 -12.8 30.9 06 09 0013 0924 Alarm State:  0
Wed Jul 17 05:51:12 PDT 2024 ON: 20.00 +20.0 19.88 -12.8 30.9 06 0A 001E 0905 Alarm State:  0
Wed Jul 17 05:50:10 PDT 2024 ON: 20.00 +20.0 19.88 -12.8 30.9 06 0A 0028 091A Alarm State:  0
Wed Jul 17 05:49:09 PDT 2024 ON: 19.99 +20.0 19.90 -12.8 30.9 06 09 0000 092A Alarm State:  0
Wed Jul 17 05:48:07 PDT 2024 ON: 20.00 +20.0 19.91 -12.8 30.9 06 09 001D 0927 Alarm State:  0
Wed Jul 17 05:47:06 PDT 2024 ON: 19.99 +20.0 19.88 -12.8 30.9 06 0A 0028 0914 Alarm State:  0
Wed Jul 17 05:46:04 PDT 2024 ON: 20.00 +20.0 19.91 -12.8 30.9 06 09 0032 0911 Alarm State:  0
Wed Jul 17 05:45:03 PDT 2024 ON: 19.99 +20.0 19.89 -12.9 30.9 06 0A 002B 0920 Alarm State:  0
Wed Jul 17 05:44:01 PDT 2024 ON: 20.00 +20.0 19.90 -12.8 30.9 06 09 0002 0908 Alarm State:  0
Wed Jul 17 05:43:00 PDT 2024 ON: 19.99 +20.0 19.88 -12.8 30.9 06 0A 000D 0914 Alarm State:  0
Wed Jul 17 05:41:58 PDT 2024 ON: 20.00 +20.0 19.89 -12.9 30.8 06 0A 002C 0A04 Alarm State:  0
Wed Jul 17 05:40:57 PDT 2024 ON: 19.99 +20.0 19.87 -12.8 30.9 06 0B 0031 0A00 Alarm State:  0
Wed Jul 17 05:39:55 PDT 2024 ON: 19.99 +20.0 19.89 -12.8 30.9 06 0A 0008 0909 Alarm State:  0
Wed Jul 17 05:38:54 PDT 2024 ON: 19.99 +20.0 19.89 -12.9 30.9 06 0A 0013 091A Alarm State:  0
Wed Jul 17 05:37:52 PDT 2024 ON: 20.00 +20.0 19.90 -12.8 30.9 06 09 001D 0925 Alarm State:  0
Wed Jul 17 05:36:51 PDT 2024 ON: 20.00 +20.0 19.90 -12.8 30.9 06 09 0028 0929 Alarm State:  0
Wed Jul 17 05:35:49 PDT 2024 ON: 20.00 +20.0 19.90 -12.8 30.9 06 09 0024 091F Alarm State:  0
Wed Jul 17 05:34:48 PDT 2024 ON: 19.99 +20.0 19.89 -12.9 30.8 06 0A 0029 0917 Alarm State:  0
Wed Jul 17 05:33:46 PDT 2024 ON: 19.99 +20.0 19.88 -12.9 30.8 06 0A 0000 0916 Alarm State:  0
Wed Jul 17 05:32:45 PDT 2024 ON: 20.00 +20.0 19.88 -12.9 30.9 06 0A 000B 0926 Alarm State:  0
Wed Jul 17 05:31:43 PDT 2024 ON: 20.00 +20.0 19.90 -12.9 30.9 06 09 0009 090E Alarm State:  0
Wed Jul 17 05:30:42 PDT 2024 ON: 20.00 +20.0 19.89 -12.9 30.9 06 0A 000A 0916 Alarm State:  0
Wed Jul 17 05:29:40 PDT 2024 ON: 20.00 +20.0 19.90 -12.9 30.9 06 09 0014 0913 Alarm State:  0
Wed Jul 17 05:28:39 PDT 2024 ON: 20.00 +20.0 19.90 -12.9 30.9 06 09 0011 0927 Alarm State:  0
Wed Jul 17 05:27:37 PDT 2024 ON: 19.99 +20.0 19.89 -12.8 31.0 06 0A 0019 092D Alarm State:  0
Wed Jul 17 05:26:36 PDT 2024 ON: 20.00 +20.0 19.89 -12.9 30.9 06 0A 0024 090B Alarm State:  0
Wed Jul 17 05:25:34 PDT 2024 ON: 20.00 +20.0 19.91 -12.9 30.8 06 09 002E 091C Alarm State:  0
Wed Jul 17 05:24:33 PDT 2024 ON: 20.00 +20.0 19.90 -12.8 30.9 06 09 0006 092A Alarm State:  0
Wed Jul 17 05:23:31 PDT 2024 ON: 19.99 +20.0 19.88 -12.8 30.9 06 0A 0010 0905 Alarm State:  0
Wed Jul 17 05:22:30 PDT 2024 ON: 20.00 +20.0 19.89 -12.9 30.9 06 0A 001B 0919 Alarm State:  0
Wed Jul 17 05:21:28 PDT 2024 ON: 19.99 +20.0 19.88 -12.9 30.9 06 0B 0025 0A01 Alarm State:  0
Wed Jul 17 05:20:27 PDT 2024 ON: 20.00 +20.0 19.89 -12.8 30.9 06 0A 0030 0900 Alarm State:  0
Wed Jul 17 05:19:25 PDT 2024 ON: 20.00 +20.0 19.90 -12.9 30.8 06 09 0003 0927 Alarm State:  0
Wed Jul 17 05:18:24 PDT 2024 ON: 20.00 +20.0 19.89 -12.8 30.8 06 0A 0006 091C Alarm State:  0
Wed Jul 17 05:17:22 PDT 2024 ON: 20.00 +20.0 19.92 -12.8 30.9 06 08 0010 0921 Alarm State:  0
Wed Jul 17 05:16:21 PDT 2024 ON: 19.99 +20.0 19.90 -12.8 30.9 00 09 001B 092A Alarm State:  0
Wed Jul 17 05:15:19 PDT 2024 ON: 20.00 +20.0 19.89 -12.8 30.8 06 0A 0025 0911 Alarm State:  0
Wed Jul 17 05:14:18 PDT 2024 ON: 20.00 +20.0 19.88 -13.0 30.8 07 0A 0130 090C Alarm State:  0
Wed Jul 17 05:13:16 PDT 2024 ON: 20.01 +20.0 19.88 -13.0 30.9 07 0A 021A 0920 Alarm State:  0
Wed Jul 17 05:12:15 PDT 2024 ON: 20.00 +20.0 19.89 -13.1 30.8 07 0A 0228 0904 Alarm State:  0
Wed Jul 17 05:11:13 PDT 2024 ON: 20.01 +20.0 19.90 -13.2 30.6 07 09 020B 0918 Alarm State:  0
Wed Jul 17 05:10:12 PDT 2024 ON: 20.01 +20.0 19.89 -13.4 30.4 07 0A 0112 0904 Alarm State:  0
Wed Jul 17 05:09:10 PDT 2024 ON: 20.01 +20.0 19.90 -13.5 30.4 07 09 0028 0918 Alarm State:  0
Wed Jul 17 05:08:09 PDT 2024 ON: 19.99 +20.0 19.88 -12.7 31.0 06 0B 001E 0A09 Alarm State:  0
Wed Jul 17 05:07:07 PDT 2024 ON: 19.99 +20.0 19.88 -12.6 31.0 06 0B 0028 0A1A Alarm State:  0
Wed Jul 17 05:06:06 PDT 2024 ON: 19.99 +20.0 19.90 -12.6 30.9 06 0A 001D 0B07 Alarm State:  0
Wed Jul 17 05:05:04 PDT 2024 ON: 19.99 +20.0 19.91 -12.6 30.9 06 09 0027 0A22 Alarm State:  0
Wed Jul 17 05:04:03 PDT 2024 ON: 20.00 +20.0 19.90 -12.6 30.9 06 09 0032 0928 Alarm State:  0
Wed Jul 17 05:03:01 PDT 2024 ON: 20.00 +20.0 19.89 -12.6 30.9 06 0A 000A 0919 Alarm State:  0
Wed Jul 17 05:02:00 PDT 2024 ON: 20.00 +20.0 19.88 -12.6 31.0 06 0B 0004 0A0D Alarm State:  0
Wed Jul 17 05:00:58 PDT 2024 ON: 20.00 +20.0 19.90 -12.6 31.0 06 09 000F 091D Alarm State:  0
Wed Jul 17 04:59:57 PDT 2024 ON: 19.99 +20.0 19.89 -12.6 30.9 06 0A 0019 0A05 Alarm State:  0
Wed Jul 17 04:58:55 PDT 2024 ON: 19.99 +20.0 19.89 -12.6 30.9 06 0A 0022 0A09 Alarm State:  0
Wed Jul 17 04:57:53 PDT 2024 ON: 20.00 +20.0 19.91 -12.6 30.9 03 09 002C 0A20 Alarm State:  0
Wed Jul 17 04:56:52 PDT 2024 ON: 19.99 +20.0 19.87 -12.6 30.9 06 0B 0004 0A03 Alarm State:  0
Wed Jul 17 04:55:50 PDT 2024 ON: 19.99 +20.0 19.90 -12.6 31.0 06 0A 000E 0A07 Alarm State:  0
Wed Jul 17 04:54:49 PDT 2024 ON: 20.00 +20.0 19.90 -12.6 31.0 06 0A 0015 0A09 Alarm State:  0
Wed Jul 17 04:53:47 PDT 2024 ON: 19.99 +20.0 19.91 -12.6 31.0 06 09 001F 091C Alarm State:  0
Wed Jul 17 04:52:46 PDT 2024 ON: 19.99 +20.0 19.91 -12.6 31.1 06 09 002A 091A Alarm State:  0
Wed Jul 17 04:51:44 PDT 2024 ON: 20.00 +20.0 19.90 -12.7 30.9 06 0A 0026 0A1A Alarm State:  0
Wed Jul 17 04:50:43 PDT 2024 ON: 19.99 +20.0 19.90 -12.6 31.0 06 0A 0031 0B03 Alarm State:  0
Wed Jul 17 04:49:41 PDT 2024 ON: 19.99 +20.0 19.87 -12.6 30.9 06 0B 0008 092C Alarm State:  0
Wed Jul 17 04:48:40 PDT 2024 ON: 20.00 +20.0 19.89 -12.6 31.0 06 0A 0013 0912 Alarm State:  0
Wed Jul 17 04:47:38 PDT 2024 ON: 20.00 +20.0 19.90 -12.6 31.0 06 0A 0013 0A06 Alarm State:  0
Wed Jul 17 04:46:37 PDT 2024 ON: 20.00 +20.0 19.89 -12.6 31.0 06 0A 002D 0A20 Alarm State:  0
Wed Jul 17 04:45:35 PDT 2024 ON: 20.00 +20.0 19.89 -12.6 31.0 06 0A 0004 0A1E Alarm State:  0
Wed Jul 17 04:44:34 PDT 2024 ON: 19.99 +20.0 19.88 -12.6 30.9 06 0B 000B 0A18 Alarm State:  0
Wed Jul 17 04:43:32 PDT 2024 ON: 19.99 +20.0 19.89 -12.6 31.0 06 0A 0015 0A08 Alarm State:  0
Wed Jul 17 04:42:31 PDT 2024 ON: 19.99 +20.0 19.88 -12.6 31.0 06 0B 0020 0A05 Alarm State:  0
Wed Jul 17 04:41:29 PDT 2024 ON: 20.00 +20.0 19.89 -12.6 30.9 06 0A 002A 0911 Alarm State:  0
Wed Jul 17 04:40:28 PDT 2024 ON: 20.01 +20.0 19.90 -12.6 30.9 06 0A 0023 0A24 Alarm State:  0
Wed Jul 17 04:39:26 PDT 2024 ON: 19.99 +20.0 19.88 -12.6 31.0 06 0B 0021 0A1C Alarm State:  0
Wed Jul 17 04:38:25 PDT 2024 ON: 20.00 +20.0 19.91 -12.6 31.0 06 09 002C 0A22 Alarm State:  0
Wed Jul 17 04:37:23 PDT 2024 ON: 19.98 +20.0 19.89 -12.6 31.0 06 0A 0003 0A1F Alarm State:  0
Wed Jul 17 04:36:22 PDT 2024 ON: 19.99 +20.0 19.87 -12.6 31.0 06 0B 000E 0915 Alarm State:  0
Wed Jul 17 04:35:20 PDT 2024 ON: 20.00 +20.0 19.89 -12.6 30.9 06 0A 0018 0929 Alarm State:  0
Wed Jul 17 04:34:19 PDT 2024 ON: 19.99 +20.0 19.89 -12.6 31.0 06 0A 0015 0A0A Alarm State:  0
Wed Jul 17 04:33:17 PDT 2024 ON: 19.99 +20.0 19.90 -12.6 31.0 06 0A 001D 0B04 Alarm State:  0
Wed Jul 17 04:32:16 PDT 2024 ON: 19.98 +20.0 19.87 -12.6 31.0 06 0B 0028 0A0E Alarm State:  0
Wed Jul 17 04:31:14 PDT 2024 ON: 20.00 +20.0 19.90 -12.6 30.9 06 09 0032 0923 Alarm State:  0
Wed Jul 17 04:30:13 PDT 2024 ON: 20.00 +20.0 19.89 -12.6 30.9 06 0A 000A 0910 Alarm State:  0
Wed Jul 17 04:29:11 PDT 2024 ON: 20.00 +20.0 19.90 -12.6 30.9 01 0A 0012 0A22 Alarm State:  0
Wed Jul 17 04:28:10 PDT 2024 ON: 19.99 +20.0 19.88 -12.6 30.9 06 0B 0013 0A21 Alarm State:  0
Wed Jul 17 04:27:08 PDT 2024 ON: 19.99 +20.0 19.87 -12.6 31.0 06 0B 001D 0916 Alarm State:  0
Wed Jul 17 04:26:07 PDT 2024 ON: 20.01 +20.0 19.91 -12.6 30.9 06 09 0016 0A07 Alarm State:  0
Wed Jul 17 04:25:05 PDT 2024 ON: 20.00 +20.0 19.90 -12.6 30.8 06 0A 001A 0A0A Alarm State:  0
Wed Jul 17 04:24:04 PDT 2024 ON: 19.99 +20.0 19.90 -12.6 30.9 06 0A 0021 0A23 Alarm State:  0
Wed Jul 17 04:23:02 PDT 2024 ON: 19.99 +20.0 19.88 -12.6 31.0 06 0A 002B 0918 Alarm State:  0
Wed Jul 17 04:22:01 PDT 2024 ON: 19.99 +20.0 19.88 -12.6 30.9 06 0A 0003 090A Alarm State:  0
Wed Jul 17 04:20:59 PDT 2024 ON: 20.00 +20.0 19.90 -12.6 31.0 06 09 000D 091F Alarm State:  0
Wed Jul 17 04:19:58 PDT 2024 ON: 20.01 +20.0 19.88 -12.6 31.0 06 0A 000E 0919 Alarm State:  0
Wed Jul 17 04:18:56 PDT 2024 ON: 20.00 +20.0 19.92 -12.6 31.0 06 09 0027 0A27 Alarm State:  0
Wed Jul 17 04:17:55 PDT 2024 ON: 19.99 +20.0 19.90 -12.6 31.0 06 0A 0032 0A2A Alarm State:  0
Wed Jul 17 04:16:53 PDT 2024 ON: 19.99 +20.0 19.89 -12.6 30.9 06 0A 0009 0A09 Alarm State:  0
Wed Jul 17 04:15:52 PDT 2024 ON: 19.99 +20.0 19.90 -12.6 30.9 06 0A 0010 0A1B Alarm State:  0
Wed Jul 17 04:14:50 PDT 2024 ON: 19.99 +20.0 19.89 -12.6 30.9 06 0A 001A 0920 Alarm State:  0
Wed Jul 17 04:13:49 PDT 2024 ON: 19.99 +20.0 19.87 -12.6 30.9 06 0B 0023 0A01 Alarm State:  0
Wed Jul 17 04:12:47 PDT 2024 ON: 20.00 +20.0 19.90 -12.6 30.9 06 0A 002B 0A24 Alarm State:  0
Wed Jul 17 04:11:46 PDT 2024 ON: 19.99 +20.0 19.89 -12.6 30.9 06 0A 0003 0926 Alarm State:  0
Wed Jul 17 04:10:44 PDT 2024 ON: 20.00 +20.0 19.89 -12.6 31.0 06 0A 000D 090F Alarm State:  0
Wed Jul 17 04:09:43 PDT 2024 ON: 20.00 +20.0 19.90 -12.6 30.9 06 09 0018 0929 Alarm State:  0
Wed Jul 17 04:08:41 PDT 2024 ON: 20.00 +20.0 19.89 -12.6 31.1 06 0A 0022 0924 Alarm State:  0
Wed Jul 17 04:07:40 PDT 2024 ON: 20.00 +20.0 19.90 -12.6 30.9 06 0A 002D 0A1B Alarm State:  0
Wed Jul 17 04:06:38 PDT 2024 ON: 19.99 +20.0 19.91 -12.6 31.0 06 09 0004 0A0E Alarm State:  0
Wed Jul 17 04:05:37 PDT 2024 ON: 19.99 +20.0 19.89 -12.6 31.0 06 0A 000F 092B Alarm State:  0
Wed Jul 17 04:04:35 PDT 2024 ON: 20.00 +20.0 19.89 -12.6 30.9 06 0A 0019 091B Alarm State:  0
Wed Jul 17 04:03:34 PDT 2024 ON: 20.00 +20.0 19.89 -12.6 31.0 06 0A 0024 0A18 Alarm State:  0
Wed Jul 17 04:02:32 PDT 2024 ON: 19.99 +20.0 19.91 -12.6 31.0 06 0A 002E 0B06 Alarm State:  0
Wed Jul 17 04:01:31 PDT 2024 ON: 19.98 +20.0 19.86 -12.6 30.9 06 0B 0006 0930 Alarm State:  0
Wed Jul 17 04:00:29 PDT 2024 ON: 20.00 +20.0 19.89 -12.6 31.0 03 0A 0010 091B Alarm State:  0
Wed Jul 17 03:59:28 PDT 2024 ON: 20.00 +20.0 19.90 -12.6 31.0 06 0A 001B 0A06 Alarm State:  0
Wed Jul 17 03:58:26 PDT 2024 ON: 20.00 +20.0 19.90 -12.6 31.0 06 0A 0025 0A0B Alarm State:  0
Wed Jul 17 03:57:25 PDT 2024 ON: 19.99 +20.0 19.89 -12.6 30.9 06 0A 0030 092E Alarm State:  0
Wed Jul 17 03:56:23 PDT 2024 ON: 19.99 +20.0 19.88 -12.6 31.0 06 0A 0007 0923 Alarm State:  0
Wed Jul 17 03:55:21 PDT 2024 ON: 20.00 +20.0 19.88 -12.6 30.9 06 0A 0012 0917 Alarm State:  0
Wed Jul 17 03:54:20 PDT 2024 ON: 20.00 +20.0 19.88 -12.6 31.0 06 0B 0004 0A11 Alarm State:  0
Wed Jul 17 03:53:18 PDT 2024 ON: 19.99 +20.0 19.88 -12.6 30.9 06 0B 0030 0A0F Alarm State:  0
Wed Jul 17 03:52:17 PDT 2024 ON: 19.99 +20.0 19.88 -12.6 30.9 06 0A 0007 0921 Alarm State:  0
Wed Jul 17 03:51:15 PDT 2024 ON: 19.99 +20.0 19.90 -12.6 31.0 06 0A 0012 0A06 Alarm State:  0
Wed Jul 17 03:50:14 PDT 2024 ON: 19.99 +20.0 19.89 -12.6 30.9 06 0A 0006 0931 Alarm State:  0
Wed Jul 17 03:49:12 PDT 2024 ON: 20.00 +20.0 19.89 -12.6 31.0 03 0A 000F 0A0A Alarm State:  0
Wed Jul 17 03:48:11 PDT 2024 ON: 19.99 +20.0 19.87 -12.6 31.0 06 0B 0019 090F Alarm State:  0
Wed Jul 17 03:47:09 PDT 2024 ON: 19.99 +20.0 19.89 -12.6 31.0 06 0A 0024 0A10 Alarm State:  0
Wed Jul 17 03:46:08 PDT 2024 ON: 19.98 +20.0 19.88 -12.6 31.0 06 0A 002E 0917 Alarm State:  0
Wed Jul 17 03:45:06 PDT 2024 ON: 20.00 +20.0 19.90 -12.6 30.9 06 09 0002 092B Alarm State:  0
Wed Jul 17 03:44:05 PDT 2024 ON: 20.00 +20.0 19.93 -12.6 31.0 06 08 0005 0A00 Alarm State:  0
Wed Jul 17 03:43:03 PDT 2024 ON: 20.00 +20.0 19.91 -12.6 31.0 06 09 000F 0A11 Alarm State:  0
Wed Jul 17 03:42:02 PDT 2024 ON: 19.99 +20.0 19.90 -12.6 31.0 06 0A 001A 0A0B Alarm State:  0
Wed Jul 17 03:41:00 PDT 2024 ON: 20.00 +20.0 19.88 -12.6 30.9 06 0A 0024 090B Alarm State:  0
Wed Jul 17 03:39:59 PDT 2024 ON: 20.00 +20.0 19.91 -12.6 30.9 06 09 002F 0A1A Alarm State:  0
Wed Jul 17 03:38:57 PDT 2024 ON: 20.00 +20.0 19.90 -12.6 30.9 06 0A 0006 0A03 Alarm State:  0
Wed Jul 17 03:37:56 PDT 2024 ON: 19.99 +20.0 19.88 -12.6 30.9 06 0A 0011 0919 Alarm State:  0
Wed Jul 17 03:36:54 PDT 2024 ON: 20.00 +20.0 19.90 -12.6 30.9 06 09 001B 0926 Alarm State:  0
Wed Jul 17 03:35:53 PDT 2024 ON: 19.99 +20.0 19.90 -12.6 31.0 06 09 0026 092F Alarm State:  0
Wed Jul 17 03:34:51 PDT 2024 ON: 19.99 +20.0 19.91 -12.6 31.0 03 09 002C 0A05 Alarm State:  0
Wed Jul 17 03:33:50 PDT 2024 ON: 19.99 +20.0 19.91 -12.6 31.0 06 09 0000 0A0F Alarm State:  0
Wed Jul 17 03:32:48 PDT 2024 ON: 19.99 +20.0 19.88 -12.6 31.0 06 0A 000A 0920 Alarm State:  0
Wed Jul 17 03:31:47 PDT 2024 ON: 19.99 +20.0 19.88 -12.6 31.0 06 0A 0015 091B Alarm State:  0
Wed Jul 17 03:30:45 PDT 2024 ON: 20.01 +20.0 19.92 -12.6 31.0 06 09 0007 0A05 Alarm State:  0
Wed Jul 17 03:29:44 PDT 2024 ON: 19.98 +20.0 19.89 -12.7 31.1 06 0A 000E 0A0D Alarm State:  0
Wed Jul 17 03:28:42 PDT 2024 ON: 19.99 +20.0 19.87 -12.5 31.1 05 0B 0018 0911 Alarm State:  0
Wed Jul 17 03:27:41 PDT 2024 ON: 20.00 +20.0 19.88 -12.7 30.9 06 0A 0023 0911 Alarm State:  0
Wed Jul 17 03:26:39 PDT 2024 ON: 20.01 +20.0 19.90 -13.0 30.8 07 09 0017 0924 Alarm State:  0
Wed Jul 17 03:25:38 PDT 2024 ON: 20.00 +20.0 19.88 -13.0 30.9 06 0A 0010 0902 Alarm State:  0
Wed Jul 17 03:24:36 PDT 2024 ON: 20.00 +20.0 19.89 -13.0 30.9 07 0A 001A 0912 Alarm State:  0
Wed Jul 17 03:23:35 PDT 2024 ON: 20.00 +20.0 19.89 -13.0 30.9 07 0A 0021 0922 Alarm State:  0
Wed Jul 17 03:22:33 PDT 2024 ON: 20.00 +20.0 19.88 -12.9 30.8 06 0A 0017 0905 Alarm State:  0
Wed Jul 17 03:21:32 PDT 2024 ON: 20.00 +20.0 19.89 -12.9 30.9 06 0A 0016 0918 Alarm State:  0
Wed Jul 17 03:20:30 PDT 2024 ON: 20.00 +20.0 19.91 -12.9 30.9 06 09 001E 090E Alarm State:  0
Wed Jul 17 03:19:29 PDT 2024 ON: 20.00 +20.0 19.89 -12.9 30.9 06 0A 0017 090B Alarm State:  0
Wed Jul 17 03:18:27 PDT 2024 ON: 20.00 +20.0 19.89 -12.9 30.9 06 0A 0020 091F Alarm State:  0
Wed Jul 17 03:17:26 PDT 2024 ON: 20.01 +20.0 19.91 -12.9 30.9 06 09 000F 0914 Alarm State:  0
Wed Jul 17 03:16:24 PDT 2024 ON: 20.00 +20.0 19.90 -12.9 30.9 06 09 0009 0914 Alarm State:  0
Wed Jul 17 03:15:23 PDT 2024 ON: 20.00 +20.0 19.91 -12.9 31.0 06 09 0029 0919 Alarm State:  0
Wed Jul 17 03:14:21 PDT 2024 ON: 20.00 +20.0 19.91 -12.9 30.9 06 09 0023 0917 Alarm State:  0
Wed Jul 17 03:13:20 PDT 2024 ON: 20.00 +20.0 19.88 -12.9 30.9 06 0A 001C 091A Alarm State:  0
Wed Jul 17 03:12:18 PDT 2024 ON: 20.00 +20.0 19.89 -12.9 30.8 06 0A 0026 0908 Alarm State:  0
Wed Jul 17 03:11:17 PDT 2024 ON: 20.00 +20.0 19.90 -12.9 30.9 06 09 0025 0911 Alarm State:  0
Wed Jul 17 03:10:15 PDT 2024 ON: 19.98 +20.0 19.89 -12.9 30.9 06 0A 001F 092A Alarm State:  0
Wed Jul 17 03:09:14 PDT 2024 ON: 20.01 +20.0 19.90 -12.9 31.0 06 09 0024 0913 Alarm State:  0
Wed Jul 17 03:08:12 PDT 2024 ON: 20.00 +20.0 19.89 -12.9 30.9 06 0A 001D 091B Alarm State:  0
Wed Jul 17 03:07:11 PDT 2024 ON: 20.00 +20.0 19.90 -12.9 30.9 06 09 0028 091D Alarm State:  0
Wed Jul 17 03:06:09 PDT 2024 ON: 19.99 +20.0 19.89 -12.9 30.9 06 0A 0026 0911 Alarm State:  0
Wed Jul 17 03:05:08 PDT 2024 ON: 20.00 +20.0 19.90 -12.9 30.9 06 09 002B 0918 Alarm State:  0
Wed Jul 17 03:04:06 PDT 2024 ON: 20.00 +20.0 19.89 -12.9 30.9 06 0A 0031 0910 Alarm State:  0
Wed Jul 17 03:03:05 PDT 2024 ON: 19.99 +20.0 19.91 -12.9 31.0 06 09 0004 0919 Alarm State:  0
Wed Jul 17 03:02:03 PDT 2024 ON: 20.01 +20.0 19.91 -12.9 31.0 06 09 002F 090F Alarm State:  0
Wed Jul 17 03:01:02 PDT 2024 ON: 20.00 +20.0 19.89 -12.9 30.8 06 0A 0021 0924 Alarm State:  0
Wed Jul 17 03:00:00 PDT 2024 ON: 20.00 +20.0 19.90 -12.9 30.9 06 09 002B 0903 Alarm State:  0
Wed Jul 17 02:58:49 PDT 2024 ON: 20.00 +20.0 19.89 -12.9 30.9 06 0A 000B 091E Alarm State:  0
Wed Jul 17 02:57:47 PDT 2024 ON: 20.00 +20.0 19.89 -12.9 30.9 06 0A 0015 0920 Alarm State:  0
Wed Jul 17 02:56:46 PDT 2024 ON: 20.00 +20.0 19.90 -12.9 30.9 06 09 0006 0900 Alarm State:  0
Wed Jul 17 02:55:44 PDT 2024 ON: 20.00 +20.0 19.90 -12.9 30.9 06 09 000E 090C Alarm State:  0
Wed Jul 17 02:54:43 PDT 2024 ON: 20.00 +20.0 19.92 -12.9 30.9 06 08 0019 0911 Alarm State:  0
Wed Jul 17 02:53:41 PDT 2024 ON: 20.00 +20.0 19.89 -12.9 30.9 06 0A 0021 0915 Alarm State:  0
Wed Jul 17 02:52:40 PDT 2024 ON: 20.00 +20.0 19.90 -12.9 30.9 06 09 002F 0901 Alarm State:  0
Wed Jul 17 02:51:38 PDT 2024 ON: 20.00 +20.0 19.90 -13.0 30.9 07 09 0002 0915 Alarm State:  0
Wed Jul 17 02:50:37 PDT 2024 ON: 19.99 +20.0 19.89 -12.9 31.0 06 0A 001A 0924 Alarm State:  0
Wed Jul 17 02:49:35 PDT 2024 ON: 20.00 +20.0 19.89 -12.9 30.9 03 0A 0027 0924 Alarm State:  0
Wed Jul 17 02:48:34 PDT 2024 ON: 20.01 +20.0 19.90 -12.9 30.9 06 09 002E 090A Alarm State:  0
Wed Jul 17 02:47:32 PDT 2024 ON: 20.00 +20.0 19.90 -12.9 30.9 06 09 002C 0918 Alarm State:  0
Wed Jul 17 02:46:31 PDT 2024 ON: 20.00 +20.0 19.89 -12.9 31.0 06 0A 0031 0925 Alarm State:  0
Wed Jul 17 02:45:29 PDT 2024 ON: 20.00 +20.0 19.88 -12.9 30.9 06 0A 001D 0906 Alarm State:  0
Wed Jul 17 02:44:28 PDT 2024 ON: 20.00 +20.0 19.89 -13.0 30.9 07 0A 0020 0907 Alarm State:  0
Wed Jul 17 02:43:26 PDT 2024 ON: 20.01 +20.0 19.92 -13.0 30.9 07 08 001E 0919 Alarm State:  0
Wed Jul 17 02:42:25 PDT 2024 ON: 20.00 +20.0 19.90 -12.9 30.9 07 09 002E 0903 Alarm State:  0
Wed Jul 17 02:41:23 PDT 2024 ON: 20.00 +20.0 19.87 -12.9 30.9 06 0B 002E 0913 Alarm State:  0
Wed Jul 17 02:40:22 PDT 2024 ON: 20.01 +20.0 19.91 -12.9 30.9 06 09 0011 0926 Alarm State:  0
Wed Jul 17 02:39:20 PDT 2024 ON: 20.01 +20.0 19.90 -12.9 30.9 06 09 0026 090D Alarm State:  0
Wed Jul 17 02:38:19 PDT 2024 ON: 20.00 +20.0 19.90 -12.9 30.8 06 09 0019 091A Alarm State:  0
Wed Jul 17 02:37:17 PDT 2024 ON: 20.01 +20.0 19.90 -12.9 30.8 06 09 000D 0903 Alarm State:  0
Wed Jul 17 02:36:15 PDT 2024 ON: 20.00 +20.0 19.89 -13.0 30.8 07 0A 001F 0918 Alarm State:  0
Wed Jul 17 02:35:14 PDT 2024 ON: 20.00 +20.0 19.89 -12.9 30.9 06 0A 0009 0924 Alarm State:  0
Wed Jul 17 02:34:12 PDT 2024 ON: 19.99 +20.0 19.90 -12.9 30.8 06 09 0014 0917 Alarm State:  0
Wed Jul 17 02:33:11 PDT 2024 ON: 20.00 +20.0 19.88 -12.9 30.9 06 0A 001E 0924 Alarm State:  0
Wed Jul 17 02:32:09 PDT 2024 ON: 20.00 +20.0 19.88 -12.9 30.9 06 0A 0022 090C Alarm State:  0
Wed Jul 17 02:31:08 PDT 2024 ON: 20.00 +20.0 19.91 -12.9 30.9 06 09 001E 091C Alarm State:  0
Wed Jul 17 02:30:06 PDT 2024 ON: 20.00 +20.0 19.90 -12.9 30.9 06 09 0019 091B Alarm State:  0
Wed Jul 17 02:29:05 PDT 2024 ON: 20.00 +20.0 19.89 -12.9 30.9 06 0A 0107 090B Alarm State:  0
Wed Jul 17 02:28:03 PDT 2024 ON: 20.01 +20.0 19.91 -12.9 30.9 06 09 0025 0916 Alarm State:  0
Wed Jul 17 02:27:02 PDT 2024 ON: 20.00 +20.0 19.88 -12.9 30.9 06 0A 0017 0901 Alarm State:  0
Wed Jul 17 02:26:00 PDT 2024 ON: 19.99 +20.0 19.90 -12.9 30.9 06 09 000E 090E Alarm State:  0
Wed Jul 17 02:24:59 PDT 2024 ON: 20.00 +20.0 19.91 -12.9 30.9 06 09 000E 0919 Alarm State:  0
Wed Jul 17 02:23:57 PDT 2024 ON: 20.00 +20.0 19.91 -12.9 30.9 06 09 0007 090A Alarm State:  0
Wed Jul 17 02:22:56 PDT 2024 ON: 20.00 +20.0 19.91 -12.9 30.9 06 09 0005 090A Alarm State:  0
Wed Jul 17 02:21:53 PDT 2024 ON: 20.00 +20.0 19.91 -12.9 30.9 06 09 002E 090E Alarm State:  0
Wed Jul 17 02:20:52 PDT 2024 ON: 20.01 +20.0 19.90 -13.0 30.9 07 09 0105 0916 Alarm State:  0
Wed Jul 17 02:19:50 PDT 2024 ON: 20.00 +20.0 19.90 -12.9 30.9 06 09 0027 091D Alarm State:  0
Wed Jul 17 02:18:49 PDT 2024 ON: 20.00 +20.0 19.90 -12.9 30.9 06 09 0019 0915 Alarm State:  0
Wed Jul 17 02:17:47 PDT 2024 ON: 20.00 +20.0 19.90 -12.9 30.9 06 09 001A 090E Alarm State:  0
Wed Jul 17 02:16:46 PDT 2024 ON: 20.00 +20.0 19.91 -12.9 30.8 06 09 0020 0914 Alarm State:  0
Wed Jul 17 02:15:44 PDT 2024 ON: 20.00 +20.0 19.89 -12.9 30.9 06 0A 0023 0917 Alarm State:  0
Wed Jul 17 02:14:43 PDT 2024 ON: 20.00 +20.0 19.89 -12.9 30.9 01 0A 002B 090D Alarm State:  0
Wed Jul 17 02:13:41 PDT 2024 ON: 20.00 +20.0 19.90 -12.9 30.9 06 09 002E 0927 Alarm State:  0
Wed Jul 17 02:12:40 PDT 2024 ON: 20.00 +20.0 19.92 -12.9 30.9 06 08 0020 0907 Alarm State:  0
Wed Jul 17 02:11:38 PDT 2024 ON: 20.00 +20.0 19.90 -12.9 30.9 06 09 0017 0918 Alarm State:  0
Wed Jul 17 02:10:37 PDT 2024 ON: 20.00 +20.0 19.89 -12.9 30.9 06 0A 0021 0928 Alarm State:  0
Wed Jul 17 02:09:35 PDT 2024 ON: 20.00 +20.0 19.88 -12.9 30.9 06 0A 0024 0914 Alarm State:  0
Wed Jul 17 02:08:34 PDT 2024 ON: 20.00 +20.0 19.88 -12.9 31.0 06 0A 0018 0918 Alarm State:  0
Wed Jul 17 02:07:32 PDT 2024 ON: 20.00 +20.0 19.89 -12.9 30.9 06 0A 0023 0921 Alarm State:  0
Wed Jul 17 02:06:31 PDT 2024 ON: 20.00 +20.0 19.90 -12.9 30.9 06 09 0007 090C Alarm State:  0
Wed Jul 17 02:05:29 PDT 2024 ON: 20.00 +20.0 19.90 -12.9 30.9 06 09 000E 0901 Alarm State:  0
Wed Jul 17 02:04:28 PDT 2024 ON: 20.00 +20.0 19.90 -12.9 30.9 06 09 0019 0915 Alarm State:  0
Wed Jul 17 02:03:26 PDT 2024 ON: 19.99 +20.0 19.89 -12.9 30.9 06 0A 001B 0907 Alarm State:  0
Wed Jul 17 02:02:25 PDT 2024 ON: 20.00 +20.0 19.89 -12.9 30.9 06 0A 0026 0918 Alarm State:  0
Wed Jul 17 02:01:23 PDT 2024 ON: 20.00 +20.0 19.89 -12.9 30.9 06 0A 0016 0918 Alarm State:  0
Wed Jul 17 02:00:22 PDT 2024 ON: 20.00 +20.0 19.89 -12.9 30.9 06 0A 001F 091F Alarm State:  0
Wed Jul 17 01:59:20 PDT 2024 ON: 20.00 +20.0 19.88 -12.9 30.9 06 0A 0025 0923 Alarm State:  0
Wed Jul 17 01:58:19 PDT 2024 ON: 20.00 +20.0 19.92 -12.9 30.9 06 08 001C 091C Alarm State:  0
Wed Jul 17 01:57:17 PDT 2024 ON: 20.00 +20.0 19.89 -13.0 30.9 07 0A 0016 0918 Alarm State:  0
Wed Jul 17 01:56:16 PDT 2024 ON: 20.00 +20.0 19.88 -13.0 30.9 07 0A 001D 0921 Alarm State:  0
Wed Jul 17 01:55:14 PDT 2024 ON: 19.99 +20.0 19.89 -12.9 30.9 06 0A 0013 0925 Alarm State:  0
Wed Jul 17 01:54:13 PDT 2024 ON: 20.00 +20.0 19.88 -12.9 30.9 06 0A 0021 0905 Alarm State:  0
Wed Jul 17 01:53:11 PDT 2024 ON: 20.00 +20.0 19.89 -12.9 30.9 06 0A 002B 0914 Alarm State:  0
Wed Jul 17 01:52:10 PDT 2024 ON: 20.00 +20.0 19.88 -12.9 31.0 06 0A 0022 0917 Alarm State:  0
Wed Jul 17 01:51:08 PDT 2024 ON: 20.00 +20.0 19.91 -12.9 30.9 06 09 002A 0A00 Alarm State:  0
Wed Jul 17 01:50:07 PDT 2024 ON: 20.00 +20.0 19.89 -12.9 30.9 06 0A 0002 0914 Alarm State:  0
Wed Jul 17 01:49:05 PDT 2024 ON: 20.00 +20.0 19.88 -12.9 30.9 06 0A 0029 091C Alarm State:  0
Wed Jul 17 01:48:04 PDT 2024 ON: 20.00 +20.0 19.89 -12.9 30.9 06 0A 0020 0911 Alarm State:  0
Wed Jul 17 01:47:02 PDT 2024 ON: 20.00 +20.0 19.88 -12.9 31.0 06 0A 0018 0927 Alarm State:  0
Wed Jul 17 01:46:01 PDT 2024 ON: 20.00 +20.0 19.91 -12.9 30.9 06 09 0023 090D Alarm State:  0
Wed Jul 17 01:44:59 PDT 2024 ON: 20.00 +20.0 19.91 -12.9 30.9 01 09 002B 091D Alarm State:  0
Wed Jul 17 01:43:58 PDT 2024 ON: 20.00 +20.0 19.89 -12.9 30.9 06 0A 0003 0915 Alarm State:  0
Wed Jul 17 01:42:56 PDT 2024 ON: 20.00 +20.0 19.91 -12.9 30.9 06 09 0022 091B Alarm State:  0
Wed Jul 17 01:41:55 PDT 2024 ON: 20.01 +20.0 19.90 -12.9 30.9 06 09 0021 0926 Alarm State:  0
Wed Jul 17 01:40:53 PDT 2024 ON: 20.00 +20.0 19.91 -13.0 30.9 04 09 000D 0920 Alarm State:  0
Wed Jul 17 01:39:52 PDT 2024 ON: 20.01 +20.0 19.89 -12.9 30.9 06 0A 0010 091D Alarm State:  0
Wed Jul 17 01:38:50 PDT 2024 ON: 20.00 +20.0 19.89 -12.9 30.9 06 0A 0012 0919 Alarm State:  0
Wed Jul 17 01:37:49 PDT 2024 ON: 20.00 +20.0 19.91 -12.9 30.9 06 09 0028 091A Alarm State:  0
Wed Jul 17 01:36:47 PDT 2024 ON: 20.00 +20.0 19.90 -13.0 30.9 07 09 0016 0922 Alarm State:  0
Wed Jul 17 01:35:46 PDT 2024 ON: 20.01 +20.0 19.89 -12.9 30.9 06 0A 001F 0900 Alarm State:  0
Wed Jul 17 01:34:44 PDT 2024 ON: 20.00 +20.0 19.88 -12.9 30.9 06 0A 0019 0923 Alarm State:  0
Wed Jul 17 01:33:43 PDT 2024 ON: 20.00 +20.0 19.90 -13.0 30.9 07 09 0022 0905 Alarm State:  0
Wed Jul 17 01:32:41 PDT 2024 ON: 20.00 +20.0 19.91 -12.9 30.8 06 09 0024 0903 Alarm State:  0
Wed Jul 17 01:31:40 PDT 2024 ON: 20.00 +20.0 19.89 -12.9 30.9 06 0A 002B 0927 Alarm State:  0
Wed Jul 17 01:30:38 PDT 2024 ON: 20.00 +20.0 19.89 -12.9 30.9 06 0A 001C 090E Alarm State:  0
Wed Jul 17 01:29:37 PDT 2024 ON: 20.00 +20.0 19.89 -12.9 31.0 06 0A 0025 091F Alarm State:  0
Wed Jul 17 01:28:35 PDT 2024 ON: 20.00 +20.0 19.89 -12.9 31.0 06 0A 002F 090F Alarm State:  0
Wed Jul 17 01:27:33 PDT 2024 ON: 20.00 +20.0 19.90 -12.9 30.9 06 09 0030 0922 Alarm State:  0
Wed Jul 17 01:26:32 PDT 2024 ON: 20.00 +20.0 19.87 -12.9 30.8 06 0B 0007 0903 Alarm State:  0
Wed Jul 17 01:25:30 PDT 2024 ON: 20.00 +20.0 19.90 -12.9 30.9 06 09 0010 0918 Alarm State:  0
Wed Jul 17 01:24:29 PDT 2024 ON: 20.00 +20.0 19.88 -12.9 30.9 06 0A 001A 0916 Alarm State:  0
Wed Jul 17 01:23:27 PDT 2024 ON: 20.00 +20.0 19.89 -12.9 31.0 06 0A 0025 0911 Alarm State:  0
Wed Jul 17 01:22:26 PDT 2024 ON: 20.01 +20.0 19.89 -12.9 30.9 06 0A 0021 0921 Alarm State:  0
Wed Jul 17 01:21:24 PDT 2024 ON: 20.00 +20.0 19.90 -12.9 30.8 06 09 000A 090D Alarm State:  0
Wed Jul 17 01:20:23 PDT 2024 ON: 20.00 +20.0 19.89 -12.9 30.8 06 0A 000E 0911 Alarm State:  0
Wed Jul 17 01:19:21 PDT 2024 ON: 20.00 +20.0 19.90 -12.9 30.9 06 09 0011 091C Alarm State:  0
Wed Jul 17 01:18:20 PDT 2024 ON: 20.01 +20.0 19.89 -12.9 30.9 06 0A 0024 0920 Alarm State:  0
Wed Jul 17 01:17:18 PDT 2024 ON: 20.01 +20.0 19.89 -12.9 30.9 06 0A 0013 090C Alarm State:  0
Wed Jul 17 01:16:17 PDT 2024 ON: 19.99 +20.0 19.88 -12.9 30.9 00 0A 0013 0905 Alarm State:  0
Wed Jul 17 01:15:15 PDT 2024 ON: 20.01 +20.0 19.89 -12.9 30.9 06 0A 001C 0913 Alarm State:  0
Wed Jul 17 01:14:14 PDT 2024 ON: 20.00 +20.0 19.89 -12.9 31.0 06 0A 001A 0909 Alarm State:  0
Wed Jul 17 01:13:12 PDT 2024 ON: 20.00 +20.0 19.89 -12.9 30.9 06 0A 001B 0902 Alarm State:  0
Wed Jul 17 01:12:11 PDT 2024 ON: 19.99 +20.0 19.89 -12.9 30.9 06 0A 0032 0910 Alarm State:  0
Wed Jul 17 01:11:09 PDT 2024 ON: 20.00 +20.0 19.91 -13.0 30.9 07 09 0011 0915 Alarm State:  0
Wed Jul 17 01:10:08 PDT 2024 ON: 20.00 +20.0 19.90 -12.9 30.9 06 09 0017 0900 Alarm State:  0
Wed Jul 17 01:09:06 PDT 2024 ON: 20.00 +20.0 19.89 -12.9 30.9 06 0A 0016 090D Alarm State:  0
Wed Jul 17 01:08:05 PDT 2024 ON: 19.99 +20.0 19.90 -12.9 30.8 06 09 001C 0924 Alarm State:  0
Wed Jul 17 01:07:03 PDT 2024 ON: 20.01 +20.0 19.90 -12.9 30.9 06 09 000D 0904 Alarm State:  0
Wed Jul 17 01:06:02 PDT 2024 ON: 20.00 +20.0 19.89 -12.9 30.9 06 0A 0032 0904 Alarm State:  0
Wed Jul 17 01:05:00 PDT 2024 ON: 20.00 +20.0 19.89 -12.9 30.9 06 0A 000A 0922 Alarm State:  0
Wed Jul 17 01:03:59 PDT 2024 ON: 19.99 +20.0 19.89 -12.9 30.8 06 0A 002F 0909 Alarm State:  0
Wed Jul 17 01:02:57 PDT 2024 ON: 19.99 +20.0 19.89 -12.9 30.9 06 0A 0007 0A04 Alarm State:  0
Wed Jul 17 01:01:56 PDT 2024 ON: 20.00 +20.0 19.90 -12.9 30.9 06 09 0007 092A Alarm State:  0
Wed Jul 17 01:00:54 PDT 2024 ON: 20.00 +20.0 19.91 -12.9 30.8 06 09 0012 0905 Alarm State:  0
Wed Jul 17 00:59:53 PDT 2024 ON: 20.00 +20.0 19.90 -12.9 31.0 06 09 0014 090D Alarm State:  0
Wed Jul 17 00:58:51 PDT 2024 ON: 20.01 +20.0 19.89 -12.9 30.9 06 0A 0017 0921 Alarm State:  0
Wed Jul 17 00:57:50 PDT 2024 ON: 20.00 +20.0 19.88 -12.9 30.9 06 0A 000F 0915 Alarm State:  0
Wed Jul 17 00:56:48 PDT 2024 ON: 20.00 +20.0 19.89 -12.9 30.9 06 0A 001A 090B Alarm State:  0
Wed Jul 17 00:55:47 PDT 2024 ON: 20.00 +20.0 19.89 -12.9 30.8 06 0A 0015 0906 Alarm State:  0
Wed Jul 17 00:54:45 PDT 2024 ON: 19.99 +20.0 19.88 -12.9 30.9 06 0A 0001 0911 Alarm State:  0
Wed Jul 17 00:53:44 PDT 2024 ON: 20.00 +20.0 19.89 -12.9 30.9 06 0A 0004 0927 Alarm State:  0
Wed Jul 17 00:52:42 PDT 2024 ON: 20.00 +20.0 19.89 -12.9 30.9 06 0A 0006 091F Alarm State:  0
Wed Jul 17 00:51:41 PDT 2024 ON: 20.01 +20.0 19.90 -12.9 30.8 06 09 0003 0916 Alarm State:  0
Wed Jul 17 00:50:39 PDT 2024 ON: 20.01 +20.0 19.91 -12.9 30.9 06 09 0101 0906 Alarm State:  0
Wed Jul 17 00:49:38 PDT 2024 ON: 19.99 +20.0 19.89 -12.9 30.9 06 0A 0002 0918 Alarm State:  0
Wed Jul 17 00:48:36 PDT 2024 ON: 20.00 +20.0 19.89 -12.9 30.9 06 0A 0006 0904 Alarm State:  0
Wed Jul 17 00:47:35 PDT 2024 ON: 19.99 +20.0 19.91 -12.9 30.8 06 09 0011 0918 Alarm State:  0
Wed Jul 17 00:46:33 PDT 2024 ON: 20.00 +20.0 19.88 -12.9 30.9 06 0A 001B 0904 Alarm State:  0
Wed Jul 17 00:45:32 PDT 2024 ON: 20.00 +20.0 19.90 -12.9 30.9 06 09 0020 091C Alarm State:  0
Wed Jul 17 00:44:30 PDT 2024 ON: 19.99 +20.0 19.87 -12.9 31.0 06 0B 002A 090E Alarm State:  0
Wed Jul 17 00:43:29 PDT 2024 ON: 19.99 +20.0 19.89 -12.9 30.9 06 0A 0002 0920 Alarm State:  0
Wed Jul 17 00:42:27 PDT 2024 ON: 19.99 +20.0 19.88 -12.9 30.9 03 0A 0008 090E Alarm State:  0
Wed Jul 17 00:41:26 PDT 2024 ON: 20.00 +20.0 19.90 -12.9 30.9 06 09 0013 091C Alarm State:  0
Wed Jul 17 00:40:24 PDT 2024 ON: 19.99 +20.0 19.88 -12.9 30.9 06 0A 000D 091C Alarm State:  0
Wed Jul 17 00:39:23 PDT 2024 ON: 20.00 +20.0 19.88 -12.9 30.9 06 0A 0018 0920 Alarm State:  0
Wed Jul 17 00:38:21 PDT 2024 ON: 20.00 +20.0 19.90 -12.9 31.0 06 09 001A 0903 Alarm State:  0
Wed Jul 17 00:37:20 PDT 2024 ON: 20.00 +20.0 19.89 -12.9 30.9 06 0A 0025 0906 Alarm State:  0
Wed Jul 17 00:36:18 PDT 2024 ON: 19.99 +20.0 19.88 -12.9 30.9 06 0A 0027 092A Alarm State:  0
Wed Jul 17 00:35:17 PDT 2024 ON: 19.99 +20.0 19.88 -12.9 30.9 06 0A 0028 091F Alarm State:  0
Wed Jul 17 00:34:15 PDT 2024 ON: 20.00 +20.0 19.87 -12.9 30.9 06 0B 002E 0913 Alarm State:  0
Wed Jul 17 00:33:14 PDT 2024 ON: 20.00 +20.0 19.90 -12.9 30.9 06 09 0000 0925 Alarm State:  0
Wed Jul 17 00:32:12 PDT 2024 ON: 20.00 +20.0 19.90 -12.9 30.9 06 09 0000 0925 Alarm State:  0
Wed Jul 17 00:31:11 PDT 2024 ON: 20.00 +20.0 19.90 -12.9 30.9 06 09 0030 0918 Alarm State:  0
Wed Jul 17 00:30:09 PDT 2024 ON: 20.00 +20.0 19.89 -12.9 31.0 06 0A 0032 091F Alarm State:  0
Wed Jul 17 00:29:08 PDT 2024 ON: 20.00 +20.0 19.88 -12.9 30.9 06 0A 0000 091C Alarm State:  0
Wed Jul 17 00:28:06 PDT 2024 ON: 20.00 +20.0 19.90 -12.9 30.9 06 09 000A 0920 Alarm State:  0
Wed Jul 17 00:27:04 PDT 2024 ON: 20.01 +20.0 19.88 -12.9 30.9 06 0A 0015 0907 Alarm State:  0
Wed Jul 17 00:26:03 PDT 2024 ON: 20.00 +20.0 19.89 -12.9 30.9 06 0A 000F 0908 Alarm State:  0
Wed Jul 17 00:25:01 PDT 2024 ON: 19.99 +20.0 19.89 -12.9 30.9 06 0A 0018 090F Alarm State:  0
Wed Jul 17 00:24:00 PDT 2024 ON: 20.00 +20.0 19.89 -12.9 30.9 06 0A 0020 091B Alarm State:  0
Wed Jul 17 00:22:58 PDT 2024 ON: 19.99 +20.0 19.88 -12.9 30.9 06 0A 002B 091A Alarm State:  0
Wed Jul 17 00:21:57 PDT 2024 ON: 20.00 +20.0 19.90 -12.9 30.9 06 09 0002 0914 Alarm State:  0
Wed Jul 17 00:20:55 PDT 2024 ON: 20.00 +20.0 19.90 -13.0 30.9 07 09 002C 0921 Alarm State:  0
Wed Jul 17 00:19:54 PDT 2024 ON: 19.99 +20.0 19.88 -12.9 30.9 06 0A 0003 0908 Alarm State:  0
Wed Jul 17 00:18:52 PDT 2024 ON: 20.00 +20.0 19.89 -12.9 30.9 06 0A 000E 0928 Alarm State:  0
Wed Jul 17 00:17:51 PDT 2024 ON: 20.00 +20.0 19.88 -12.9 30.9 06 0A 000A 090F Alarm State:  0
Wed Jul 17 00:16:49 PDT 2024 ON: 19.99 +20.0 19.90 -12.9 30.8 06 09 0003 0927 Alarm State:  0
Wed Jul 17 00:15:48 PDT 2024 ON: 20.01 +20.0 19.90 -13.0 30.9 07 09 0007 090B Alarm State:  0
Wed Jul 17 00:14:46 PDT 2024 ON: 20.01 +20.0 19.90 -12.9 31.0 06 09 002F 0900 Alarm State:  0
Wed Jul 17 00:13:45 PDT 2024 ON: 20.00 +20.0 19.90 -13.0 30.9 07 09 002D 0915 Alarm State:  0
Wed Jul 17 00:12:43 PDT 2024 ON: 20.00 +20.0 19.91 -13.0 30.8 07 09 002E 090A Alarm State:  0
Wed Jul 17 00:11:42 PDT 2024 ON: 20.00 +20.0 19.90 -13.0 30.9 07 09 0020 091F Alarm State:  0
Wed Jul 17 00:10:40 PDT 2024 ON: 20.00 +20.0 19.89 -12.9 30.9 06 0A 002B 0913 Alarm State:  0
Wed Jul 17 00:09:39 PDT 2024 ON: 20.00 +20.0 19.90 -12.9 30.9 06 09 0002 0928 Alarm State:  0
Wed Jul 17 00:08:37 PDT 2024 ON: 20.00 +20.0 19.89 -12.9 30.9 06 0A 000D 092A Alarm State:  0
Wed Jul 17 00:07:36 PDT 2024 ON: 20.00 +20.0 19.89 -12.9 30.9 06 0A 0017 0912 Alarm State:  0
Wed Jul 17 00:06:34 PDT 2024 ON: 20.00 +20.0 19.89 -13.0 30.9 07 0A 0008 090F Alarm State:  0
Wed Jul 17 00:05:33 PDT 2024 ON: 20.00 +20.0 19.88 -13.0 30.9 07 0A 0012 090D Alarm State:  0
Wed Jul 17 00:04:31 PDT 2024 ON: 19.99 +20.0 19.89 -12.9 30.9 06 0A 001D 090F Alarm State:  0
Wed Jul 17 00:03:30 PDT 2024 ON: 20.00 +20.0 19.90 -12.9 30.9 06 09 0027 091E Alarm State:  0
Wed Jul 17 00:02:28 PDT 2024 ON: 20.00 +20.0 19.90 -12.9 30.9 06 09 0032 0919 Alarm State:  0
Wed Jul 17 00:01:27 PDT 2024 ON: 20.00 +20.0 19.89 -12.9 30.9 06 0A 0009 0905 Alarm State:  0
Wed Jul 17 00:00:25 PDT 2024 ON: 20.00 +20.0 19.89 -12.9 30.9 06 0A 0012 091F Alarm State:  0
Tue Jul 16 23:59:24 PDT 2024 ON: 20.00 +20.0 19.90 -12.9 30.9 06 09 001C 0919 Alarm State:  0
Tue Jul 16 23:58:22 PDT 2024 ON: 20.01 +20.0 19.90 -12.9 30.9 07 09 0013 0912 Alarm State:  0
Tue Jul 16 23:57:21 PDT 2024 ON: 20.00 +20.0 19.90 -12.9 30.9 06 09 000B 0905 Alarm State:  0
Tue Jul 16 23:56:19 PDT 2024 ON: 20.00 +20.0 19.88 -12.9 30.9 06 0A 0012 091F Alarm State:  0
Tue Jul 16 23:55:18 PDT 2024 ON: 19.99 +20.0 19.89 -12.9 30.9 06 0A 0012 0911 Alarm State:  0
Tue Jul 16 23:54:16 PDT 2024 ON: 20.01 +20.0 19.91 -12.9 30.9 06 09 002C 091E Alarm State:  0
Tue Jul 16 23:53:15 PDT 2024 ON: 20.00 +20.0 19.89 -12.9 30.9 06 0A 0026 091B Alarm State:  0
Tue Jul 16 23:52:13 PDT 2024 ON: 20.00 +20.0 19.89 -12.9 30.9 06 0A 0013 0926 Alarm State:  0
Tue Jul 16 23:51:12 PDT 2024 ON: 20.00 +20.0 19.90 -12.9 30.8 06 09 0017 0905 Alarm State:  0
Tue Jul 16 23:50:10 PDT 2024 ON: 20.00 +20.0 19.89 -12.9 30.9 06 0A 000C 0902 Alarm State:  0
Tue Jul 16 23:49:09 PDT 2024 ON: 20.00 +20.0 19.88 -12.9 30.9 06 0A 000C 0908 Alarm State:  0
Tue Jul 16 23:48:07 PDT 2024 ON: 19.98 +20.0 19.89 -12.9 30.9 06 0A 0032 091C Alarm State:  0
Tue Jul 16 23:47:06 PDT 2024 ON: 19.99 +20.0 19.90 -12.9 30.9 06 09 0009 090A Alarm State:  0
Tue Jul 16 23:46:04 PDT 2024 ON: 19.99 +20.0 19.89 -12.9 30.8 06 0A 000A 0914 Alarm State:  0
Tue Jul 16 23:45:03 PDT 2024 ON: 19.99 +20.0 19.90 -12.9 30.9 06 09 0014 092C Alarm State:  0
Tue Jul 16 23:44:01 PDT 2024 ON: 20.00 +20.0 19.90 -12.9 30.9 06 09 001F 0926 Alarm State:  0
Tue Jul 16 23:43:00 PDT 2024 ON: 20.00 +20.0 19.91 -13.0 30.8 07 09 0027 0901 Alarm State:  0
Tue Jul 16 23:41:58 PDT 2024 ON: 20.00 +20.0 19.90 -13.0 30.9 07 09 0032 0908 Alarm State:  0
Tue Jul 16 23:40:57 PDT 2024 ON: 20.00 +20.0 19.89 -12.9 30.9 06 0A 0009 0914 Alarm State:  0
Tue Jul 16 23:39:55 PDT 2024 ON: 20.00 +20.0 19.89 -12.9 30.8 06 0A 0012 0925 Alarm State:  0
Tue Jul 16 23:38:54 PDT 2024 ON: 20.00 +20.0 19.88 -12.9 30.9 06 0A 001C 0903 Alarm State:  0
Tue Jul 16 23:37:52 PDT 2024 ON: 20.00 +20.0 19.90 -12.9 30.9 06 09 001B 0912 Alarm State:  0
Tue Jul 16 23:36:51 PDT 2024 ON: 20.00 +20.0 19.88 -12.9 30.9 06 0A 001C 0909 Alarm State:  0
Tue Jul 16 23:35:49 PDT 2024 ON: 19.99 +20.0 19.87 -12.9 30.9 06 0B 001E 0919 Alarm State:  0
Tue Jul 16 23:34:48 PDT 2024 ON: 20.00 +20.0 19.89 -12.9 30.9 06 0A 0029 091E Alarm State:  0
Tue Jul 16 23:33:46 PDT 2024 ON: 20.00 +20.0 19.89 -12.9 30.9 06 0A 0027 0914 Alarm State:  0
Tue Jul 16 23:32:45 PDT 2024 ON: 20.00 +20.0 19.89 -12.9 30.9 06 0A 0032 0900 Alarm State:  0
Tue Jul 16 23:31:43 PDT 2024 ON: 20.00 +20.0 19.89 -12.9 30.9 06 0A 0026 0914 Alarm State:  0
Tue Jul 16 23:30:42 PDT 2024 ON: 20.00 +20.0 19.89 -12.9 30.9 06 0A 0025 090F Alarm State:  0
Tue Jul 16 23:29:40 PDT 2024 ON: 20.00 +20.0 19.90 -12.9 30.9 07 09 0019 091B Alarm State:  0
Tue Jul 16 23:28:39 PDT 2024 ON: 20.01 +20.0 19.89 -13.0 30.9 07 0A 0018 0925 Alarm State:  0
Tue Jul 16 23:27:37 PDT 2024 ON: 20.00 +20.0 19.89 -12.9 30.8 06 0A 0104 0927 Alarm State:  0
Tue Jul 16 23:26:36 PDT 2024 ON: 20.01 +20.0 19.90 -12.9 30.9 06 09 002A 091A Alarm State:  0
Tue Jul 16 23:25:34 PDT 2024 ON: 20.00 +20.0 19.91 -12.9 30.8 06 09 0022 0920 Alarm State:  0
Tue Jul 16 23:24:33 PDT 2024 ON: 19.99 +20.0 19.89 -13.0 30.8 07 0A 0017 0925 Alarm State:  0
Tue Jul 16 23:23:31 PDT 2024 ON: 20.00 +20.0 19.91 -13.0 30.9 07 09 0009 091B Alarm State:  0
Tue Jul 16 23:22:29 PDT 2024 ON: 20.00 +20.0 19.90 -13.0 30.9 07 09 000A 0905 Alarm State:  0
Tue Jul 16 23:21:28 PDT 2024 ON: 20.00 +20.0 19.90 -12.9 30.9 06 09 002F 0919 Alarm State:  0
Tue Jul 16 23:20:26 PDT 2024 ON: 20.00 +20.0 19.90 -12.9 30.9 06 09 0007 0928 Alarm State:  0
Tue Jul 16 23:19:25 PDT 2024 ON: 20.01 +20.0 19.89 -12.9 30.9 06 0A 0011 0909 Alarm State:  0
Tue Jul 16 23:18:23 PDT 2024 ON: 20.00 +20.0 19.89 -12.9 30.9 06 0A 001A 0915 Alarm State:  0
Tue Jul 16 23:17:22 PDT 2024 ON: 19.99 +20.0 19.88 -12.9 30.9 06 0A 0024 0926 Alarm State:  0
Tue Jul 16 23:16:20 PDT 2024 ON: 20.00 +20.0 19.89 -12.9 30.9 06 0A 002F 090F Alarm State:  0
Tue Jul 16 23:15:19 PDT 2024 ON: 20.00 +20.0 19.89 -12.9 30.8 06 0A 0006 0921 Alarm State:  0
Tue Jul 16 23:14:17 PDT 2024 ON: 19.99 +20.0 19.88 -12.9 30.9 06 0A 0011 0925 Alarm State:  0
Tue Jul 16 23:13:16 PDT 2024 ON: 20.00 +20.0 19.89 -12.9 30.8 06 0A 0019 091D Alarm State:  0
Tue Jul 16 23:12:14 PDT 2024 ON: 20.00 +20.0 19.90 -12.9 30.8 06 09 0024 091E Alarm State:  0
Tue Jul 16 23:11:13 PDT 2024 ON: 20.00 +20.0 19.90 -12.9 31.0 06 09 0027 0909 Alarm State:  0
Tue Jul 16 23:10:11 PDT 2024 ON: 20.00 +20.0 19.89 -12.9 30.9 06 0A 0032 0927 Alarm State:  0
Tue Jul 16 23:09:10 PDT 2024 ON: 19.99 +20.0 19.90 -12.9 30.9 06 09 0009 090D Alarm State:  0
Tue Jul 16 23:08:08 PDT 2024 ON: 20.00 +20.0 19.90 -12.9 30.9 06 09 0014 0909 Alarm State:  0
Tue Jul 16 23:07:07 PDT 2024 ON: 19.99 +20.0 19.88 -12.9 30.9 06 0A 001E 091B Alarm State:  0
Tue Jul 16 23:06:05 PDT 2024 ON: 20.00 +20.0 19.88 -12.9 30.9 06 0A 0025 0919 Alarm State:  0
Tue Jul 16 23:05:04 PDT 2024 ON: 20.00 +20.0 19.91 -12.9 30.9 06 09 002D 0918 Alarm State:  0
Tue Jul 16 23:04:02 PDT 2024 ON: 19.99 +20.0 19.89 -12.9 30.9 06 0A 0005 090C Alarm State:  0
Tue Jul 16 23:03:01 PDT 2024 ON: 20.01 +20.0 19.89 -12.9 30.9 06 0A 0003 0916 Alarm State:  0
Tue Jul 16 23:01:59 PDT 2024 ON: 20.00 +20.0 19.89 -12.9 30.9 06 0A 0027 0923 Alarm State:  0
Tue Jul 16 23:00:58 PDT 2024 ON: 19.99 +20.0 19.87 -12.9 30.9 00 0B 000F 0901 Alarm State:  0
Tue Jul 16 22:59:56 PDT 2024 ON: 19.99 +20.0 19.90 -12.9 30.9 06 09 0031 0929 Alarm State:  0
Tue Jul 16 22:58:55 PDT 2024 ON: 20.00 +20.0 19.89 -12.9 30.9 06 0A 0004 0914 Alarm State:  0
Tue Jul 16 22:57:53 PDT 2024 ON: 20.00 +20.0 19.88 -12.9 30.8 06 0A 000F 091C Alarm State:  0
Tue Jul 16 22:56:52 PDT 2024 ON: 19.99 +20.0 19.88 -12.9 30.9 06 0A 0009 091E Alarm State:  0
Tue Jul 16 22:55:50 PDT 2024 ON: 20.00 +20.0 19.88 -12.9 30.9 06 0A 000E 0913 Alarm State:  0
Tue Jul 16 22:54:49 PDT 2024 ON: 20.01 +20.0 19.92 -12.9 30.9 06 08 000A 090D Alarm State:  0
Tue Jul 16 22:53:47 PDT 2024 ON: 20.01 +20.0 19.91 -12.9 31.0 06 09 0013 091B Alarm State:  0
Tue Jul 16 22:52:46 PDT 2024 ON: 20.00 +20.0 19.90 -12.9 31.0 06 09 0015 0913 Alarm State:  0
Tue Jul 16 22:51:44 PDT 2024 ON: 19.98 +20.0 19.88 -12.9 30.9 06 0A 0020 0927 Alarm State:  0
Tue Jul 16 22:50:43 PDT 2024 ON: 20.00 +20.0 19.90 -12.9 30.9 06 09 002A 0918 Alarm State:  0
Tue Jul 16 22:49:41 PDT 2024 ON: 20.00 +20.0 19.90 -12.9 30.9 01 09 0002 0903 Alarm State:  0
Tue Jul 16 22:48:40 PDT 2024 ON: 19.99 +20.0 19.90 -12.9 30.9 06 09 000C 0916 Alarm State:  0
Tue Jul 16 22:47:38 PDT 2024 ON: 20.00 +20.0 19.90 -12.9 30.9 06 09 0011 090F Alarm State:  0
Tue Jul 16 22:46:37 PDT 2024 ON: 20.00 +20.0 19.89 -12.9 30.9 06 0A 0013 0914 Alarm State:  0
Tue Jul 16 22:45:35 PDT 2024 ON: 20.01 +20.0 19.89 -12.9 30.9 06 0A 0010 0915 Alarm State:  0
Tue Jul 16 22:44:34 PDT 2024 ON: 20.00 +20.0 19.89 -12.9 30.9 06 0A 0008 0917 Alarm State:  0
Tue Jul 16 22:43:32 PDT 2024 ON: 19.99 +20.0 19.88 -12.9 30.9 06 0A 0013 090E Alarm State:  0
Tue Jul 16 22:42:31 PDT 2024 ON: 19.99 +20.0 19.89 -12.9 30.9 06 0A 000F 0930 Alarm State:  0
Tue Jul 16 22:41:29 PDT 2024 ON: 20.00 +20.0 19.90 -12.9 30.9 06 09 0016 090B Alarm State:  0
Tue Jul 16 22:40:28 PDT 2024 ON: 20.00 +20.0 19.91 -12.9 30.9 06 09 0020 0916 Alarm State:  0
Tue Jul 16 22:39:26 PDT 2024 ON: 20.00 +20.0 19.89 -12.9 30.8 06 0A 0029 0922 Alarm State:  0
Tue Jul 16 22:38:25 PDT 2024 ON: 20.00 +20.0 19.89 -12.9 30.9 06 0A 0011 0A0D Alarm State:  0
Tue Jul 16 22:37:23 PDT 2024 ON: 20.00 +20.0 19.90 -12.9 30.8 06 09 0016 0900 Alarm State:  0
Tue Jul 16 22:36:22 PDT 2024 ON: 19.99 +20.0 19.89 -12.9 30.9 06 0A 0020 092E Alarm State:  0
Tue Jul 16 22:35:20 PDT 2024 ON: 20.00 +20.0 19.91 -12.9 30.9 06 09 002B 0922 Alarm State:  0
Tue Jul 16 22:34:19 PDT 2024 ON: 20.00 +20.0 19.90 -12.9 30.8 06 09 0002 091C Alarm State:  0
Tue Jul 16 22:33:17 PDT 2024 ON: 20.00 +20.0 19.89 -12.9 30.8 06 0A 000B 091B Alarm State:  0
Tue Jul 16 22:32:16 PDT 2024 ON: 20.00 +20.0 19.90 -12.9 30.9 06 09 0015 091C Alarm State:  0
Tue Jul 16 22:31:14 PDT 2024 ON: 19.99 +20.0 19.90 -12.9 30.9 06 09 000E 090D Alarm State:  0
Tue Jul 16 22:30:13 PDT 2024 ON: 19.99 +20.0 19.89 -12.9 30.9 06 0A 0018 0923 Alarm State:  0
Tue Jul 16 22:29:11 PDT 2024 ON: 20.00 +20.0 19.90 -12.9 30.8 06 09 0023 091E Alarm State:  0
Tue Jul 16 22:28:10 PDT 2024 ON: 20.00 +20.0 19.89 -12.9 30.8 06 0A 002D 0906 Alarm State:  0
Tue Jul 16 22:27:08 PDT 2024 ON: 20.00 +20.0 19.90 -12.9 30.9 06 09 0003 0913 Alarm State:  0
Tue Jul 16 22:26:07 PDT 2024 ON: 19.99 +20.0 19.89 -12.9 30.9 06 0A 000D 091F Alarm State:  0
Tue Jul 16 22:25:05 PDT 2024 ON: 20.00 +20.0 19.89 -12.9 30.8 06 0A 0016 0925 Alarm State:  0
Tue Jul 16 22:24:04 PDT 2024 ON: 20.01 +20.0 19.89 -12.9 30.9 06 0A 0014 0910 Alarm State:  0
Tue Jul 16 22:23:02 PDT 2024 ON: 20.00 +20.0 19.91 -12.9 30.9 06 09 002C 0A0B Alarm State:  0
Tue Jul 16 22:22:01 PDT 2024 ON: 20.00 +20.0 19.89 -12.9 30.9 06 0A 0030 0907 Alarm State:  0
Tue Jul 16 22:20:59 PDT 2024 ON: 19.99 +20.0 19.88 -12.9 30.9 06 0A 001D 092C Alarm State:  0
Tue Jul 16 22:19:58 PDT 2024 ON: 19.99 +20.0 19.87 -12.9 30.8 06 0B 0012 0913 Alarm State:  0
Tue Jul 16 22:18:56 PDT 2024 ON: 20.00 +20.0 19.89 -12.9 30.8 06 0A 0008 0913 Alarm State:  0
Tue Jul 16 22:17:54 PDT 2024 ON: 20.00 +20.0 19.88 -12.9 30.9 06 0A 0013 090D Alarm State:  0
Tue Jul 16 22:16:53 PDT 2024 ON: 20.00 +20.0 19.90 -12.9 30.9 06 09 001B 091B Alarm State:  0
Tue Jul 16 22:15:51 PDT 2024 ON: 20.00 +20.0 19.90 -12.9 30.9 06 09 0026 090B Alarm State:  0
Tue Jul 16 22:14:50 PDT 2024 ON: 19.99 +20.0 19.88 -12.9 30.9 06 0A 0026 0920 Alarm State:  0
Tue Jul 16 22:13:48 PDT 2024 ON: 19.99 +20.0 19.89 -12.9 30.9 01 0A 0031 092A Alarm State:  0
Tue Jul 16 22:12:47 PDT 2024 ON: 20.00 +20.0 19.88 -12.9 30.9 06 0A 0008 090B Alarm State:  0
Tue Jul 16 22:11:45 PDT 2024 ON: 20.00 +20.0 19.88 -12.9 30.9 06 0A 0013 0905 Alarm State:  0
Tue Jul 16 22:10:44 PDT 2024 ON: 20.00 +20.0 19.89 -12.9 30.9 06 0A 0005 090F Alarm State:  0
Tue Jul 16 22:09:42 PDT 2024 ON: 19.99 +20.0 19.89 -12.9 30.8 06 0A 0010 0925 Alarm State:  0
Tue Jul 16 22:08:41 PDT 2024 ON: 20.00 +20.0 19.89 -12.9 30.9 06 0A 000E 0927 Alarm State:  0
Tue Jul 16 22:07:39 PDT 2024 ON: 19.99 +20.0 19.90 -12.9 30.9 06 09 0019 0914 Alarm State:  0
Tue Jul 16 22:06:38 PDT 2024 ON: 19.99 +20.0 19.90 -12.9 30.9 06 0A 0001 0A18 Alarm State:  0
Tue Jul 16 22:05:36 PDT 2024 ON: 20.00 +20.0 19.90 -12.9 30.9 06 09 000C 091B Alarm State:  0
Tue Jul 16 22:04:35 PDT 2024 ON: 20.00 +20.0 19.89 -12.9 30.9 06 0A 0016 0928 Alarm State:  0
Tue Jul 16 22:03:33 PDT 2024 ON: 20.00 +20.0 19.91 -12.9 30.8 06 09 0013 0902 Alarm State:  0
Tue Jul 16 22:02:32 PDT 2024 ON: 20.00 +20.0 19.89 -12.9 30.9 06 0A 001D 0916 Alarm State:  0
Tue Jul 16 22:01:30 PDT 2024 ON: 20.00 +20.0 19.88 -12.9 30.8 06 0A 0028 0914 Alarm State:  0
Tue Jul 16 22:00:29 PDT 2024 ON: 20.00 +20.0 19.91 -12.9 30.9 06 09 002C 0902 Alarm State:  0
Tue Jul 16 21:59:27 PDT 2024 ON: 20.00 +20.0 19.92 -12.9 30.9 06 08 0029 0924 Alarm State:  0
Tue Jul 16 21:58:26 PDT 2024 ON: 20.01 +20.0 19.91 -12.9 30.9 06 09 0100 091C Alarm State:  0
Tue Jul 16 21:57:24 PDT 2024 ON: 19.99 +20.0 19.88 -12.9 30.9 06 0A 002E 0927 Alarm State:  0
Tue Jul 16 21:56:23 PDT 2024 ON: 20.00 +20.0 19.91 -12.9 30.8 06 09 0005 0902 Alarm State:  0
Tue Jul 16 21:55:21 PDT 2024 ON: 20.00 +20.0 19.90 -12.9 30.9 06 09 0010 0905 Alarm State:  0
Tue Jul 16 21:54:20 PDT 2024 ON: 19.99 +20.0 19.87 -12.9 30.8 06 0B 001A 0909 Alarm State:  0
Tue Jul 16 21:53:18 PDT 2024 ON: 19.99 +20.0 19.89 -12.9 30.8 06 0A 0017 0A08 Alarm State:  0
Tue Jul 16 21:52:17 PDT 2024 ON: 20.00 +20.0 19.88 -12.9 30.9 06 0A 0005 0924 Alarm State:  0
Tue Jul 16 21:51:15 PDT 2024 ON: 20.00 +20.0 19.90 -12.9 30.8 01 0A 000E 0A00 Alarm State:  0
Tue Jul 16 21:50:14 PDT 2024 ON: 20.00 +20.0 19.90 -12.9 30.8 06 09 0018 0921 Alarm State:  0
Tue Jul 16 21:49:12 PDT 2024 ON: 19.99 +20.0 19.89 -12.9 30.8 06 0A 0003 092A Alarm State:  0
Tue Jul 16 21:48:11 PDT 2024 ON: 19.99 +20.0 19.88 -12.9 30.9 06 0A 000D 090E Alarm State:  0
Tue Jul 16 21:47:09 PDT 2024 ON: 19.99 +20.0 19.89 -12.9 30.9 06 0A 0025 0A11 Alarm State:  0
Tue Jul 16 21:46:08 PDT 2024 ON: 20.00 +20.0 19.91 -12.9 30.8 06 09 002F 0920 Alarm State:  0
Tue Jul 16 21:45:06 PDT 2024 ON: 19.99 +20.0 19.88 -12.9 30.8 06 0A 0005 0919 Alarm State:  0
Tue Jul 16 21:44:05 PDT 2024 ON: 19.99 +20.0 19.89 -12.9 30.9 06 0A 000F 0918 Alarm State:  0
Tue Jul 16 21:43:03 PDT 2024 ON: 20.00 +20.0 19.91 -12.9 30.9 06 09 001A 0907 Alarm State:  0
Tue Jul 16 21:42:02 PDT 2024 ON: 20.01 +20.0 19.90 -12.9 30.8 06 09 001E 0919 Alarm State:  0
Tue Jul 16 21:41:00 PDT 2024 ON: 20.00 +20.0 19.90 -12.9 30.8 06 09 0025 0924 Alarm State:  0
Tue Jul 16 21:39:59 PDT 2024 ON: 20.00 +20.0 19.90 -12.9 30.9 06 09 0029 0909 Alarm State:  0
Tue Jul 16 21:38:57 PDT 2024 ON: 19.99 +20.0 19.88 -12.9 30.9 06 0A 0026 091B Alarm State:  0
Tue Jul 16 21:37:56 PDT 2024 ON: 20.01 +20.0 19.90 -12.9 30.8 06 09 0024 091B Alarm State:  0
Tue Jul 16 21:36:54 PDT 2024 ON: 19.99 +20.0 19.88 -12.9 30.9 06 0A 0025 092B Alarm State:  0
Tue Jul 16 21:35:53 PDT 2024 ON: 19.99 +20.0 19.89 -12.9 30.8 06 0A 0027 092F Alarm State:  0
Tue Jul 16 21:34:51 PDT 2024 ON: 19.99 +20.0 19.90 -12.9 30.8 06 09 001C 0928 Alarm State:  0
Tue Jul 16 21:33:50 PDT 2024 ON: 20.00 +20.0 19.90 -12.9 30.9 06 09 0020 090F Alarm State:  0
Tue Jul 16 21:32:48 PDT 2024 ON: 19.99 +20.0 19.90 -12.9 30.8 06 09 002B 0913 Alarm State:  0
Tue Jul 16 21:31:47 PDT 2024 ON: 20.00 +20.0 19.88 -12.9 30.9 06 0A 0002 090F Alarm State:  0
Tue Jul 16 21:30:45 PDT 2024 ON: 19.99 +20.0 19.89 -12.9 30.9 06 0A 0003 090E Alarm State:  0
Tue Jul 16 21:29:44 PDT 2024 ON: 20.00 +20.0 19.88 -12.9 30.9 06 0A 000B 0908 Alarm State:  0
Tue Jul 16 21:28:42 PDT 2024 ON: 19.99 +20.0 19.89 -12.9 30.9 06 0A 000A 0907 Alarm State:  0
Tue Jul 16 21:27:41 PDT 2024 ON: 19.99 +20.0 19.89 -12.9 30.9 06 0A 0014 0920 Alarm State:  0
Tue Jul 16 21:26:39 PDT 2024 ON: 19.99 +20.0 19.91 -12.9 30.9 06 09 0019 092D Alarm State:  0
Tue Jul 16 21:25:38 PDT 2024 ON: 19.99 +20.0 19.89 -12.9 30.9 06 0A 0023 091D Alarm State:  0
Tue Jul 16 21:24:36 PDT 2024 ON: 19.99 +20.0 19.88 -12.9 30.9 06 0A 002E 092E Alarm State:  0
Tue Jul 16 21:23:35 PDT 2024 ON: 20.00 +20.0 19.89 -12.9 30.9 06 0A 0005 0925 Alarm State:  0
Tue Jul 16 21:22:33 PDT 2024 ON: 19.99 +20.0 19.90 -12.9 30.8 06 09 0010 0920 Alarm State:  0
Tue Jul 16 21:21:32 PDT 2024 ON: 20.00 +20.0 19.91 -12.9 30.9 06 09 0002 0A0E Alarm State:  0
Tue Jul 16 21:20:30 PDT 2024 ON: 20.01 +20.0 19.88 -12.9 30.8 00 0A 0009 0919 Alarm State:  0
Tue Jul 16 21:19:29 PDT 2024 ON: 20.00 +20.0 19.90 -12.9 30.8 06 09 0009 0913 Alarm State:  0
Tue Jul 16 21:18:27 PDT 2024 ON: 19.99 +20.0 19.87 -12.9 30.8 06 0B 0014 0921 Alarm State:  0
Tue Jul 16 21:17:26 PDT 2024 ON: 20.00 +20.0 19.87 -12.9 30.8 06 0B 001E 0909 Alarm State:  0
Tue Jul 16 21:16:24 PDT 2024 ON: 20.00 +20.0 19.89 -12.9 30.9 06 0A 001F 0912 Alarm State:  0
Tue Jul 16 21:15:23 PDT 2024 ON: 20.00 +20.0 19.89 -12.9 30.8 06 0A 0029 090E Alarm State:  0
Tue Jul 16 21:14:21 PDT 2024 ON: 19.99 +20.0 19.87 -12.9 30.9 06 0B 0026 0905 Alarm State:  0
Tue Jul 16 21:13:19 PDT 2024 ON: 19.99 +20.0 19.88 -12.9 30.9 06 0B 000C 0A09 Alarm State:  0
Tue Jul 16 21:12:18 PDT 2024 ON: 19.99 +20.0 19.89 -12.9 30.9 06 0A 0030 0916 Alarm State:  0
Tue Jul 16 21:11:16 PDT 2024 ON: 19.99 +20.0 19.89 -12.9 30.9 01 0A 0007 0A00 Alarm State:  0
Tue Jul 16 21:10:15 PDT 2024 ON: 20.00 +20.0 19.88 -12.9 30.9 06 0A 0012 0915 Alarm State:  0
Tue Jul 16 21:09:13 PDT 2024 ON: 20.00 +20.0 19.87 -12.9 30.9 06 0B 0004 0913 Alarm State:  0
Tue Jul 16 21:08:12 PDT 2024 ON: 19.99 +20.0 19.87 -12.9 30.9 06 0B 0009 0919 Alarm State:  0
Tue Jul 16 21:07:10 PDT 2024 ON: 20.00 +20.0 19.90 -12.9 30.9 06 09 0009 091B Alarm State:  0
Tue Jul 16 21:06:09 PDT 2024 ON: 19.99 +20.0 19.91 -12.9 31.0 06 09 0014 0928 Alarm State:  0
Tue Jul 16 21:05:07 PDT 2024 ON: 20.00 +20.0 19.91 -12.9 30.9 01 09 001D 0904 Alarm State:  0
Tue Jul 16 21:04:06 PDT 2024 ON: 20.00 +20.0 19.89 -12.9 31.0 06 0A 0027 0925 Alarm State:  0
Tue Jul 16 21:03:04 PDT 2024 ON: 20.00 +20.0 19.89 -12.9 30.9 06 0A 001E 0907 Alarm State:  0
Tue Jul 16 21:02:03 PDT 2024 ON: 20.00 +20.0 19.90 -12.9 31.0 06 09 0028 090F Alarm State:  0
Tue Jul 16 21:01:01 PDT 2024 ON: 19.99 +20.0 19.88 -12.9 30.9 06 0A 0021 0910 Alarm State:  0
Tue Jul 16 21:00:00 PDT 2024 ON: 20.01 +20.0 19.91 -12.9 30.9 06 09 0017 0910 Alarm State:  0
Tue Jul 16 20:58:58 PDT 2024 ON: 20.00 +20.0 19.90 -12.9 31.0 06 09 0010 0903 Alarm State:  0
Tue Jul 16 20:57:57 PDT 2024 ON: 20.00 +20.0 19.90 -12.9 30.9 06 09 0018 090D Alarm State:  0
Tue Jul 16 20:56:55 PDT 2024 ON: 20.00 +20.0 19.89 -12.9 30.9 03 0A 0021 0921 Alarm State:  0
Tue Jul 16 20:55:54 PDT 2024 ON: 19.99 +20.0 19.90 -12.9 31.0 06 09 0017 0927 Alarm State:  0
Tue Jul 16 20:54:52 PDT 2024 ON: 20.00 +20.0 19.88 -12.9 31.0 06 0A 0016 090C Alarm State:  0
Tue Jul 16 20:53:51 PDT 2024 ON: 20.00 +20.0 19.89 -12.9 30.9 06 0A 0012 0904 Alarm State:  0
Tue Jul 16 20:52:49 PDT 2024 ON: 20.00 +20.0 19.88 -12.9 30.9 03 0A 0011 091C Alarm State:  0
Tue Jul 16 20:51:48 PDT 2024 ON: 20.00 +20.0 19.87 -12.9 30.9 06 0B 0009 0912 Alarm State:  0
Tue Jul 16 20:50:46 PDT 2024 ON: 20.00 +20.0 19.90 -12.9 31.0 03 09 000A 091F Alarm State:  0
Tue Jul 16 20:49:45 PDT 2024 ON: 19.99 +20.0 19.89 -12.9 31.0 06 0A 0014 091B Alarm State:  0
Tue Jul 16 20:48:43 PDT 2024 ON: 20.00 +20.0 19.89 -12.9 30.9 06 0A 0019 0916 Alarm State:  0
Tue Jul 16 20:47:42 PDT 2024 ON: 19.99 +20.0 19.89 -12.9 30.9 06 0A 0026 0926 Alarm State:  0
Tue Jul 16 20:46:40 PDT 2024 ON: 20.00 +20.0 19.89 -12.9 31.0 06 0A 0029 0918 Alarm State:  0
Tue Jul 16 20:45:39 PDT 2024 ON: 20.00 +20.0 19.89 -12.9 30.9 06 0A 0000 0910 Alarm State:  0
Tue Jul 16 20:44:37 PDT 2024 ON: 20.00 +20.0 19.90 -12.9 30.9 06 09 000B 0903 Alarm State:  0
Tue Jul 16 20:43:36 PDT 2024 ON: 19.99 +20.0 19.90 -12.9 30.9 06 09 0015 0908 Alarm State:  0
Tue Jul 16 20:42:34 PDT 2024 ON: 20.00 +20.0 19.89 -12.9 30.9 06 0A 0020 0924 Alarm State:  0
Tue Jul 16 20:41:33 PDT 2024 ON: 20.00 +20.0 19.89 -12.9 30.9 06 0A 0020 090B Alarm State:  0
Tue Jul 16 20:40:31 PDT 2024 ON: 20.00 +20.0 19.91 -12.9 30.9 06 09 002C 091E Alarm State:  0
Tue Jul 16 20:39:30 PDT 2024 ON: 19.99 +20.0 19.88 -12.9 30.9 06 0A 0022 092C Alarm State:  0
Tue Jul 16 20:38:28 PDT 2024 ON: 20.00 +20.0 19.90 -12.9 31.0 01 09 002D 0913 Alarm State:  0
Tue Jul 16 20:37:27 PDT 2024 ON: 20.00 +20.0 19.91 -12.9 30.9 06 09 0004 091F Alarm State:  0
Tue Jul 16 20:36:25 PDT 2024 ON: 19.99 +20.0 19.88 -12.9 31.0 06 0A 0026 0905 Alarm State:  0
Tue Jul 16 20:35:24 PDT 2024 ON: 20.00 +20.0 19.89 -12.9 30.9 06 0A 001A 0911 Alarm State:  0
Tue Jul 16 20:34:22 PDT 2024 ON: 20.01 +20.0 19.90 -12.9 30.9 06 09 0011 0914 Alarm State:  0
Tue Jul 16 20:33:21 PDT 2024 ON: 20.00 +20.0 19.89 -12.9 31.0 06 0A 0009 090E Alarm State:  0
Tue Jul 16 20:32:19 PDT 2024 ON: 20.00 +20.0 19.90 -12.9 30.9 06 09 0012 091B Alarm State:  0
Tue Jul 16 20:31:18 PDT 2024 ON: 20.01 +20.0 19.89 -12.9 30.9 06 0A 0012 0913 Alarm State:  0
Tue Jul 16 20:30:16 PDT 2024 ON: 20.00 +20.0 19.91 -12.9 30.9 06 09 0005 090C Alarm State:  0
Tue Jul 16 20:29:15 PDT 2024 ON: 20.00 +20.0 19.89 -12.9 31.0 06 0A 000D 090A Alarm State:  0
Tue Jul 16 20:28:13 PDT 2024 ON: 20.00 +20.0 19.90 -12.9 31.0 06 09 000E 090D Alarm State:  0
Tue Jul 16 20:27:12 PDT 2024 ON: 20.01 +20.0 19.88 -12.9 30.9 06 0A 0100 090B Alarm State:  0
Tue Jul 16 20:26:10 PDT 2024 ON: 20.01 +20.0 19.92 -12.9 30.9 06 08 002E 090C Alarm State:  0
Tue Jul 16 20:25:09 PDT 2024 ON: 20.01 +20.0 19.91 -12.9 31.0 06 09 0026 0906 Alarm State:  0
Tue Jul 16 20:24:07 PDT 2024 ON: 20.00 +20.0 19.87 -12.9 31.0 06 0B 0025 0913 Alarm State:  0
Tue Jul 16 20:23:06 PDT 2024 ON: 19.99 +20.0 19.86 -12.9 30.9 06 0B 001F 0916 Alarm State:  0
Tue Jul 16 20:22:04 PDT 2024 ON: 19.99 +20.0 19.90 -12.9 31.0 06 09 0014 0915 Alarm State:  0
Tue Jul 16 20:21:03 PDT 2024 ON: 20.00 +20.0 19.88 -12.9 30.9 06 0A 000E 0911 Alarm State:  0
Tue Jul 16 20:20:01 PDT 2024 ON: 19.99 +20.0 19.89 -12.9 30.9 06 0A 0019 0912 Alarm State:  0
Tue Jul 16 20:19:00 PDT 2024 ON: 20.00 +20.0 19.88 -12.9 30.9 06 0A 0023 0908 Alarm State:  0
Tue Jul 16 20:17:58 PDT 2024 ON: 20.00 +20.0 19.90 -12.9 30.9 06 09 0028 091B Alarm State:  0
Tue Jul 16 20:16:56 PDT 2024 ON: 20.00 +20.0 19.89 -12.9 31.0 06 0A 0030 0905 Alarm State:  0
Tue Jul 16 20:15:55 PDT 2024 ON: 20.00 +20.0 19.88 -12.9 31.0 06 0A 0021 090E Alarm State:  0
Tue Jul 16 20:14:44 PDT 2024  Alarm State: 0
Tue Jul 16 20:14:44 PDT 2024 Chiller did not report ON, got this reading: 
Tue Jul 16 20:13:42 PDT 2024 ON: 20.00 +20.0 19.89 -12.9 30.9 06 0A 0030 0925 Alarm State:  0
Tue Jul 16 20:12:41 PDT 2024 ON: 20.01 +20.0 19.89 -12.9 30.9 03 0A 0030 0925 Alarm State:  0
Tue Jul 16 20:11:39 PDT 2024 ON: 20.00 +20.0 19.90 -12.9 31.0 06 09 001D 0928 Alarm State:  0
Tue Jul 16 20:10:38 PDT 2024 ON: 20.01 +20.0 19.90 -12.9 31.0 06 09 0017 0928 Alarm State:  0
Tue Jul 16 20:09:36 PDT 2024 ON: 20.00 +20.0 19.90 -12.9 31.0 06 09 0016 0908 Alarm State:  0
Tue Jul 16 20:08:35 PDT 2024 ON: 20.00 +20.0 19.91 -12.9 30.9 06 09 0031 091D Alarm State:  0
Tue Jul 16 20:07:33 PDT 2024 ON: 20.00 +20.0 19.90 -12.9 31.0 06 09 002E 0926 Alarm State:  0
Tue Jul 16 20:06:32 PDT 2024 ON: 20.00 +20.0 19.90 -12.9 30.9 01 09 0026 090E Alarm State:  0
Tue Jul 16 20:05:30 PDT 2024 ON: 19.99 +20.0 19.88 -12.9 30.9 06 0A 002D 0911 Alarm State:  0
Tue Jul 16 20:04:29 PDT 2024 ON: 20.01 +20.0 19.88 -12.9 31.0 06 0A 001B 091D Alarm State:  0
Tue Jul 16 20:03:27 PDT 2024 ON: 20.00 +20.0 19.89 -12.9 31.0 06 0A 0010 0926 Alarm State:  0
Tue Jul 16 20:02:26 PDT 2024 ON: 19.99 +20.0 19.90 -12.9 31.0 06 09 001A 0924 Alarm State:  0
Tue Jul 16 20:01:24 PDT 2024 ON: 20.00 +20.0 19.91 -12.9 30.9 06 09 0013 0919 Alarm State:  0
Tue Jul 16 20:00:22 PDT 2024 ON: 20.00 +20.0 19.90 -12.9 31.0 06 09 0019 0905 Alarm State:  0
Tue Jul 16 19:59:21 PDT 2024 ON: 20.01 +20.0 19.90 -12.9 30.9 06 09 0018 0906 Alarm State:  0
Tue Jul 16 19:58:19 PDT 2024 ON: 20.00 +20.0 19.88 -12.9 30.9 06 0A 0018 0925 Alarm State:  0
Tue Jul 16 19:57:18 PDT 2024 ON: 20.00 +20.0 19.89 -12.9 31.0 06 0A 0013 0924 Alarm State:  0
Tue Jul 16 19:56:16 PDT 2024 ON: 19.99 +20.0 19.90 -12.9 30.9 06 09 001D 0901 Alarm State:  0
Tue Jul 16 19:55:15 PDT 2024 ON: 20.00 +20.0 19.89 -12.9 31.0 06 0A 0028 0902 Alarm State:  0
Tue Jul 16 19:54:13 PDT 2024 ON: 20.00 +20.0 19.89 -12.9 31.0 06 0A 0010 0910 Alarm State:  0
Tue Jul 16 19:53:12 PDT 2024 ON: 20.00 +20.0 19.89 -12.9 30.9 06 0A 0026 091F Alarm State:  0
Tue Jul 16 19:52:10 PDT 2024 ON: 20.00 +20.0 19.89 -12.9 30.9 06 0A 0012 0921 Alarm State:  0
Tue Jul 16 19:51:09 PDT 2024 ON: 19.99 +20.0 19.89 -12.9 30.8 06 0A 0032 091A Alarm State:  0
Tue Jul 16 19:50:07 PDT 2024 ON: 19.99 +20.0 19.91 -12.9 30.9 06 09 002C 091E Alarm State:  0
Tue Jul 16 19:49:06 PDT 2024 ON: 20.00 +20.0 19.90 -12.9 31.0 06 09 0013 0925 Alarm State:  0
Tue Jul 16 19:48:04 PDT 2024 ON: 20.01 +20.0 19.91 -12.9 30.9 06 09 000F 0917 Alarm State:  0
Tue Jul 16 19:47:03 PDT 2024 ON: 20.01 +20.0 19.90 -12.9 31.0 06 09 000A 090B Alarm State:  0
Tue Jul 16 19:46:01 PDT 2024 ON: 20.00 +20.0 19.89 -12.9 30.9 06 0A 001D 0909 Alarm State:  0
Tue Jul 16 19:45:00 PDT 2024 ON: 20.00 +20.0 19.89 -12.9 30.9 06 0A 0012 0908 Alarm State:  0
Tue Jul 16 19:43:58 PDT 2024 ON: 20.01 +20.0 19.91 -12.9 30.9 06 09 0012 0914 Alarm State:  0
Tue Jul 16 19:42:57 PDT 2024 ON: 20.00 +20.0 19.90 -12.9 30.9 06 09 001B 0913 Alarm State:  0
Tue Jul 16 19:41:55 PDT 2024 ON: 20.00 +20.0 19.90 -12.9 31.0 06 09 000F 0901 Alarm State:  0
Tue Jul 16 19:40:54 PDT 2024 ON: 20.00 +20.0 19.90 -12.9 31.0 06 09 0008 0900 Alarm State:  0
Tue Jul 16 19:39:52 PDT 2024 ON: 19.99 +20.0 19.89 -12.9 30.9 06 0A 000D 0920 Alarm State:  0
Tue Jul 16 19:38:51 PDT 2024 ON: 20.01 +20.0 19.90 -12.9 31.0 06 09 000F 0905 Alarm State:  0
Tue Jul 16 19:37:49 PDT 2024 ON: 20.00 +20.0 19.89 -12.9 31.0 06 0A 000E 0906 Alarm State:  0
Tue Jul 16 19:36:48 PDT 2024 ON: 20.00 +20.0 19.89 -12.9 31.0 06 0A 002D 0918 Alarm State:  0
Tue Jul 16 19:35:46 PDT 2024 ON: 20.01 +20.0 19.92 -12.9 30.9 06 08 0030 0915 Alarm State:  0
Tue Jul 16 19:34:45 PDT 2024 ON: 20.01 +20.0 19.89 -12.9 30.9 06 0A 0024 091D Alarm State:  0
Tue Jul 16 19:33:43 PDT 2024 ON: 20.00 +20.0 19.89 -12.9 30.9 06 0A 001F 0926 Alarm State:  0
Tue Jul 16 19:32:42 PDT 2024 ON: 20.01 +20.0 19.89 -12.9 30.9 06 0A 0015 0914 Alarm State:  0
Tue Jul 16 19:31:40 PDT 2024 ON: 20.00 +20.0 19.89 -12.9 30.9 06 0A 000E 0921 Alarm State:  0
Tue Jul 16 19:30:39 PDT 2024 ON: 20.00 +20.0 19.91 -12.9 30.9 06 09 0010 091F Alarm State:  0
Tue Jul 16 19:29:37 PDT 2024 ON: 20.00 +20.0 19.90 -12.9 30.9 06 09 001B 0916 Alarm State:  0
Tue Jul 16 19:28:36 PDT 2024 ON: 19.99 +20.0 19.88 -12.9 31.0 06 0A 0025 090B Alarm State:  0
Tue Jul 16 19:27:34 PDT 2024 ON: 20.00 +20.0 19.89 -12.9 31.0 06 0A 002E 0906 Alarm State:  0
Tue Jul 16 19:26:33 PDT 2024 ON: 19.99 +20.0 19.88 -12.9 31.0 06 0A 0005 0906 Alarm State:  0
Tue Jul 16 19:25:31 PDT 2024 ON: 20.00 +20.0 19.90 -12.9 30.8 06 09 0010 0913 Alarm State:  0
Tue Jul 16 19:24:30 PDT 2024 ON: 19.99 +20.0 19.89 -12.9 30.9 06 0A 001A 0919 Alarm State:  0
Tue Jul 16 19:23:28 PDT 2024 ON: 20.00 +20.0 19.88 -12.9 30.9 06 0A 0023 0914 Alarm State:  0
Tue Jul 16 19:22:27 PDT 2024 ON: 20.00 +20.0 19.89 -12.9 31.0 06 0A 002D 0924 Alarm State:  0
Tue Jul 16 19:21:25 PDT 2024 ON: 19.99 +20.0 19.90 -12.9 30.9 06 09 001A 0910 Alarm State:  0
Tue Jul 16 19:20:24 PDT 2024 ON: 20.01 +20.0 19.90 -12.9 30.9 06 09 0022 0922 Alarm State:  0
Tue Jul 16 19:19:22 PDT 2024 ON: 20.00 +20.0 19.89 -12.9 30.9 06 0A 0013 090C Alarm State:  0
Tue Jul 16 19:18:21 PDT 2024 ON: 19.99 +20.0 19.89 -12.9 31.0 06 0A 0011 0916 Alarm State:  0
Tue Jul 16 19:17:19 PDT 2024 ON: 19.99 +20.0 19.89 -12.9 31.0 06 0A 0008 090D Alarm State:  0
Tue Jul 16 19:16:18 PDT 2024 ON: 20.00 +20.0 19.90 -12.9 30.9 06 09 0025 0913 Alarm State:  0
Tue Jul 16 19:15:16 PDT 2024 ON: 19.99 +20.0 19.89 -12.9 30.9 06 0A 0010 0920 Alarm State:  0
Tue Jul 16 19:14:15 PDT 2024 ON: 20.00 +20.0 19.88 -12.9 30.9 06 0A 000C 0901 Alarm State:  0
Tue Jul 16 19:13:13 PDT 2024 ON: 20.00 +20.0 19.90 -12.9 31.0 06 09 0003 0927 Alarm State:  0
Tue Jul 16 19:12:12 PDT 2024 ON: 20.01 +20.0 19.91 -12.9 31.0 06 09 002A 0906 Alarm State:  0
Tue Jul 16 19:11:10 PDT 2024 ON: 20.01 +20.0 19.88 -12.9 30.9 06 0A 0029 0914 Alarm State:  0
Tue Jul 16 19:10:09 PDT 2024 ON: 20.00 +20.0 19.88 -12.9 30.9 06 0A 0025 0928 Alarm State:  0
Tue Jul 16 19:09:07 PDT 2024 ON: 20.01 +20.0 19.90 -12.9 31.0 06 09 0022 090A Alarm State:  0
Tue Jul 16 19:08:06 PDT 2024 ON: 19.99 +20.0 19.89 -12.9 30.9 06 0A 000C 090E Alarm State:  0
Tue Jul 16 19:07:04 PDT 2024 ON: 20.00 +20.0 19.90 -12.9 30.9 06 09 0017 0901 Alarm State:  0
Tue Jul 16 19:06:03 PDT 2024 ON: 20.00 +20.0 19.89 -12.9 30.9 06 0A 0019 0922 Alarm State:  0
Tue Jul 16 19:05:01 PDT 2024 ON: 20.01 +20.0 19.90 -12.9 30.9 06 09 001C 0927 Alarm State:  0
Tue Jul 16 19:04:00 PDT 2024 ON: 20.00 +20.0 19.92 -12.9 30.9 06 08 001E 090C Alarm State:  0
Tue Jul 16 19:02:58 PDT 2024 ON: 20.00 +20.0 19.90 -12.9 30.9 06 09 0029 090B Alarm State:  0
Tue Jul 16 19:01:56 PDT 2024 ON: 20.00 +20.0 19.90 -12.9 30.9 06 09 0021 0909 Alarm State:  0
Tue Jul 16 19:00:55 PDT 2024 ON: 20.00 +20.0 19.91 -12.9 30.9 06 09 002C 091E Alarm State:  0
Tue Jul 16 18:59:53 PDT 2024 ON: 20.00 +20.0 19.89 -12.9 30.9 06 0A 0032 0A01 Alarm State:  0
Tue Jul 16 18:58:52 PDT 2024 ON: 20.00 +20.0 19.89 -12.9 31.0 06 0A 0004 091E Alarm State:  0
Tue Jul 16 18:57:50 PDT 2024 ON: 20.00 +20.0 19.89 -12.9 31.0 06 0A 0008 0918 Alarm State:  0
Tue Jul 16 18:56:49 PDT 2024 ON: 20.01 +20.0 19.90 -12.9 30.9 06 09 0011 0917 Alarm State:  0
Tue Jul 16 18:55:47 PDT 2024 ON: 19.99 +20.0 19.90 -12.9 31.0 06 09 0015 0920 Alarm State:  0
Tue Jul 16 18:54:46 PDT 2024 ON: 20.00 +20.0 19.89 -12.8 30.9 06 0A 0020 091D Alarm State:  0
Tue Jul 16 18:53:44 PDT 2024 ON: 19.99 +20.0 19.88 -12.9 30.9 06 0A 002A 0913 Alarm State:  0
Tue Jul 16 18:52:43 PDT 2024 ON: 20.00 +20.0 19.90 -12.9 30.9 06 09 0031 0918 Alarm State:  0
Tue Jul 16 18:51:41 PDT 2024 ON: 20.00 +20.0 19.90 -12.9 30.9 06 09 0008 0916 Alarm State:  0
Tue Jul 16 18:50:40 PDT 2024 ON: 20.00 +20.0 19.89 -12.9 31.0 06 0A 0013 0917 Alarm State:  0
Tue Jul 16 18:49:38 PDT 2024 ON: 20.00 +20.0 19.91 -12.9 30.8 06 09 0019 0923 Alarm State:  0
Tue Jul 16 18:48:37 PDT 2024 ON: 20.00 +20.0 19.91 -12.9 31.0 06 09 000C 0910 Alarm State:  0
Tue Jul 16 18:47:35 PDT 2024 ON: 19.99 +20.0 19.88 -12.9 30.9 06 0A 0014 090C Alarm State:  0
Tue Jul 16 18:46:34 PDT 2024 ON: 20.00 +20.0 19.88 -12.9 30.9 06 0A 001F 0903 Alarm State:  0
Tue Jul 16 18:45:32 PDT 2024 ON: 20.00 +20.0 19.91 -12.9 31.0 06 09 0027 0926 Alarm State:  0
Tue Jul 16 18:44:31 PDT 2024 ON: 20.00 +20.0 19.88 -12.9 30.9 06 0A 0032 0921 Alarm State:  0
Tue Jul 16 18:43:29 PDT 2024 ON: 20.00 +20.0 19.88 -12.9 30.9 06 0A 0009 0917 Alarm State:  0
Tue Jul 16 18:42:28 PDT 2024 ON: 20.00 +20.0 19.90 -12.9 30.8 06 09 0014 0922 Alarm State:  0
Tue Jul 16 18:41:26 PDT 2024 ON: 20.00 +20.0 19.90 -12.9 31.0 06 09 001C 0918 Alarm State:  0
Tue Jul 16 18:40:25 PDT 2024 ON: 20.00 +20.0 19.90 -12.9 31.0 03 09 0027 0919 Alarm State:  0
Tue Jul 16 18:39:23 PDT 2024 ON: 20.00 +20.0 19.90 -12.9 31.0 06 09 0027 091F Alarm State:  0
Tue Jul 16 18:38:22 PDT 2024 ON: 20.00 +20.0 19.90 -12.9 31.0 06 09 002E 091A Alarm State:  0
Tue Jul 16 18:37:20 PDT 2024 ON: 19.99 +20.0 19.89 -12.8 31.0 06 0A 0005 092D Alarm State:  0
Tue Jul 16 18:36:19 PDT 2024 ON: 20.00 +20.0 19.90 -12.9 30.9 06 09 0010 0914 Alarm State:  0
Tue Jul 16 18:35:17 PDT 2024 ON: 20.00 +20.0 19.88 -12.9 31.0 06 0A 001A 0908 Alarm State:  0
Tue Jul 16 18:34:16 PDT 2024 ON: 20.00 +20.0 19.89 -12.8 31.0 06 0A 0025 090E Alarm State:  0
Tue Jul 16 18:33:14 PDT 2024 ON: 20.00 +20.0 19.89 -12.8 30.9 06 0A 0011 0910 Alarm State:  0
Tue Jul 16 18:32:13 PDT 2024 ON: 20.00 +20.0 19.88 -12.9 30.9 06 0A 001C 091F Alarm State:  0
Tue Jul 16 18:31:01 PDT 2024 ON: 20.00 +20.0 19.87 -12.9 31.0 03 0B 0022 091F Alarm State:  0
Tue Jul 16 18:30:00 PDT 2024 ON: 20.00 +20.0 19.89 -12.9 30.9 06 0A 0027 0918 Alarm State:  0
Tue Jul 16 18:28:58 PDT 2024 ON: 20.01 +20.0 19.92 -12.9 30.9 06 08 0023 091E Alarm State:  0
Tue Jul 16 18:27:57 PDT 2024 ON: 20.00 +20.0 19.90 -12.9 30.9 03 09 0026 0902 Alarm State:  0
Tue Jul 16 18:26:55 PDT 2024 ON: 20.00 +20.0 19.89 -12.9 31.0 06 0A 0026 0902 Alarm State:  0
Tue Jul 16 18:25:54 PDT 2024 ON: 19.99 +20.0 19.88 -12.9 31.0 06 0A 002D 092A Alarm State:  0
Tue Jul 16 18:24:52 PDT 2024 ON: 20.00 +20.0 19.91 -12.9 31.0 06 09 0000 0907 Alarm State:  0
Tue Jul 16 18:23:51 PDT 2024 ON: 20.00 +20.0 19.90 -12.9 30.9 06 09 0007 090E Alarm State:  0
Tue Jul 16 18:22:49 PDT 2024 ON: 19.99 +20.0 19.89 -12.9 31.0 06 0A 0005 091E Alarm State:  0
Tue Jul 16 18:21:48 PDT 2024 ON: 20.00 +20.0 19.89 -12.9 30.9 06 0A 0010 091B Alarm State:  0
Tue Jul 16 18:20:46 PDT 2024 ON: 20.00 +20.0 19.90 -12.9 30.9 06 09 0008 091B Alarm State:  0
Tue Jul 16 18:19:45 PDT 2024 ON: 20.00 +20.0 19.88 -12.8 31.0 06 0A 0009 0928 Alarm State:  0
Tue Jul 16 18:18:43 PDT 2024 ON: 20.00 +20.0 19.88 -12.9 30.9 06 0A 0009 0927 Alarm State:  0
Tue Jul 16 18:17:42 PDT 2024 ON: 20.00 +20.0 19.90 -12.9 31.0 06 09 002F 0905 Alarm State:  0
Tue Jul 16 18:16:40 PDT 2024 ON: 20.00 +20.0 19.90 -12.9 31.0 06 09 0031 0915 Alarm State:  0
Tue Jul 16 18:15:39 PDT 2024 ON: 20.00 +20.0 19.87 -12.9 31.0 06 0B 000A 0928 Alarm State:  0
Tue Jul 16 18:14:37 PDT 2024 ON: 20.00 +20.0 19.88 -12.9 31.0 06 0A 0002 0908 Alarm State:  0
Tue Jul 16 18:13:36 PDT 2024 ON: 19.99 +20.0 19.88 -12.9 30.9 06 0A 000B 0920 Alarm State:  0
Tue Jul 16 18:12:34 PDT 2024 ON: 19.99 +20.0 19.89 -12.9 30.9 06 0A 0003 091C Alarm State:  0
Tue Jul 16 18:11:33 PDT 2024 ON: 20.00 +20.0 19.88 -12.8 30.9 06 0A 000E 0928 Alarm State:  0
Tue Jul 16 18:10:31 PDT 2024 ON: 19.99 +20.0 19.88 -12.9 30.9 06 0A 0018 0918 Alarm State:  0
Tue Jul 16 18:09:30 PDT 2024 ON: 20.00 +20.0 19.89 -12.9 30.9 06 0A 001D 091E Alarm State:  0
Tue Jul 16 18:08:28 PDT 2024 ON: 20.00 +20.0 19.89 -12.9 30.9 06 0A 0023 0912 Alarm State:  0
Tue Jul 16 18:07:27 PDT 2024 ON: 20.00 +20.0 19.91 -12.9 31.0 06 09 0014 0923 Alarm State:  0
Tue Jul 16 18:06:25 PDT 2024 ON: 20.00 +20.0 19.90 -12.9 30.9 06 09 001E 0927 Alarm State:  0
Tue Jul 16 18:05:24 PDT 2024 ON: 19.99 +20.0 19.90 -12.9 31.0 01 09 0029 0924 Alarm State:  0
Tue Jul 16 18:04:22 PDT 2024 ON: 20.00 +20.0 19.90 -12.9 31.0 06 09 0001 092A Alarm State:  0
Tue Jul 16 18:03:21 PDT 2024 ON: 20.00 +20.0 19.89 -12.9 30.9 06 0A 000B 0901 Alarm State:  0
Tue Jul 16 18:02:19 PDT 2024 ON: 20.00 +20.0 19.89 -12.9 31.0 06 0A 0010 0912 Alarm State:  0
Tue Jul 16 18:01:18 PDT 2024 ON: 19.99 +20.0 19.89 -12.9 31.0 01 0A 000A 0922 Alarm State:  0
Tue Jul 16 18:00:16 PDT 2024 ON: 20.00 +20.0 19.89 -12.9 31.0 06 0A 0030 0925 Alarm State:  0
Tue Jul 16 17:59:15 PDT 2024 ON: 20.00 +20.0 19.89 -12.9 30.9 06 0A 0007 0921 Alarm State:  0
Tue Jul 16 17:58:13 PDT 2024 ON: 20.00 +20.0 19.88 -12.9 31.0 06 0A 0012 0914 Alarm State:  0
Tue Jul 16 17:57:12 PDT 2024 ON: 20.00 +20.0 19.90 -12.8 30.9 06 09 000E 0919 Alarm State:  0
Tue Jul 16 17:56:10 PDT 2024 ON: 20.00 +20.0 19.89 -12.9 30.9 06 0A 0003 0918 Alarm State:  0
Tue Jul 16 17:55:09 PDT 2024 ON: 20.00 +20.0 19.89 -12.9 31.0 06 0A 000B 091E Alarm State:  0
Tue Jul 16 17:54:07 PDT 2024 ON: 20.01 +20.0 19.90 -12.9 31.0 06 09 0002 0921 Alarm State:  0
Tue Jul 16 17:53:06 PDT 2024 ON: 20.00 +20.0 19.88 -12.9 31.0 06 0A 0000 0918 Alarm State:  0
Tue Jul 16 17:52:04 PDT 2024 ON: 20.00 +20.0 19.91 -12.9 31.0 06 09 0030 090E Alarm State:  0
Tue Jul 16 17:51:03 PDT 2024 ON: 20.00 +20.0 19.88 -12.9 30.9 03 0A 0032 0902 Alarm State:  0
Tue Jul 16 17:50:01 PDT 2024 ON: 20.00 +20.0 19.89 -12.9 31.0 06 0A 000A 0910 Alarm State:  0
Tue Jul 16 17:49:00 PDT 2024 ON: 20.00 +20.0 19.88 -12.9 30.9 06 0A 0102 091E Alarm State:  0
Tue Jul 16 17:47:58 PDT 2024 ON: 20.00 +20.0 19.90 -12.9 30.9 06 09 000A 0908 Alarm State:  0
Tue Jul 16 17:46:56 PDT 2024 ON: 20.00 +20.0 19.89 -12.9 30.9 06 0A 0014 090E Alarm State:  0
Tue Jul 16 17:45:55 PDT 2024 ON: 20.00 +20.0 19.90 -12.9 30.9 06 09 0022 091D Alarm State:  0
Tue Jul 16 17:44:53 PDT 2024 ON: 20.00 +20.0 19.89 -12.9 30.9 06 0A 002A 090C Alarm State:  0
Tue Jul 16 17:43:52 PDT 2024 ON: 20.00 +20.0 19.89 -12.9 30.9 06 0A 0002 091F Alarm State:  0
Tue Jul 16 17:42:50 PDT 2024 ON: 19.99 +20.0 19.90 -12.9 30.9 06 09 001F 091F Alarm State:  0
Tue Jul 16 17:41:49 PDT 2024 ON: 20.00 +20.0 19.89 -12.9 30.9 06 0A 0008 0927 Alarm State:  0
Tue Jul 16 17:40:47 PDT 2024 ON: 20.00 +20.0 19.89 -12.9 30.9 03 0A 0012 091B Alarm State:  0
Tue Jul 16 17:39:46 PDT 2024 ON: 20.00 +20.0 19.89 -12.9 30.9 06 0A 0005 0901 Alarm State:  0
Tue Jul 16 17:38:44 PDT 2024 ON: 20.00 +20.0 19.89 -12.9 30.9 06 0A 000F 0903 Alarm State:  0
Tue Jul 16 17:37:43 PDT 2024 ON: 20.00 +20.0 19.88 -12.9 30.9 06 0A 001A 0913 Alarm State:  0
Tue Jul 16 17:36:41 PDT 2024 ON: 20.01 +20.0 19.89 -12.9 30.9 06 0A 0024 091B Alarm State:  0
Tue Jul 16 17:35:40 PDT 2024 ON: 19.99 +20.0 19.89 -12.9 30.9 06 0A 0019 0926 Alarm State:  0
Tue Jul 16 17:34:38 PDT 2024 ON: 20.00 +20.0 19.88 -12.9 30.9 06 0A 000D 0916 Alarm State:  0
Tue Jul 16 17:33:37 PDT 2024 ON: 20.00 +20.0 19.89 -12.9 30.9 06 0A 0023 0925 Alarm State:  0
Tue Jul 16 17:32:35 PDT 2024 ON: 20.00 +20.0 19.89 -12.9 30.9 06 0A 002D 0927 Alarm State:  0
Tue Jul 16 17:31:34 PDT 2024 ON: 20.00 +20.0 19.89 -12.9 30.9 06 0A 0005 0926 Alarm State:  0
Tue Jul 16 17:30:32 PDT 2024 ON: 20.00 +20.0 19.91 -12.9 30.9 06 09 000F 0916 Alarm State:  0
Tue Jul 16 17:29:31 PDT 2024 ON: 20.01 +20.0 19.90 -12.9 30.9 06 09 0010 0902 Alarm State:  0
Tue Jul 16 17:28:29 PDT 2024 ON: 20.00 +20.0 19.90 -12.9 30.9 06 09 0029 0916 Alarm State:  0
Tue Jul 16 17:27:28 PDT 2024 ON: 20.00 +20.0 19.88 -12.9 30.9 06 0A 0101 0912 Alarm State:  0
Tue Jul 16 17:26:26 PDT 2024 ON: 19.99 +20.0 19.91 -12.9 30.9 06 09 0002 0924 Alarm State:  0
Tue Jul 16 17:25:25 PDT 2024 ON: 20.00 +20.0 19.89 -12.9 30.9 06 0A 000B 0917 Alarm State:  0
Tue Jul 16 17:24:23 PDT 2024 ON: 20.00 +20.0 19.89 -12.9 30.9 06 0A 002C 0900 Alarm State:  0
Tue Jul 16 17:23:22 PDT 2024 ON: 20.00 +20.0 19.88 -12.9 30.9 06 0A 0004 0918 Alarm State:  0
Tue Jul 16 17:22:20 PDT 2024 ON: 20.00 +20.0 19.90 -12.9 30.9 06 09 000C 090C Alarm State:  0
Tue Jul 16 17:21:19 PDT 2024 ON: 20.01 +20.0 19.89 -12.9 31.0 06 0A 0024 091F Alarm State:  0
Tue Jul 16 17:20:17 PDT 2024 ON: 20.00 +20.0 19.88 -12.9 31.0 06 0A 0028 0919 Alarm State:  0
Tue Jul 16 17:19:16 PDT 2024 ON: 20.01 +20.0 19.89 -12.9 30.9 01 0A 0009 0916 Alarm State:  0
Tue Jul 16 17:18:14 PDT 2024 ON: 20.00 +20.0 19.90 -12.9 30.9 06 09 0001 092A Alarm State:  0
Tue Jul 16 17:17:13 PDT 2024 ON: 20.00 +20.0 19.90 -12.9 30.9 03 09 0008 091B Alarm State:  0
Tue Jul 16 17:16:11 PDT 2024 ON: 20.00 +20.0 19.89 -12.9 30.9 06 0A 0008 0900 Alarm State:  0
Tue Jul 16 17:15:10 PDT 2024 ON: 20.00 +20.0 19.90 -12.9 30.9 06 09 0013 0918 Alarm State:  0
Tue Jul 16 17:14:08 PDT 2024 ON: 20.00 +20.0 19.89 -12.9 30.9 06 0A 0017 0924 Alarm State:  0
Tue Jul 16 17:13:07 PDT 2024 ON: 19.99 +20.0 19.90 -12.9 30.9 06 09 000A 0915 Alarm State:  0
Tue Jul 16 17:12:05 PDT 2024 ON: 20.00 +20.0 19.90 -12.9 31.0 06 09 0027 091B Alarm State:  0
Tue Jul 16 17:11:04 PDT 2024 ON: 20.01 +20.0 19.91 -12.9 30.9 06 09 002A 0904 Alarm State:  0
Tue Jul 16 17:10:02 PDT 2024 ON: 20.01 +20.0 19.91 -12.9 30.9 06 09 0030 0912 Alarm State:  0
Tue Jul 16 17:09:01 PDT 2024 ON: 19.99 +20.0 19.90 -12.9 30.9 06 09 000D 0921 Alarm State:  0
Tue Jul 16 17:07:59 PDT 2024 ON: 20.00 +20.0 19.89 -12.9 31.0 06 0A 0022 0A02 Alarm State:  0
Tue Jul 16 17:06:58 PDT 2024 ON: 20.00 +20.0 19.90 -12.9 30.9 06 09 002D 0928 Alarm State:  0
Tue Jul 16 17:05:56 PDT 2024 ON: 20.00 +20.0 19.88 -12.9 30.9 06 0A 0002 0913 Alarm State:  0
Tue Jul 16 17:04:55 PDT 2024 ON: 20.00 +20.0 19.88 -12.9 31.0 01 0A 000D 090A Alarm State:  0
Tue Jul 16 17:03:53 PDT 2024 ON: 20.00 +20.0 19.90 -12.9 31.1 06 09 000D 091E Alarm State:  0
Tue Jul 16 17:02:52 PDT 2024 ON: 20.00 +20.0 19.90 -12.9 31.0 03 09 0014 090A Alarm State:  0
Tue Jul 16 17:01:50 PDT 2024 ON: 20.00 +20.0 19.90 -12.9 30.9 06 09 0019 091F Alarm State:  0
Tue Jul 16 17:00:49 PDT 2024 ON: 20.00 +20.0 19.91 -12.9 31.0 06 09 000D 0906 Alarm State:  0
Tue Jul 16 16:59:47 PDT 2024 ON: 20.01 +20.0 19.90 -12.8 31.0 06 09 001F 0905 Alarm State:  0
Tue Jul 16 16:58:46 PDT 2024 ON: 19.99 +20.0 19.87 -12.9 31.0 06 0B 001D 0926 Alarm State:  0
Tue Jul 16 16:57:44 PDT 2024 ON: 20.00 +20.0 19.88 -12.9 31.0 06 0A 001C 0906 Alarm State:  0
Tue Jul 16 16:56:43 PDT 2024 ON: 20.00 +20.0 19.90 -12.9 31.0 06 09 0026 0902 Alarm State:  0
Tue Jul 16 16:55:41 PDT 2024 ON: 19.99 +20.0 19.88 -12.9 30.9 06 0A 002F 0909 Alarm State:  0
Tue Jul 16 16:54:40 PDT 2024 ON: 20.00 +20.0 19.90 -12.9 31.0 06 09 0017 0909 Alarm State:  0
Tue Jul 16 16:53:38 PDT 2024 ON: 20.00 +20.0 19.88 -12.8 31.0 06 0A 0022 090F Alarm State:  0
Tue Jul 16 16:52:37 PDT 2024 ON: 20.00 +20.0 19.91 -12.9 31.0 06 09 001F 091F Alarm State:  0
Tue Jul 16 16:51:35 PDT 2024 ON: 20.01 +20.0 19.89 -12.9 30.9 06 0A 0020 0926 Alarm State:  0
Tue Jul 16 16:50:34 PDT 2024 ON: 20.00 +20.0 19.90 -12.9 30.9 06 09 0028 090E Alarm State:  0
Tue Jul 16 16:49:32 PDT 2024 ON: 20.00 +20.0 19.89 -12.9 31.0 06 0A 002B 091D Alarm State:  0
Tue Jul 16 16:48:30 PDT 2024 ON: 20.00 +20.0 19.88 -12.9 31.0 06 0A 0002 0911 Alarm State:  0
Tue Jul 16 16:47:29 PDT 2024 ON: 20.01 +20.0 19.89 -12.9 30.9 06 0A 0007 091B Alarm State:  0
Tue Jul 16 16:46:27 PDT 2024 ON: 20.00 +20.0 19.88 -12.9 31.0 06 0A 0005 0915 Alarm State:  0
Tue Jul 16 16:45:26 PDT 2024 ON: 20.00 +20.0 19.89 -12.9 31.0 03 0A 000A 0922 Alarm State:  0
Tue Jul 16 16:44:24 PDT 2024 ON: 19.99 +20.0 19.91 -12.9 31.0 06 09 002B 0A03 Alarm State:  0
Tue Jul 16 16:43:23 PDT 2024 ON: 20.00 +20.0 19.90 -12.9 30.9 06 09 0028 091E Alarm State:  0
Tue Jul 16 16:42:21 PDT 2024 ON: 20.00 +20.0 19.89 -12.9 31.0 06 0A 002A 0907 Alarm State:  0
Tue Jul 16 16:41:20 PDT 2024 ON: 20.00 +20.0 19.90 -12.9 30.9 06 09 0031 0908 Alarm State:  0
Tue Jul 16 16:40:18 PDT 2024 ON: 20.00 +20.0 19.88 -12.9 30.9 06 0A 0031 0908 Alarm State:  0
Tue Jul 16 16:39:17 PDT 2024 ON: 20.00 +20.0 19.92 -12.9 30.9 06 08 0024 0920 Alarm State:  0
Tue Jul 16 16:38:15 PDT 2024 ON: 20.01 +20.0 19.91 -12.9 30.9 06 09 0014 0912 Alarm State:  0
Tue Jul 16 16:37:14 PDT 2024 ON: 19.99 +20.0 19.88 -12.9 31.0 06 0A 0007 091B Alarm State:  0
Tue Jul 16 16:36:12 PDT 2024 ON: 19.99 +20.0 19.87 -12.9 31.0 06 0B 0005 0901 Alarm State:  0
Tue Jul 16 16:35:11 PDT 2024 ON: 20.00 +20.0 19.90 -12.9 30.9 06 09 0004 0910 Alarm State:  0
Tue Jul 16 16:34:09 PDT 2024 ON: 20.00 +20.0 19.90 -12.9 30.9 06 09 000A 0922 Alarm State:  0
Tue Jul 16 16:33:08 PDT 2024 ON: 20.00 +20.0 19.88 -12.9 30.9 06 0A 0001 0925 Alarm State:  0
Tue Jul 16 16:32:06 PDT 2024 ON: 20.00 +20.0 19.88 -12.8 30.9 00 0A 0005 091C Alarm State:  0
Tue Jul 16 16:31:05 PDT 2024 ON: 20.00 +20.0 19.88 -12.9 30.9 06 0A 0010 0915 Alarm State:  0
Tue Jul 16 16:30:03 PDT 2024 ON: 20.00 +20.0 19.87 -12.9 31.0 06 0B 0014 091B Alarm State:  0
Tue Jul 16 16:29:02 PDT 2024 ON: 20.00 +20.0 19.90 -12.9 30.9 06 09 0013 0903 Alarm State:  0
Tue Jul 16 16:28:00 PDT 2024 ON: 20.00 +20.0 19.91 -12.9 30.9 06 09 0019 091C Alarm State:  0
Tue Jul 16 16:26:59 PDT 2024 ON: 20.00 +20.0 19.90 -12.9 30.9 06 09 001C 0925 Alarm State:  0
Tue Jul 16 16:25:57 PDT 2024 ON: 20.00 +20.0 19.90 -12.9 30.9 06 09 0020 091B Alarm State:  0
Tue Jul 16 16:24:56 PDT 2024 ON: 19.99 +20.0 19.88 -12.9 31.0 06 0A 0021 091E Alarm State:  0
Tue Jul 16 16:23:54 PDT 2024 ON: 20.00 +20.0 19.90 -12.9 30.8 06 09 0015 0924 Alarm State:  0
Tue Jul 16 16:22:53 PDT 2024 ON: 20.00 +20.0 19.90 -12.9 30.9 06 09 000E 0927 Alarm State:  0
Tue Jul 16 16:21:51 PDT 2024 ON: 20.00 +20.0 19.91 -12.9 31.0 06 09 000C 090A Alarm State:  0
Tue Jul 16 16:20:50 PDT 2024 ON: 20.00 +20.0 19.91 -12.9 30.9 06 09 0030 091F Alarm State:  0
Tue Jul 16 16:19:48 PDT 2024 ON: 20.01 +20.0 19.91 -12.9 31.0 06 09 0016 0902 Alarm State:  0
Tue Jul 16 16:18:47 PDT 2024 ON: 20.01 +20.0 19.89 -12.9 31.0 06 0A 000F 0924 Alarm State:  0
Tue Jul 16 16:17:45 PDT 2024 ON: 20.00 +20.0 19.90 -12.9 31.0 06 09 002E 0909 Alarm State:  0
Tue Jul 16 16:16:44 PDT 2024 ON: 19.99 +20.0 19.89 -12.9 31.0 06 0A 0006 092B Alarm State:  0
Tue Jul 16 16:15:42 PDT 2024 ON: 20.00 +20.0 19.90 -12.9 30.9 06 09 0021 0908 Alarm State:  0
Tue Jul 16 16:14:41 PDT 2024 ON: 19.99 +20.0 19.89 -12.9 30.9 06 0A 0016 0A11 Alarm State:  0
Tue Jul 16 16:13:39 PDT 2024 ON: 20.00 +20.0 19.90 -12.9 30.9 06 09 0020 0919 Alarm State:  0
Tue Jul 16 16:12:38 PDT 2024 ON: 20.00 +20.0 19.90 -12.9 30.9 06 09 001D 090C Alarm State:  0
Tue Jul 16 16:11:36 PDT 2024 ON: 20.00 +20.0 19.89 -12.9 30.9 06 0A 0021 091C Alarm State:  0
Tue Jul 16 16:10:35 PDT 2024 ON: 19.99 +20.0 19.90 -12.9 31.0 06 09 002C 0901 Alarm State:  0
Tue Jul 16 16:09:33 PDT 2024 ON: 20.00 +20.0 19.90 -12.9 30.9 06 09 0032 0920 Alarm State:  0
Tue Jul 16 16:08:32 PDT 2024 ON: 19.99 +20.0 19.89 -12.9 31.0 06 0A 000A 0924 Alarm State:  0
Tue Jul 16 16:07:30 PDT 2024 ON: 20.00 +20.0 19.89 -12.9 30.9 06 0A 0014 0910 Alarm State:  0
Tue Jul 16 16:06:29 PDT 2024 ON: 20.00 +20.0 19.88 -12.9 30.9 01 0A 001B 0918 Alarm State:  0
Tue Jul 16 16:05:27 PDT 2024 ON: 20.00 +20.0 19.90 -12.9 30.9 06 09 0025 0918 Alarm State:  0
Tue Jul 16 16:04:26 PDT 2024 ON: 20.00 +20.0 19.90 -12.9 30.9 06 09 001E 0904 Alarm State:  0
Tue Jul 16 16:03:24 PDT 2024 ON: 20.00 +20.0 19.90 -12.9 30.9 03 09 0028 0919 Alarm State:  0
Tue Jul 16 16:02:23 PDT 2024 ON: 20.00 +20.0 19.88 -12.9 30.9 06 0A 0029 091C Alarm State:  0
Tue Jul 16 16:01:21 PDT 2024 ON: 20.00 +20.0 19.91 -12.9 31.0 06 09 0000 091A Alarm State:  0
Tue Jul 16 16:00:20 PDT 2024 ON: 19.99 +20.0 19.88 -12.9 30.9 06 0A 000B 0903 Alarm State:  0
Tue Jul 16 15:59:18 PDT 2024 ON: 20.00 +20.0 19.89 -12.9 30.9 06 0A 0015 0924 Alarm State:  0
Tue Jul 16 15:58:17 PDT 2024 ON: 20.00 +20.0 19.88 -12.9 30.9 06 0A 0020 090E Alarm State:  0
Tue Jul 16 15:57:15 PDT 2024 ON: 19.99 +20.0 19.89 -12.9 30.9 06 0A 002A 090A Alarm State:  0
Tue Jul 16 15:56:14 PDT 2024 ON: 20.00 +20.0 19.89 -12.9 30.9 06 0A 001D 091D Alarm State:  0
Tue Jul 16 15:55:12 PDT 2024 ON: 20.00 +20.0 19.91 -12.9 30.9 06 09 000B 0A04 Alarm State:  0
Tue Jul 16 15:54:11 PDT 2024 ON: 20.01 +20.0 19.92 -12.9 30.9 06 08 0010 0915 Alarm State:  0
Tue Jul 16 15:53:09 PDT 2024 ON: 20.00 +20.0 19.91 -12.9 30.9 06 09 002B 091B Alarm State:  0
Tue Jul 16 15:52:08 PDT 2024 ON: 20.00 +20.0 19.89 -12.9 30.9 06 0A 0024 0910 Alarm State:  0
Tue Jul 16 15:51:06 PDT 2024 ON: 20.00 +20.0 19.91 -12.9 31.0 06 09 0026 0908 Alarm State:  0
Tue Jul 16 15:50:05 PDT 2024 ON: 20.00 +20.0 19.90 -12.9 30.9 06 09 002B 090D Alarm State:  0
Tue Jul 16 15:49:03 PDT 2024 ON: 20.00 +20.0 19.91 -12.9 30.9 06 09 0029 0903 Alarm State:  0
Tue Jul 16 15:48:02 PDT 2024 ON: 20.00 +20.0 19.89 -12.9 30.9 06 0A 0026 0927 Alarm State:  0
Tue Jul 16 15:47:00 PDT 2024 ON: 19.99 +20.0 19.89 -12.9 30.9 06 0A 001A 0A04 Alarm State:  0
Tue Jul 16 15:45:59 PDT 2024 ON: 19.99 +20.0 19.88 -12.9 31.0 06 0A 0025 0928 Alarm State:  0
Tue Jul 16 15:44:57 PDT 2024 ON: 20.00 +20.0 19.89 -12.9 30.9 06 0A 0021 0924 Alarm State:  0
Tue Jul 16 15:43:55 PDT 2024 ON: 20.00 +20.0 19.90 -12.9 30.9 06 09 002C 0914 Alarm State:  0
Tue Jul 16 15:42:54 PDT 2024 ON: 20.00 +20.0 19.89 -12.8 31.0 06 0A 0002 0900 Alarm State:  0
Tue Jul 16 15:41:52 PDT 2024 ON: 20.00 +20.0 19.90 -12.9 30.9 06 09 000A 091B Alarm State:  0
Tue Jul 16 15:40:51 PDT 2024 ON: 19.99 +20.0 19.88 -12.9 30.9 06 0A 0015 0908 Alarm State:  0
Tue Jul 16 15:39:49 PDT 2024 ON: 20.00 +20.0 19.89 -12.9 30.9 06 0A 0030 090E Alarm State:  0
Tue Jul 16 15:38:48 PDT 2024 ON: 19.99 +20.0 19.89 -12.9 30.9 06 0A 0008 0926 Alarm State:  0
Tue Jul 16 15:37:46 PDT 2024 ON: 20.00 +20.0 19.88 -12.9 30.9 06 0A 0012 091E Alarm State:  0
Tue Jul 16 15:36:45 PDT 2024 ON: 20.01 +20.0 19.90 -12.9 30.9 06 09 0017 0919 Alarm State:  0
Tue Jul 16 15:35:43 PDT 2024 ON: 20.00 +20.0 19.90 -12.9 30.9 06 09 0011 091D Alarm State:  0
Tue Jul 16 15:34:42 PDT 2024 ON: 19.99 +20.0 19.90 -12.9 30.9 06 09 001C 0930 Alarm State:  0
Tue Jul 16 15:33:40 PDT 2024 ON: 20.00 +20.0 19.88 -12.9 30.9 06 0A 0016 0924 Alarm State:  0
Tue Jul 16 15:32:39 PDT 2024 ON: 20.00 +20.0 19.89 -12.9 31.0 06 0A 0013 0925 Alarm State:  0
Tue Jul 16 15:31:37 PDT 2024 ON: 20.00 +20.0 19.89 -12.9 31.0 06 0A 001D 0919 Alarm State:  0
Tue Jul 16 15:30:36 PDT 2024 ON: 20.00 +20.0 19.90 -12.9 30.9 06 09 0012 0903 Alarm State:  0
Tue Jul 16 15:29:34 PDT 2024 ON: 19.99 +20.0 19.88 -12.9 30.9 06 0B 001C 0A01 Alarm State:  0
Tue Jul 16 15:28:33 PDT 2024 ON: 19.99 +20.0 19.90 -12.9 30.9 06 09 0027 091E Alarm State:  0
Tue Jul 16 15:27:31 PDT 2024 ON: 20.00 +20.0 19.89 -12.9 30.9 06 0A 0023 0904 Alarm State:  0
Tue Jul 16 15:26:30 PDT 2024 ON: 20.00 +20.0 19.88 -12.9 30.9 06 0A 002A 0926 Alarm State:  0
Tue Jul 16 15:25:28 PDT 2024 ON: 20.00 +20.0 19.89 -12.9 30.9 06 0A 0028 0926 Alarm State:  0
Tue Jul 16 15:24:27 PDT 2024 ON: 20.01 +20.0 19.89 -12.9 31.0 06 0A 0023 0919 Alarm State:  0
Tue Jul 16 15:23:25 PDT 2024 ON: 20.00 +20.0 19.89 -12.9 30.9 01 0A 0011 090F Alarm State:  0
Tue Jul 16 15:22:24 PDT 2024 ON: 20.00 +20.0 19.90 -12.9 30.9 06 09 000A 091F Alarm State:  0
Tue Jul 16 15:21:22 PDT 2024 ON: 20.00 +20.0 19.86 -12.9 31.0 06 0B 0014 0913 Alarm State:  0
Tue Jul 16 15:20:21 PDT 2024 ON: 20.00 +20.0 19.90 -12.9 31.0 06 09 0013 0912 Alarm State:  0
Tue Jul 16 15:19:19 PDT 2024 ON: 19.99 +20.0 19.88 -12.9 31.0 06 0A 001D 091C Alarm State:  0
Tue Jul 16 15:18:18 PDT 2024 ON: 20.00 +20.0 19.90 -12.9 30.9 06 09 0018 0901 Alarm State:  0
Tue Jul 16 15:17:16 PDT 2024 ON: 19.99 +20.0 19.89 -12.9 30.9 06 0A 0022 092B Alarm State:  0
Tue Jul 16 15:16:15 PDT 2024 ON: 20.00 +20.0 19.88 -12.9 30.9 06 0A 0025 0924 Alarm State:  0
Tue Jul 16 15:15:13 PDT 2024 ON: 20.00 +20.0 19.89 -12.9 30.9 06 0A 002D 0922 Alarm State:  0
Tue Jul 16 15:14:12 PDT 2024 ON: 20.00 +20.0 19.88 -12.9 31.0 06 0A 0001 0913 Alarm State:  0
Tue Jul 16 15:13:10 PDT 2024 ON: 20.01 +20.0 19.89 -12.9 30.9 06 0A 000B 0907 Alarm State:  0
Tue Jul 16 15:12:09 PDT 2024 ON: 20.00 +20.0 19.89 -12.9 30.9 06 0A 0008 0927 Alarm State:  0
Tue Jul 16 15:11:07 PDT 2024 ON: 20.00 +20.0 19.90 -12.9 30.9 06 09 0012 0910 Alarm State:  0
Tue Jul 16 15:10:06 PDT 2024 ON: 20.00 +20.0 19.90 -12.9 30.9 06 09 000D 0926 Alarm State:  0
Tue Jul 16 15:09:04 PDT 2024 ON: 20.00 +20.0 19.90 -12.9 30.9 06 0A 0028 0A01 Alarm State:  0
Tue Jul 16 15:08:03 PDT 2024 ON: 20.00 +20.0 19.88 -12.9 30.9 06 0A 002D 0922 Alarm State:  0
Tue Jul 16 15:07:01 PDT 2024 ON: 19.99 +20.0 19.91 -12.9 30.9 06 09 0021 0926 Alarm State:  0
Tue Jul 16 15:06:00 PDT 2024 ON: 20.00 +20.0 19.89 -12.9 31.0 06 0A 0028 090F Alarm State:  0
Tue Jul 16 15:04:58 PDT 2024 ON: 20.00 +20.0 19.89 -12.9 31.0 06 0A 001A 091D Alarm State:  0
Tue Jul 16 15:03:57 PDT 2024 ON: 20.00 +20.0 19.89 -12.9 30.9 06 0A 0015 0905 Alarm State:  0
Tue Jul 16 15:02:55 PDT 2024 ON: 19.99 +20.0 19.89 -12.9 30.9 06 0A 001F 092D Alarm State:  0
Tue Jul 16 15:01:54 PDT 2024 ON: 20.00 +20.0 19.90 -12.9 30.9 06 09 0028 0905 Alarm State:  0
Tue Jul 16 15:00:52 PDT 2024 ON: 20.00 +20.0 19.89 -12.9 30.9 06 0A 0032 0919 Alarm State:  0
Tue Jul 16 14:59:51 PDT 2024 ON: 20.00 +20.0 19.90 -12.9 31.0 06 09 000A 0914 Alarm State:  0
Tue Jul 16 14:58:49 PDT 2024 ON: 20.00 +20.0 19.90 -12.9 30.9 06 09 000E 090E Alarm State:  0
Tue Jul 16 14:57:48 PDT 2024 ON: 20.00 +20.0 19.89 -12.9 30.9 06 0A 002E 0907 Alarm State:  0
Tue Jul 16 14:56:46 PDT 2024 ON: 20.00 +20.0 19.88 -12.9 30.9 06 0A 0005 091A Alarm State:  0
Tue Jul 16 14:55:45 PDT 2024 ON: 19.99 +20.0 19.89 -12.9 30.9 06 0A 0031 0907 Alarm State:  0
Tue Jul 16 14:54:43 PDT 2024 ON: 20.00 +20.0 19.89 -12.9 30.9 06 0A 001D 090F Alarm State:  0
Tue Jul 16 14:53:42 PDT 2024 ON: 20.00 +20.0 19.90 -12.9 30.9 06 09 001A 0910 Alarm State:  0
Tue Jul 16 14:52:40 PDT 2024 ON: 19.99 +20.0 19.87 -12.9 30.9 06 0B 0024 0923 Alarm State:  0
Tue Jul 16 14:51:38 PDT 2024 ON: 20.01 +20.0 19.89 -12.9 30.9 06 0A 002F 0904 Alarm State:  0
Tue Jul 16 14:50:37 PDT 2024 ON: 19.99 +20.0 19.90 -12.9 30.9 06 09 002D 0921 Alarm State:  0
Tue Jul 16 14:49:35 PDT 2024 ON: 20.00 +20.0 19.88 -12.9 30.9 06 0A 0018 0914 Alarm State:  0
Tue Jul 16 14:48:34 PDT 2024 ON: 20.00 +20.0 19.89 -12.9 31.0 06 0A 001E 091E Alarm State:  0
Tue Jul 16 14:47:32 PDT 2024 ON: 20.00 +20.0 19.90 -12.9 31.0 06 09 0029 091F Alarm State:  0
Tue Jul 16 14:46:31 PDT 2024 ON: 20.00 +20.0 19.89 -12.9 30.9 06 0A 0000 0927 Alarm State:  0
Tue Jul 16 14:45:29 PDT 2024 ON: 20.00 +20.0 19.90 -12.9 31.0 06 09 000B 091E Alarm State:  0
Tue Jul 16 14:44:28 PDT 2024 ON: 20.01 +20.0 19.90 -12.9 31.0 06 09 0030 091C Alarm State:  0
Tue Jul 16 14:43:26 PDT 2024 ON: 20.00 +20.0 19.90 -12.9 31.0 06 09 0006 0908 Alarm State:  0
Tue Jul 16 14:42:25 PDT 2024 ON: 19.99 +20.0 19.89 -12.9 30.9 06 0A 0002 0923 Alarm State:  0
Tue Jul 16 14:41:23 PDT 2024 ON: 20.00 +20.0 19.90 -12.9 30.9 06 09 0003 0928 Alarm State:  0
Tue Jul 16 14:40:22 PDT 2024 ON: 20.00 +20.0 19.89 -12.9 30.9 06 0A 000B 0924 Alarm State:  0
Tue Jul 16 14:39:20 PDT 2024 ON: 20.00 +20.0 19.88 -12.9 30.9 06 0A 0010 0906 Alarm State:  0
Tue Jul 16 14:38:19 PDT 2024 ON: 19.99 +20.0 19.89 -12.9 31.0 06 0A 0026 0917 Alarm State:  0
Tue Jul 16 14:37:17 PDT 2024 ON: 19.99 +20.0 19.91 -12.9 30.9 06 09 0024 0917 Alarm State:  0
Tue Jul 16 14:36:16 PDT 2024 ON: 20.00 +20.0 19.90 -12.9 30.9 06 09 0017 0927 Alarm State:  0
Tue Jul 16 14:35:14 PDT 2024 ON: 20.00 +20.0 19.91 -12.9 30.9 06 09 0019 0A08 Alarm State:  0
Tue Jul 16 14:34:13 PDT 2024 ON: 20.00 +20.0 19.88 -12.9 31.0 06 0A 0024 0901 Alarm State:  0
Tue Jul 16 14:33:11 PDT 2024 ON: 20.00 +20.0 19.89 -12.9 30.9 06 0A 002E 090F Alarm State:  0
Tue Jul 16 14:32:10 PDT 2024 ON: 20.00 +20.0 19.89 -12.9 31.0 06 0A 0004 0920 Alarm State:  0
Tue Jul 16 14:31:08 PDT 2024 ON: 20.00 +20.0 19.90 -12.9 31.0 06 09 001D 0922 Alarm State:  0
Tue Jul 16 14:30:07 PDT 2024 ON: 20.01 +20.0 19.92 -12.9 30.9 06 08 001C 0909 Alarm State:  0
Tue Jul 16 14:29:05 PDT 2024 ON: 19.99 +20.0 19.89 -12.9 31.0 01 0A 0018 092C Alarm State:  0
Tue Jul 16 14:28:04 PDT 2024 ON: 20.00 +20.0 19.88 -12.9 30.9 06 0A 0013 0906 Alarm State:  0
Tue Jul 16 14:27:02 PDT 2024 ON: 20.00 +20.0 19.90 -12.9 30.9 06 09 0009 0914 Alarm State:  0
Tue Jul 16 14:26:01 PDT 2024 ON: 20.00 +20.0 19.88 -12.9 30.9 06 0A 0012 0927 Alarm State:  0
Tue Jul 16 14:24:59 PDT 2024 ON: 19.99 +20.0 19.88 -12.9 30.9 06 0A 0023 0913 Alarm State:  0
Tue Jul 16 14:23:58 PDT 2024 ON: 20.00 +20.0 19.89 -12.9 30.9 06 0A 0018 0918 Alarm State:  0
Tue Jul 16 14:22:56 PDT 2024 ON: 20.00 +20.0 19.90 -12.9 30.9 06 09 0011 0903 Alarm State:  0
Tue Jul 16 14:21:55 PDT 2024 ON: 20.00 +20.0 19.89 -12.9 31.1 06 0A 001C 0923 Alarm State:  0
Tue Jul 16 14:20:53 PDT 2024 ON: 19.99 +20.0 19.89 -12.9 31.0 06 0A 0026 0927 Alarm State:  0
Tue Jul 16 14:19:52 PDT 2024 ON: 20.00 +20.0 19.88 -12.9 30.9 06 0A 0011 0903 Alarm State:  0
Tue Jul 16 14:18:50 PDT 2024 ON: 20.00 +20.0 19.89 -12.9 30.9 06 0A 001B 090A Alarm State:  0
Tue Jul 16 14:17:49 PDT 2024 ON: 20.00 +20.0 19.89 -12.9 31.0 06 0A 0024 091B Alarm State:  0
Tue Jul 16 14:16:47 PDT 2024 ON: 20.00 +20.0 19.89 -12.9 30.9 06 0A 002E 0927 Alarm State:  0
Tue Jul 16 14:15:46 PDT 2024 ON: 20.00 +20.0 19.90 -12.9 30.9 06 0A 0006 0A0D Alarm State:  0
Tue Jul 16 14:14:44 PDT 2024 ON: 20.00 +20.0 19.90 -12.9 31.0 06 09 0010 0907 Alarm State:  0
Tue Jul 16 14:13:43 PDT 2024 ON: 20.00 +20.0 19.88 -12.9 31.0 06 0A 001B 0910 Alarm State:  0
Tue Jul 16 14:12:41 PDT 2024 ON: 20.00 +20.0 19.89 -12.9 30.9 06 0A 001D 091F Alarm State:  0
Tue Jul 16 14:11:40 PDT 2024 ON: 19.99 +20.0 19.89 -12.9 31.0 06 0A 0020 0920 Alarm State:  0
Tue Jul 16 14:10:38 PDT 2024 ON: 20.00 +20.0 19.90 -12.9 31.0 06 09 002A 0923 Alarm State:  0
Tue Jul 16 14:09:37 PDT 2024 ON: 19.99 +20.0 19.90 -12.9 30.9 06 09 002F 0907 Alarm State:  0
Tue Jul 16 14:08:35 PDT 2024 ON: 20.00 +20.0 19.89 -12.9 31.0 06 0A 0000 0918 Alarm State:  0
Tue Jul 16 14:07:34 PDT 2024 ON: 20.00 +20.0 19.90 -12.9 30.9 06 09 0001 090F Alarm State:  0
Tue Jul 16 14:06:32 PDT 2024 ON: 20.00 +20.0 19.91 -12.9 30.9 06 09 000B 0921 Alarm State:  0
Tue Jul 16 14:05:31 PDT 2024 ON: 19.99 +20.0 19.89 -12.9 31.0 01 0A 0016 090E Alarm State:  0
Tue Jul 16 14:04:29 PDT 2024 ON: 20.00 +20.0 19.89 -12.9 30.9 06 0A 0020 0904 Alarm State:  0
Tue Jul 16 14:03:28 PDT 2024 ON: 19.99 +20.0 19.89 -12.9 31.0 06 0A 001F 0A07 Alarm State:  0
Tue Jul 16 14:02:26 PDT 2024 ON: 20.00 +20.0 19.90 -12.9 31.0 06 09 0029 091E Alarm State:  0
Tue Jul 16 14:01:25 PDT 2024 ON: 19.99 +20.0 19.90 -12.9 30.9 06 09 0001 0927 Alarm State:  0
Tue Jul 16 14:00:23 PDT 2024 ON: 20.00 +20.0 19.90 -12.9 30.9 06 09 0024 090A Alarm State:  0
Tue Jul 16 13:59:22 PDT 2024 ON: 20.01 +20.0 19.90 -12.9 30.9 06 09 001F 090F Alarm State:  0
Tue Jul 16 13:58:20 PDT 2024 ON: 20.00 +20.0 19.89 -12.9 31.0 06 0A 001F 0902 Alarm State:  0
Tue Jul 16 13:57:19 PDT 2024 ON: 20.00 +20.0 19.91 -12.9 30.9 06 09 0018 0917 Alarm State:  0
Tue Jul 16 13:56:17 PDT 2024 ON: 20.00 +20.0 19.91 -12.9 31.0 06 09 0022 090B Alarm State:  0
Tue Jul 16 13:55:16 PDT 2024 ON: 20.00 +20.0 19.89 -12.9 30.9 06 0A 0024 0920 Alarm State:  0
Tue Jul 16 13:54:14 PDT 2024 ON: 19.99 +20.0 19.89 -12.9 31.0 06 0A 002E 092F Alarm State:  0
Tue Jul 16 13:53:12 PDT 2024 ON: 20.01 +20.0 19.91 -12.9 31.0 06 09 0025 091C Alarm State:  0
Tue Jul 16 13:52:11 PDT 2024 ON: 20.00 +20.0 19.90 -12.9 31.0 06 09 0027 0928 Alarm State:  0
Tue Jul 16 13:51:09 PDT 2024 ON: 20.00 +20.0 19.91 -12.9 31.0 06 09 0032 0904 Alarm State:  0
Tue Jul 16 13:50:08 PDT 2024 ON: 20.00 +20.0 19.90 -12.9 31.0 06 09 0009 091D Alarm State:  0
Tue Jul 16 13:49:06 PDT 2024 ON: 20.00 +20.0 19.88 -12.9 31.0 06 0A 000E 0904 Alarm State:  0
Tue Jul 16 13:48:05 PDT 2024 ON: 20.00 +20.0 19.89 -12.8 31.0 06 0A 0010 0927 Alarm State:  0
Tue Jul 16 13:47:03 PDT 2024 ON: 20.00 +20.0 19.92 -12.9 31.0 06 08 0011 0903 Alarm State:  0
Tue Jul 16 13:46:02 PDT 2024 ON: 19.99 +20.0 19.89 -12.9 31.0 06 0A 0001 0907 Alarm State:  0
Tue Jul 16 13:45:00 PDT 2024 ON: 20.00 +20.0 19.91 -12.9 30.9 06 09 000A 0914 Alarm State:  0
Tue Jul 16 13:43:59 PDT 2024 ON: 19.99 +20.0 19.90 -12.9 30.9 06 09 0014 0924 Alarm State:  0
Tue Jul 16 13:42:57 PDT 2024 ON: 20.00 +20.0 19.89 -12.9 30.9 06 0A 001F 0925 Alarm State:  0
Tue Jul 16 13:41:56 PDT 2024 ON: 20.00 +20.0 19.89 -12.9 31.0 06 0A 001D 0908 Alarm State:  0
Tue Jul 16 13:40:54 PDT 2024 ON: 20.00 +20.0 19.90 -12.9 30.9 06 09 0012 091B Alarm State:  0
Tue Jul 16 13:39:53 PDT 2024 ON: 20.00 +20.0 19.90 -12.9 30.9 06 09 001C 0906 Alarm State:  0
Tue Jul 16 13:38:51 PDT 2024 ON: 20.00 +20.0 19.89 -12.9 31.0 06 0A 0027 0907 Alarm State:  0
Tue Jul 16 13:37:50 PDT 2024 ON: 19.99 +20.0 19.89 -12.9 30.9 06 0A 001B 092D Alarm State:  0
Tue Jul 16 13:36:48 PDT 2024 ON: 20.00 +20.0 19.89 -12.9 31.0 06 0A 0022 091E Alarm State:  0
Tue Jul 16 13:35:47 PDT 2024 ON: 20.00 +20.0 19.88 -12.9 30.9 06 0A 0020 0912 Alarm State:  0
Tue Jul 16 13:34:45 PDT 2024 ON: 20.01 +20.0 19.89 -12.9 30.9 06 0A 002B 0923 Alarm State:  0
Tue Jul 16 13:33:44 PDT 2024 ON: 20.00 +20.0 19.91 -12.9 31.0 06 09 002B 0927 Alarm State:  0
Tue Jul 16 13:32:32 PDT 2024 ON: 20.00 +20.0 19.90 -12.9 30.9 06 09 0009 0926 Alarm State:  0
Tue Jul 16 13:31:31 PDT 2024 ON: 20.00 +20.0 19.89 -12.9 30.9 06 0A 0013 090C Alarm State:  0
Tue Jul 16 13:30:29 PDT 2024 ON: 20.00 +20.0 19.88 -12.8 30.9 06 0A 001A 090B Alarm State:  0
Tue Jul 16 13:29:28 PDT 2024 ON: 20.00 +20.0 19.90 -12.8 30.9 06 09 0024 0912 Alarm State:  0
Tue Jul 16 13:28:26 PDT 2024 ON: 20.00 +20.0 19.90 -12.8 31.0 06 09 002F 090B Alarm State:  0
Tue Jul 16 13:27:25 PDT 2024 ON: 20.00 +20.0 19.90 -12.9 31.0 06 09 0006 0928 Alarm State:  0
Tue Jul 16 13:26:23 PDT 2024 ON: 20.00 +20.0 19.90 -12.9 31.0 06 09 0011 0923 Alarm State:  0
Tue Jul 16 13:25:22 PDT 2024 ON: 20.00 +20.0 19.89 -12.9 30.9 06 0A 001B 0900 Alarm State:  0
Tue Jul 16 13:24:20 PDT 2024 ON: 20.01 +20.0 19.91 -12.9 31.0 06 09 0020 0911 Alarm State:  0
Tue Jul 16 13:23:19 PDT 2024 ON: 20.00 +20.0 19.89 -12.9 30.9 06 0A 001A 091F Alarm State:  0
Tue Jul 16 13:22:17 PDT 2024 ON: 19.99 +20.0 19.91 -12.9 30.9 06 09 0005 0A01 Alarm State:  0
Tue Jul 16 13:21:16 PDT 2024 ON: 20.00 +20.0 19.89 -12.9 30.9 06 0A 001A 091F Alarm State:  0
Tue Jul 16 13:20:14 PDT 2024 ON: 20.01 +20.0 19.90 -12.9 30.9 06 09 0015 0922 Alarm State:  0
Tue Jul 16 13:19:13 PDT 2024 ON: 19.99 +20.0 19.90 -12.9 30.9 06 09 0032 0905 Alarm State:  0
Tue Jul 16 13:18:11 PDT 2024 ON: 20.00 +20.0 19.91 -12.9 31.0 03 09 0031 090A Alarm State:  0
Tue Jul 16 13:17:10 PDT 2024 ON: 19.99 +20.0 19.90 -12.9 30.9 06 09 0002 0912 Alarm State:  0
Tue Jul 16 13:16:08 PDT 2024 ON: 20.00 +20.0 19.90 -12.9 31.0 06 09 000D 0928 Alarm State:  0
Tue Jul 16 13:15:07 PDT 2024 ON: 20.00 +20.0 19.88 -12.9 30.9 06 0A 0011 0920 Alarm State:  0
Tue Jul 16 13:14:05 PDT 2024 ON: 20.00 +20.0 19.88 -12.9 31.0 06 0A 001C 092B Alarm State:  0
Tue Jul 16 13:13:04 PDT 2024 ON: 20.00 +20.0 19.90 -12.9 30.9 06 09 0026 0926 Alarm State:  0
Tue Jul 16 13:12:02 PDT 2024 ON: 20.00 +20.0 19.89 -12.9 31.0 06 0A 0031 0907 Alarm State:  0
Tue Jul 16 13:11:01 PDT 2024 ON: 20.00 +20.0 19.89 -12.9 31.0 06 0A 0003 0914 Alarm State:  0
Tue Jul 16 13:09:59 PDT 2024 ON: 20.00 +20.0 19.89 -12.9 31.0 06 0A 000D 0915 Alarm State:  0
Tue Jul 16 13:08:58 PDT 2024 ON: 20.00 +20.0 19.91 -12.9 30.9 06 09 0018 091C Alarm State:  0
Tue Jul 16 13:07:56 PDT 2024 ON: 20.00 +20.0 19.90 -12.9 30.9 06 0A 000B 0A07 Alarm State:  0
Tue Jul 16 13:06:55 PDT 2024 ON: 20.00 +20.0 19.89 -12.9 30.9 06 0A 0016 0927 Alarm State:  0
Tue Jul 16 13:05:53 PDT 2024 ON: 20.00 +20.0 19.90 -12.9 31.0 06 09 0020 0908 Alarm State:  0
Tue Jul 16 13:04:52 PDT 2024 ON: 20.00 +20.0 19.92 -12.9 31.0 03 08 0027 0922 Alarm State:  0
Tue Jul 16 13:03:50 PDT 2024 ON: 19.99 +20.0 19.89 -12.9 30.9 06 0A 0031 0A01 Alarm State:  0
Tue Jul 16 13:02:49 PDT 2024 ON: 20.00 +20.0 19.89 -12.9 31.0 06 0A 0009 090A Alarm State:  0
Tue Jul 16 13:01:47 PDT 2024 ON: 19.99 +20.0 19.90 -12.9 30.9 06 09 0003 090E Alarm State:  0
Tue Jul 16 13:00:46 PDT 2024 ON: 20.00 +20.0 19.91 -12.9 31.0 06 09 0027 090B Alarm State:  0
Tue Jul 16 12:59:44 PDT 2024 ON: 19.99 +20.0 19.90 -12.9 30.9 06 09 0031 0927 Alarm State:  0
Tue Jul 16 12:58:43 PDT 2024 ON: 20.00 +20.0 19.89 -12.9 31.0 06 0A 0009 090A Alarm State:  0
Tue Jul 16 12:57:41 PDT 2024 ON: 20.00 +20.0 19.90 -12.9 30.9 06 09 0013 0929 Alarm State:  0
Tue Jul 16 12:56:40 PDT 2024 ON: 20.00 +20.0 19.91 -12.9 30.9 06 09 001E 0922 Alarm State:  0
Tue Jul 16 12:55:38 PDT 2024 ON: 20.00 +20.0 19.89 -12.9 30.9 06 0A 0028 0924 Alarm State:  0
Tue Jul 16 12:54:37 PDT 2024 ON: 19.99 +20.0 19.89 -12.9 31.0 06 0A 0000 0904 Alarm State:  0
Tue Jul 16 12:53:35 PDT 2024 ON: 20.00 +20.0 19.89 -12.9 31.0 06 0A 0004 0919 Alarm State:  0
Tue Jul 16 12:52:34 PDT 2024 ON: 19.99 +20.0 19.89 -12.9 30.9 06 0A 000D 092C Alarm State:  0
Tue Jul 16 12:51:32 PDT 2024 ON: 19.99 +20.0 19.89 -12.9 31.0 06 0A 0015 090E Alarm State:  0
Tue Jul 16 12:50:31 PDT 2024 ON: 20.00 +20.0 19.90 -12.9 31.0 06 09 0020 0924 Alarm State:  0
Tue Jul 16 12:49:29 PDT 2024 ON: 20.00 +20.0 19.89 -12.9 31.0 06 0A 002A 0926 Alarm State:  0
Tue Jul 16 12:48:28 PDT 2024 ON: 19.99 +20.0 19.88 -12.9 30.9 06 0A 0027 0919 Alarm State:  0
Tue Jul 16 12:47:26 PDT 2024 ON: 19.99 +20.0 19.91 -12.9 31.0 06 09 0031 091C Alarm State:  0
Tue Jul 16 12:46:24 PDT 2024 ON: 20.00 +20.0 19.91 -12.9 31.0 06 09 0005 0919 Alarm State:  0
Tue Jul 16 12:45:23 PDT 2024 ON: 20.00 +20.0 19.89 -12.9 30.9 06 0A 000F 0929 Alarm State:  0
Tue Jul 16 12:44:21 PDT 2024 ON: 19.99 +20.0 19.89 -12.9 30.9 06 0A 001A 0924 Alarm State:  0
Tue Jul 16 12:43:20 PDT 2024 ON: 19.99 +20.0 19.89 -12.9 30.9 06 0A 0004 090A Alarm State:  0
Tue Jul 16 12:42:18 PDT 2024 ON: 20.00 +20.0 19.89 -12.9 30.9 06 0A 000F 0909 Alarm State:  0
Tue Jul 16 12:41:17 PDT 2024 ON: 19.99 +20.0 19.90 -12.9 31.0 06 09 0019 0931 Alarm State:  0
Tue Jul 16 12:40:15 PDT 2024 ON: 19.98 +20.0 19.89 -12.8 31.0 06 0A 0024 0922 Alarm State:  0
Tue Jul 16 12:39:14 PDT 2024 ON: 19.99 +20.0 19.89 -12.9 31.0 06 0A 002E 0925 Alarm State:  0
Tue Jul 16 12:38:12 PDT 2024 ON: 20.00 +20.0 19.91 -12.9 30.9 06 09 001F 091C Alarm State:  0
Tue Jul 16 12:37:11 PDT 2024 ON: 20.00 +20.0 19.89 -12.9 31.0 06 0A 0029 0913 Alarm State:  0
Tue Jul 16 12:36:09 PDT 2024 ON: 19.99 +20.0 19.89 -12.9 30.9 06 0A 0001 091B Alarm State:  0
Tue Jul 16 12:35:08 PDT 2024 ON: 19.99 +20.0 19.89 -12.9 30.9 06 0A 0001 091C Alarm State:  0
Tue Jul 16 12:34:06 PDT 2024 ON: 20.00 +20.0 19.90 -12.8 31.0 06 09 000C 0928 Alarm State:  0
Tue Jul 16 12:33:05 PDT 2024 ON: 20.00 +20.0 19.89 -12.9 30.9 06 0A 0016 0924 Alarm State:  0
Tue Jul 16 12:32:03 PDT 2024 ON: 19.99 +20.0 19.91 -12.9 30.9 06 09 0013 092C Alarm State:  0
Tue Jul 16 12:31:02 PDT 2024 ON: 20.00 +20.0 19.89 -12.8 30.9 06 0A 001D 0912 Alarm State:  0
Tue Jul 16 12:30:00 PDT 2024 ON: 20.00 +20.0 19.91 -12.9 30.9 06 09 0026 0909 Alarm State:  0
Tue Jul 16 12:28:59 PDT 2024 ON: 19.99 +20.0 19.88 -12.9 30.9 06 0A 0030 0920 Alarm State:  0
Tue Jul 16 12:27:57 PDT 2024 ON: 19.99 +20.0 19.90 -12.9 31.0 06 09 0008 0923 Alarm State:  0
Tue Jul 16 12:26:56 PDT 2024 ON: 20.00 +20.0 19.90 -12.8 31.0 06 09 0012 090B Alarm State:  0
Tue Jul 16 12:25:54 PDT 2024 ON: 20.00 +20.0 19.89 -12.8 31.0 06 0A 001D 090F Alarm State:  0
Tue Jul 16 12:24:53 PDT 2024 ON: 20.00 +20.0 19.88 -12.8 31.0 06 0A 0023 0919 Alarm State:  0
Tue Jul 16 12:23:51 PDT 2024 ON: 19.99 +20.0 19.89 -12.9 31.0 06 0A 0024 0A0C Alarm State:  0
Tue Jul 16 12:22:50 PDT 2024 ON: 20.00 +20.0 19.90 -12.9 30.9 06 09 002E 0902 Alarm State:  0
Tue Jul 16 12:21:48 PDT 2024 ON: 19.99 +20.0 19.90 -12.9 30.9 06 09 0006 0924 Alarm State:  0
Tue Jul 16 12:20:47 PDT 2024 ON: 19.99 +20.0 19.88 -12.9 31.0 06 0A 0010 0923 Alarm State:  0
Tue Jul 16 12:19:45 PDT 2024 ON: 20.00 +20.0 19.91 -12.8 31.0 06 09 001B 0904 Alarm State:  0
Tue Jul 16 12:18:44 PDT 2024 ON: 19.99 +20.0 19.90 -12.9 30.9 06 09 000F 091F Alarm State:  0
Tue Jul 16 12:17:42 PDT 2024 ON: 20.01 +20.0 19.89 -12.9 31.0 06 0A 0010 091B Alarm State:  0
Tue Jul 16 12:16:41 PDT 2024 ON: 20.00 +20.0 19.90 -12.9 30.9 06 0A 001C 0A03 Alarm State:  0
Tue Jul 16 12:15:39 PDT 2024 ON: 19.99 +20.0 19.89 -12.8 31.0 06 0A 0020 0A10 Alarm State:  0
Tue Jul 16 12:14:38 PDT 2024 ON: 20.00 +20.0 19.90 -12.9 31.0 06 09 0029 0907 Alarm State:  0
Tue Jul 16 12:13:36 PDT 2024 ON: 20.00 +20.0 19.90 -12.9 30.9 06 09 0000 0917 Alarm State:  0
Tue Jul 16 12:12:35 PDT 2024 ON: 20.00 +20.0 19.87 -12.9 31.0 06 0B 0032 091C Alarm State:  0
Tue Jul 16 12:11:33 PDT 2024 ON: 20.00 +20.0 19.90 -12.9 30.9 06 09 0007 0920 Alarm State:  0
Tue Jul 16 12:10:32 PDT 2024 ON: 19.99 +20.0 19.91 -12.9 31.0 06 09 0012 0A00 Alarm State:  0
Tue Jul 16 12:09:30 PDT 2024 ON: 20.00 +20.0 19.92 -12.9 31.0 06 08 0006 0923 Alarm State:  0
Tue Jul 16 12:08:29 PDT 2024 ON: 20.00 +20.0 19.89 -12.9 30.9 06 0A 0011 0A01 Alarm State:  0
Tue Jul 16 12:07:27 PDT 2024 ON: 20.00 +20.0 19.89 -12.9 31.0 06 0A 001B 0926 Alarm State:  0
Tue Jul 16 12:06:26 PDT 2024 ON: 20.00 +20.0 19.89 -12.9 31.0 06 0A 001C 091D Alarm State:  0
Tue Jul 16 12:05:24 PDT 2024 ON: 19.99 +20.0 19.88 -12.9 30.9 06 0A 0026 090F Alarm State:  0
Tue Jul 16 12:04:23 PDT 2024 ON: 20.00 +20.0 19.87 -12.9 30.9 06 0B 0031 090D Alarm State:  0
Tue Jul 16 12:03:21 PDT 2024 ON: 19.99 +20.0 19.90 -12.9 30.9 06 09 0008 0918 Alarm State:  0
Tue Jul 16 12:02:20 PDT 2024 ON: 20.00 +20.0 19.90 -12.8 31.0 06 09 0013 092A Alarm State:  0
Tue Jul 16 12:01:18 PDT 2024 ON: 19.99 +20.0 19.89 -12.9 30.9 00 0A 001B 092B Alarm State:  0
Tue Jul 16 12:00:17 PDT 2024 ON: 20.00 +20.0 19.90 -12.9 30.9 06 0A 0024 0A04 Alarm State:  0
Tue Jul 16 11:59:15 PDT 2024 ON: 20.00 +20.0 19.90 -12.9 31.0 06 09 002E 092F Alarm State:  0
Tue Jul 16 11:58:14 PDT 2024 ON: 20.00 +20.0 19.89 -12.9 30.9 06 0A 0006 0923 Alarm State:  0
Tue Jul 16 11:57:12 PDT 2024 ON: 19.99 +20.0 19.89 -12.8 31.0 06 0A 0010 090F Alarm State:  0
Tue Jul 16 11:56:11 PDT 2024 ON: 19.99 +20.0 19.89 -12.8 31.0 06 0A 0024 0A00 Alarm State:  0
Tue Jul 16 11:55:09 PDT 2024 ON: 20.00 +20.0 19.88 -12.9 30.9 06 0A 002E 090C Alarm State:  0
Tue Jul 16 11:54:08 PDT 2024 ON: 20.00 +20.0 19.88 -12.9 31.0 06 0A 0006 090C Alarm State:  0
Tue Jul 16 11:53:06 PDT 2024 ON: 19.99 +20.0 19.88 -12.8 31.0 06 0A 0010 0911 Alarm State:  0
Tue Jul 16 11:52:04 PDT 2024 ON: 20.00 +20.0 19.88 -12.8 31.0 06 0A 001B 091D Alarm State:  0
Tue Jul 16 11:51:03 PDT 2024 ON: 20.00 +20.0 19.88 -12.9 30.9 06 0A 0025 091A Alarm State:  0
Tue Jul 16 11:50:01 PDT 2024 ON: 20.00 +20.0 19.90 -12.8 30.9 06 09 002A 0909 Alarm State:  0
Tue Jul 16 11:49:00 PDT 2024 ON: 20.00 +20.0 19.93 -12.8 31.0 06 08 0032 0A01 Alarm State:  0
Tue Jul 16 11:47:58 PDT 2024 ON: 20.00 +20.0 19.90 -12.8 31.0 06 09 000A 090A Alarm State:  0
Tue Jul 16 11:46:57 PDT 2024 ON: 19.99 +20.0 19.90 -12.8 31.0 06 09 0014 092B Alarm State:  0
Tue Jul 16 11:45:55 PDT 2024 ON: 20.00 +20.0 19.88 -12.9 30.9 06 0A 001F 0921 Alarm State:  0
Tue Jul 16 11:44:54 PDT 2024 ON: 19.99 +20.0 19.88 -12.9 30.9 06 0B 0029 0A05 Alarm State:  0
Tue Jul 16 11:43:52 PDT 2024 ON: 20.00 +20.0 19.90 -12.8 31.0 06 09 0032 0902 Alarm State:  0
Tue Jul 16 11:42:51 PDT 2024 ON: 19.99 +20.0 19.91 -12.9 31.0 06 09 001C 0901 Alarm State:  0
Tue Jul 16 11:41:49 PDT 2024 ON: 20.00 +20.0 19.89 -12.9 30.9 06 0A 0027 0919 Alarm State:  0
Tue Jul 16 11:40:48 PDT 2024 ON: 20.00 +20.0 19.90 -12.9 30.9 06 09 0023 090B Alarm State:  0
Tue Jul 16 11:39:46 PDT 2024 ON: 19.99 +20.0 19.90 -12.9 30.9 06 09 002A 0927 Alarm State:  0
Tue Jul 16 11:38:45 PDT 2024 ON: 20.00 +20.0 19.89 -12.8 30.9 00 0A 0001 091A Alarm State:  0
Tue Jul 16 11:37:43 PDT 2024 ON: 20.00 +20.0 19.90 -12.8 31.0 06 09 0029 091D Alarm State:  0
Tue Jul 16 11:36:42 PDT 2024 ON: 20.00 +20.0 19.89 -12.9 30.9 06 0A 0025 0915 Alarm State:  0
Tue Jul 16 11:35:40 PDT 2024 ON: 20.00 +20.0 19.89 -12.9 30.9 06 0A 001C 090A Alarm State:  0
Tue Jul 16 11:34:39 PDT 2024 ON: 19.99 +20.0 19.89 -12.9 31.0 06 0A 0026 0917 Alarm State:  0
Tue Jul 16 11:33:37 PDT 2024 ON: 19.99 +20.0 19.91 -12.9 31.0 06 09 0031 091D Alarm State:  0
Tue Jul 16 11:32:36 PDT 2024 ON: 19.99 +20.0 19.89 -12.9 31.0 06 0A 0002 0922 Alarm State:  0
Tue Jul 16 11:31:34 PDT 2024 ON: 20.00 +20.0 19.89 -12.9 31.0 06 0A 0009 090D Alarm State:  0
Tue Jul 16 11:30:33 PDT 2024 ON: 19.99 +20.0 19.87 -12.9 30.9 06 0B 000B 0929 Alarm State:  0
Tue Jul 16 11:29:31 PDT 2024 ON: 20.00 +20.0 19.87 -12.9 30.9 06 0B 002F 091A Alarm State:  0
Tue Jul 16 11:28:30 PDT 2024 ON: 20.01 +20.0 19.90 -12.9 31.0 06 09 0006 091B Alarm State:  0
Tue Jul 16 11:27:28 PDT 2024 ON: 20.01 +20.0 19.91 -12.9 30.9 06 09 0030 0918 Alarm State:  0
Tue Jul 16 11:26:27 PDT 2024 ON: 19.99 +20.0 19.88 -12.9 30.9 06 0A 0003 091D Alarm State:  0
Tue Jul 16 11:25:25 PDT 2024 ON: 20.01 +20.0 19.90 -12.9 31.0 06 09 0008 0900 Alarm State:  0
Tue Jul 16 11:24:24 PDT 2024 ON: 20.00 +20.0 19.89 -12.9 30.9 06 0A 0002 091D Alarm State:  0
Tue Jul 16 11:23:22 PDT 2024 ON: 20.00 +20.0 19.91 -12.9 30.9 06 09 0007 0928 Alarm State:  0
Tue Jul 16 11:22:21 PDT 2024 ON: 19.99 +20.0 19.89 -12.8 31.0 06 0A 0011 092C Alarm State:  0
Tue Jul 16 11:21:19 PDT 2024 ON: 20.00 +20.0 19.89 -12.9 30.9 06 0A 0016 0A00 Alarm State:  0
Tue Jul 16 11:20:18 PDT 2024 ON: 19.99 +20.0 19.90 -12.8 31.0 00 09 0020 0922 Alarm State:  0
Tue Jul 16 11:19:16 PDT 2024 ON: 20.00 +20.0 19.89 -12.8 31.0 06 0A 002B 0920 Alarm State:  0
Tue Jul 16 11:18:15 PDT 2024 ON: 20.00 +20.0 19.89 -12.9 30.9 06 0A 0002 0908 Alarm State:  0
Tue Jul 16 11:17:13 PDT 2024 ON: 20.00 +20.0 19.90 -12.9 31.0 06 09 002E 090F Alarm State:  0
Tue Jul 16 11:16:12 PDT 2024 ON: 20.00 +20.0 19.90 -12.9 30.9 06 09 0005 0918 Alarm State:  0
Tue Jul 16 11:15:10 PDT 2024 ON: 19.99 +20.0 19.89 -12.9 31.0 06 0A 000C 0918 Alarm State:  0
Tue Jul 16 11:14:09 PDT 2024 ON: 20.00 +20.0 19.90 -12.9 31.0 06 09 0016 0926 Alarm State:  0
Tue Jul 16 11:13:07 PDT 2024 ON: 19.99 +20.0 19.89 -12.8 31.0 06 0A 0021 0925 Alarm State:  0
Tue Jul 16 11:12:06 PDT 2024 ON: 20.00 +20.0 19.89 -12.9 30.9 06 0A 002B 0913 Alarm State:  0
Tue Jul 16 11:11:04 PDT 2024 ON: 20.00 +20.0 19.89 -12.9 30.9 03 0A 002E 0917 Alarm State:  0
Tue Jul 16 11:10:03 PDT 2024 ON: 19.99 +20.0 19.89 -12.9 31.0 06 0A 0000 091C Alarm State:  0
Tue Jul 16 11:09:01 PDT 2024 ON: 20.01 +20.0 19.89 -12.9 31.0 06 0A 0025 0914 Alarm State:  0
Tue Jul 16 11:08:00 PDT 2024 ON: 20.00 +20.0 19.89 -12.9 30.9 06 0A 0008 0A19 Alarm State:  0
Tue Jul 16 11:06:58 PDT 2024 ON: 20.00 +20.0 19.90 -12.9 31.0 06 09 0012 090D Alarm State:  0
Tue Jul 16 11:05:57 PDT 2024 ON: 20.00 +20.0 19.90 -12.9 31.0 06 09 001D 0912 Alarm State:  0
Tue Jul 16 11:04:55 PDT 2024 ON: 19.99 +20.0 19.91 -12.9 31.0 06 09 0032 0A1A Alarm State:  0
Tue Jul 16 11:03:54 PDT 2024 ON: 19.99 +20.0 19.89 -12.9 31.0 06 0A 000A 092A Alarm State:  0
Tue Jul 16 11:02:52 PDT 2024 ON: 19.99 +20.0 19.88 -12.9 31.0 06 0A 0014 0918 Alarm State:  0
Tue Jul 16 11:01:51 PDT 2024 ON: 20.00 +20.0 19.89 -12.9 31.0 06 0A 001F 0926 Alarm State:  0
Tue Jul 16 11:00:49 PDT 2024 ON: 20.00 +20.0 19.90 -12.9 31.0 06 09 0029 0913 Alarm State:  0
Tue Jul 16 10:59:48 PDT 2024 ON: 20.00 +20.0 19.90 -12.9 30.9 06 09 0001 091B Alarm State:  0
Tue Jul 16 10:58:46 PDT 2024 ON: 20.00 +20.0 19.88 -12.9 31.0 06 0A 0007 091F Alarm State:  0
Tue Jul 16 10:57:45 PDT 2024 ON: 19.99 +20.0 19.87 -12.9 30.9 06 0B 0012 0916 Alarm State:  0
Tue Jul 16 10:56:43 PDT 2024 ON: 20.00 +20.0 19.90 -12.9 30.9 06 09 001C 0924 Alarm State:  0
Tue Jul 16 10:55:42 PDT 2024 ON: 19.99 +20.0 19.89 -12.9 31.0 06 0A 0021 091B Alarm State:  0
Tue Jul 16 10:54:40 PDT 2024 ON: 20.00 +20.0 19.89 -12.9 30.9 06 0A 002B 0917 Alarm State:  0
Tue Jul 16 10:53:38 PDT 2024 ON: 20.00 +20.0 19.89 -12.9 30.9 06 0A 0024 0924 Alarm State:  0
Tue Jul 16 10:52:37 PDT 2024 ON: 20.00 +20.0 19.89 -12.9 31.0 06 0A 002C 091C Alarm State:  0
Tue Jul 16 10:51:35 PDT 2024 ON: 19.99 +20.0 19.88 -12.9 30.9 06 0A 0004 0920 Alarm State:  0
Tue Jul 16 10:50:34 PDT 2024 ON: 19.99 +20.0 19.89 -12.9 31.0 06 0A 000E 0922 Alarm State:  0
Tue Jul 16 10:49:32 PDT 2024 ON: 20.00 +20.0 19.90 -12.9 31.0 06 09 0019 0919 Alarm State:  0
Tue Jul 16 10:48:31 PDT 2024 ON: 20.00 +20.0 19.89 -12.9 30.9 06 0A 0023 090B Alarm State:  0
Tue Jul 16 10:47:29 PDT 2024 ON: 19.99 +20.0 19.89 -12.9 30.9 06 0A 0026 0925 Alarm State:  0
Tue Jul 16 10:46:28 PDT 2024 ON: 19.99 +20.0 19.90 -12.9 30.9 06 09 0030 091C Alarm State:  0
Tue Jul 16 10:45:26 PDT 2024 ON: 19.99 +20.0 19.90 -12.9 30.9 06 09 0008 0920 Alarm State:  0
Tue Jul 16 10:44:25 PDT 2024 ON: 20.00 +20.0 19.88 -12.9 30.9 06 0A 0012 0908 Alarm State:  0
Tue Jul 16 10:43:23 PDT 2024 ON: 20.00 +20.0 19.91 -12.9 31.0 06 09 001D 090C Alarm State:  0
Tue Jul 16 10:42:22 PDT 2024 ON: 20.00 +20.0 19.89 -12.9 31.0 06 0A 0027 0904 Alarm State:  0
Tue Jul 16 10:41:20 PDT 2024 ON: 19.99 +20.0 19.88 -12.9 30.9 06 0A 0032 0918 Alarm State:  0
Tue Jul 16 10:40:19 PDT 2024 ON: 20.00 +20.0 19.88 -12.9 31.0 06 0A 0009 090A Alarm State:  0
Tue Jul 16 10:39:17 PDT 2024 ON: 19.99 +20.0 19.89 -12.9 30.9 06 0A 000E 0910 Alarm State:  0
Tue Jul 16 10:38:16 PDT 2024 ON: 19.99 +20.0 19.88 -12.9 31.0 06 0A 0018 0921 Alarm State:  0
Tue Jul 16 10:37:14 PDT 2024 ON: 20.00 +20.0 19.88 -12.9 31.0 06 0A 0023 0927 Alarm State:  0
Tue Jul 16 10:36:13 PDT 2024 ON: 20.00 +20.0 19.92 -12.9 30.9 06 08 0015 0915 Alarm State:  0
Tue Jul 16 10:35:11 PDT 2024 ON: 19.99 +20.0 19.88 -12.8 31.0 06 0A 0018 091D Alarm State:  0
Tue Jul 16 10:34:10 PDT 2024 ON: 20.00 +20.0 19.91 -12.9 30.9 06 09 001C 0924 Alarm State:  0
Tue Jul 16 10:33:08 PDT 2024 ON: 20.00 +20.0 19.90 -12.9 30.9 06 09 001D 0921 Alarm State:  0
Tue Jul 16 10:32:07 PDT 2024 ON: 19.99 +20.0 19.88 -12.9 30.9 06 0A 0023 0907 Alarm State:  0
Tue Jul 16 10:31:05 PDT 2024 ON: 20.00 +20.0 19.90 -12.8 30.9 06 09 002E 0925 Alarm State:  0
Tue Jul 16 10:30:04 PDT 2024 ON: 20.00 +20.0 19.89 -12.9 31.0 06 0A 0032 0926 Alarm State:  0
Tue Jul 16 10:29:02 PDT 2024 ON: 20.00 +20.0 19.90 -12.9 30.9 06 09 0008 0914 Alarm State:  0
Tue Jul 16 10:28:01 PDT 2024 ON: 20.00 +20.0 19.89 -12.8 31.0 06 0A 000C 091A Alarm State:  0
Tue Jul 16 10:26:59 PDT 2024 ON: 20.00 +20.0 19.89 -12.9 30.9 03 0A 0017 0928 Alarm State:  0
Tue Jul 16 10:25:58 PDT 2024 ON: 20.00 +20.0 19.88 -12.9 30.9 06 0A 0013 090C Alarm State:  0
Tue Jul 16 10:24:56 PDT 2024 ON: 19.99 +20.0 19.89 -12.9 30.9 06 0A 0016 0923 Alarm State:  0
Tue Jul 16 10:23:55 PDT 2024 ON: 20.00 +20.0 19.89 -12.9 31.0 06 0A 0020 0912 Alarm State:  0
Tue Jul 16 10:22:53 PDT 2024 ON: 19.99 +20.0 19.88 -12.9 31.0 06 0A 001D 0923 Alarm State:  0
Tue Jul 16 10:21:52 PDT 2024 ON: 20.00 +20.0 19.89 -12.9 31.0 06 0A 0027 0912 Alarm State:  0
Tue Jul 16 10:20:50 PDT 2024 ON: 20.00 +20.0 19.88 -12.8 31.0 06 0A 000E 0912 Alarm State:  0
Tue Jul 16 10:19:49 PDT 2024 ON: 19.99 +20.0 19.88 -12.9 31.0 06 0A 000E 091D Alarm State:  0
Tue Jul 16 10:18:47 PDT 2024 ON: 20.00 +20.0 19.87 -12.8 31.1 06 0B 000D 0921 Alarm State:  0
Tue Jul 16 10:17:46 PDT 2024 ON: 20.00 +20.0 19.92 -12.9 31.0 06 09 000D 0A08 Alarm State:  0
Tue Jul 16 10:16:44 PDT 2024 ON: 20.00 +20.0 19.90 -12.9 30.9 06 09 0018 0907 Alarm State:  0
Tue Jul 16 10:15:43 PDT 2024 ON: 20.00 +20.0 19.89 -12.9 30.9 06 0A 0022 0914 Alarm State:  0
Tue Jul 16 10:14:41 PDT 2024 ON: 20.00 +20.0 19.91 -12.9 30.9 06 09 0029 0922 Alarm State:  0
Tue Jul 16 10:13:40 PDT 2024 ON: 20.00 +20.0 19.88 -12.9 30.9 06 0A 0000 091D Alarm State:  0
Tue Jul 16 10:12:38 PDT 2024 ON: 20.00 +20.0 19.89 -12.9 31.0 06 0A 000B 0914 Alarm State:  0
Tue Jul 16 10:11:37 PDT 2024 ON: 20.00 +20.0 19.89 -12.9 30.9 06 0A 0013 0925 Alarm State:  0
Tue Jul 16 10:10:35 PDT 2024 ON: 19.99 +20.0 19.89 -12.9 30.9 06 0A 001C 091C Alarm State:  0
Tue Jul 16 10:09:34 PDT 2024 ON: 20.00 +20.0 19.89 -12.9 30.9 06 0A 0026 0921 Alarm State:  0
Tue Jul 16 10:08:32 PDT 2024 ON: 20.01 +20.0 19.89 -12.9 31.0 06 0A 002B 0927 Alarm State:  0
Tue Jul 16 10:07:31 PDT 2024 ON: 20.00 +20.0 19.88 -12.9 30.9 06 0A 000D 090E Alarm State:  0
Tue Jul 16 10:06:29 PDT 2024 ON: 20.01 +20.0 19.90 -12.9 30.9 06 09 0027 090D Alarm State:  0
Tue Jul 16 10:05:28 PDT 2024 ON: 20.01 +20.0 19.90 -12.9 31.0 06 09 001F 0924 Alarm State:  0
Tue Jul 16 10:04:26 PDT 2024 ON: 20.00 +20.0 19.90 -12.9 30.9 06 09 001C 092D Alarm State:  0
Tue Jul 16 10:03:25 PDT 2024 ON: 20.00 +20.0 19.90 -12.9 31.0 06 09 001C 0923 Alarm State:  0
Tue Jul 16 10:02:23 PDT 2024 ON: 19.99 +20.0 19.88 -12.9 31.0 06 0A 0021 090E Alarm State:  0
Tue Jul 16 10:01:22 PDT 2024 ON: 19.99 +20.0 19.90 -12.9 30.9 06 09 0029 0919 Alarm State:  0
Tue Jul 16 10:00:20 PDT 2024 ON: 20.00 +20.0 19.91 -12.9 30.9 06 09 0001 0919 Alarm State:  0
Tue Jul 16 09:59:19 PDT 2024 ON: 20.00 +20.0 19.89 -12.9 30.9 06 0A 0025 090C Alarm State:  0
Tue Jul 16 09:58:17 PDT 2024 ON: 20.00 +20.0 19.89 -12.9 30.9 06 0A 002F 091B Alarm State:  0
Tue Jul 16 09:57:16 PDT 2024 ON: 20.01 +20.0 19.89 -12.9 31.0 06 0A 0030 0916 Alarm State:  0
Tue Jul 16 09:56:14 PDT 2024 ON: 19.99 +20.0 19.88 -12.9 30.9 06 0A 0022 092C Alarm State:  0
Tue Jul 16 09:55:13 PDT 2024 ON: 19.99 +20.0 19.89 -12.9 31.0 06 0A 002B 0928 Alarm State:  0
Tue Jul 16 09:54:11 PDT 2024 ON: 20.00 +20.0 19.89 -12.9 31.0 06 0A 0002 0906 Alarm State:  0
Tue Jul 16 09:53:10 PDT 2024 ON: 20.00 +20.0 19.90 -12.9 31.0 06 09 000B 090D Alarm State:  0
Tue Jul 16 09:52:08 PDT 2024 ON: 20.00 +20.0 19.87 -12.9 30.9 06 0B 0015 0910 Alarm State:  0
Tue Jul 16 09:51:06 PDT 2024 ON: 20.00 +20.0 19.90 -12.9 31.0 06 09 000C 0908 Alarm State:  0
Tue Jul 16 09:50:05 PDT 2024 ON: 20.00 +20.0 19.89 -12.9 30.9 06 0A 000A 0902 Alarm State:  0
Tue Jul 16 09:49:03 PDT 2024 ON: 19.99 +20.0 19.88 -12.9 30.9 06 0A 0015 0916 Alarm State:  0
Tue Jul 16 09:48:02 PDT 2024 ON: 20.00 +20.0 19.89 -12.9 30.9 06 0A 0015 0914 Alarm State:  0
Tue Jul 16 09:47:00 PDT 2024 ON: 20.00 +20.0 19.89 -12.9 30.9 06 0A 001E 0903 Alarm State:  0
Tue Jul 16 09:45:59 PDT 2024 ON: 20.00 +20.0 19.89 -12.9 30.9 06 0A 0028 0924 Alarm State:  0
Tue Jul 16 09:44:57 PDT 2024 ON: 20.00 +20.0 19.89 -12.9 30.9 06 0A 0000 0920 Alarm State:  0
Tue Jul 16 09:43:56 PDT 2024 ON: 19.99 +20.0 19.89 -12.9 30.9 06 0A 000A 0923 Alarm State:  0
Tue Jul 16 09:42:54 PDT 2024 ON: 20.00 +20.0 19.88 -12.9 30.9 06 0A 0015 0900 Alarm State:  0
Tue Jul 16 09:41:53 PDT 2024 ON: 19.99 +20.0 19.89 -12.9 30.9 06 0A 001F 091F Alarm State:  0
Tue Jul 16 09:40:51 PDT 2024 ON: 20.00 +20.0 19.90 -12.9 31.0 06 09 002A 0919 Alarm State:  0
Tue Jul 16 09:39:50 PDT 2024 ON: 20.00 +20.0 19.88 -12.9 31.0 06 0A 0001 0927 Alarm State:  0
Tue Jul 16 09:38:48 PDT 2024 ON: 20.00 +20.0 19.90 -12.9 30.9 06 09 0004 090D Alarm State:  0
Tue Jul 16 09:37:47 PDT 2024 ON: 20.00 +20.0 19.88 -12.9 30.9 06 0A 000C 0908 Alarm State:  0
Tue Jul 16 09:36:45 PDT 2024 ON: 19.98 +20.0 19.89 -12.9 30.9 06 0A 000F 0910 Alarm State:  0
Tue Jul 16 09:35:44 PDT 2024 ON: 20.00 +20.0 19.91 -12.9 30.9 06 09 0005 0906 Alarm State:  0
Tue Jul 16 09:34:42 PDT 2024 ON: 20.00 +20.0 19.90 -12.9 31.0 06 09 0010 0922 Alarm State:  0
Tue Jul 16 09:33:41 PDT 2024 ON: 20.00 +20.0 19.90 -12.9 30.9 06 09 0018 091A Alarm State:  0
Tue Jul 16 09:32:39 PDT 2024 ON: 19.99 +20.0 19.88 -12.9 31.0 06 0A 0023 0917 Alarm State:  0
Tue Jul 16 09:31:38 PDT 2024 ON: 20.00 +20.0 19.90 -12.9 30.9 06 09 002B 0912 Alarm State:  0
Tue Jul 16 09:30:36 PDT 2024 ON: 19.99 +20.0 19.89 -12.9 30.9 06 0A 000C 091F Alarm State:  0
Tue Jul 16 09:29:35 PDT 2024 ON: 20.01 +20.0 19.91 -12.9 30.9 06 09 002B 0A05 Alarm State:  0
Tue Jul 16 09:28:33 PDT 2024 ON: 19.99 +20.0 19.88 -12.9 30.9 06 0A 002E 0927 Alarm State:  0
Tue Jul 16 09:27:32 PDT 2024 ON: 19.99 +20.0 19.89 -12.9 30.9 06 0A 0005 0911 Alarm State:  0
Tue Jul 16 09:26:30 PDT 2024 ON: 19.98 +20.0 19.87 -12.9 31.0 06 0B 0010 0919 Alarm State:  0
Tue Jul 16 09:25:29 PDT 2024 ON: 20.00 +20.0 19.89 -12.9 31.0 06 0A 001A 091E Alarm State:  0
Tue Jul 16 09:24:27 PDT 2024 ON: 20.00 +20.0 19.88 -12.9 31.0 06 0A 0025 0905 Alarm State:  0
Tue Jul 16 09:23:26 PDT 2024 ON: 20.01 +20.0 19.90 -12.9 30.9 06 09 001F 090B Alarm State:  0
Tue Jul 16 09:22:24 PDT 2024 ON: 19.99 +20.0 19.89 -12.9 31.0 06 0A 0014 091F Alarm State:  0
Tue Jul 16 09:21:23 PDT 2024 ON: 20.00 +20.0 19.88 -12.9 30.9 06 0A 001E 0919 Alarm State:  0
Tue Jul 16 09:20:21 PDT 2024 ON: 20.00 +20.0 19.89 -12.9 30.9 06 0A 0029 0910 Alarm State:  0
Tue Jul 16 09:19:20 PDT 2024 ON: 20.00 +20.0 19.89 -12.9 31.0 06 0A 0000 090A Alarm State:  0
Tue Jul 16 09:18:18 PDT 2024 ON: 19.99 +20.0 19.88 -12.9 31.0 06 0A 000B 0929 Alarm State:  0
Tue Jul 16 09:17:17 PDT 2024 ON: 20.00 +20.0 19.88 -12.9 30.9 06 0A 000F 091E Alarm State:  0
Tue Jul 16 09:16:15 PDT 2024 ON: 20.00 +20.0 19.90 -12.9 30.9 06 09 001A 0923 Alarm State:  0
Tue Jul 16 09:15:14 PDT 2024 ON: 20.00 +20.0 19.92 -12.9 30.9 01 08 000A 0915 Alarm State:  0
Tue Jul 16 09:14:12 PDT 2024 ON: 20.00 +20.0 19.90 -12.9 31.0 06 09 000F 091D Alarm State:  0
Tue Jul 16 09:13:11 PDT 2024 ON: 20.00 +20.0 19.89 -12.9 30.9 06 0A 000B 0917 Alarm State:  0
Tue Jul 16 09:12:09 PDT 2024 ON: 20.00 +20.0 19.90 -12.9 30.9 06 09 0016 0923 Alarm State:  0
Tue Jul 16 09:11:08 PDT 2024 ON: 19.99 +20.0 19.90 -12.9 30.9 06 09 0020 0903 Alarm State:  0
Tue Jul 16 09:10:06 PDT 2024 ON: 20.00 +20.0 19.91 -12.9 30.9 06 09 0029 0902 Alarm State:  0
Tue Jul 16 09:09:05 PDT 2024 ON: 20.00 +20.0 19.90 -12.9 30.9 06 09 0000 0917 Alarm State:  0
Tue Jul 16 09:08:03 PDT 2024 ON: 19.99 +20.0 19.90 -12.9 30.9 06 09 002C 0913 Alarm State:  0
Tue Jul 16 09:07:02 PDT 2024 ON: 20.00 +20.0 19.88 -12.9 31.0 06 0A 002A 092A Alarm State:  0
Tue Jul 16 09:06:00 PDT 2024 ON: 20.00 +20.0 19.90 -12.9 30.9 06 09 0009 0900 Alarm State:  0
Tue Jul 16 09:04:59 PDT 2024 ON: 20.00 +20.0 19.88 -12.9 30.9 06 0A 0013 0927 Alarm State:  0
Tue Jul 16 09:03:57 PDT 2024 ON: 19.99 +20.0 19.90 -12.9 30.9 06 09 0012 0918 Alarm State:  0
Tue Jul 16 09:02:56 PDT 2024 ON: 19.98 +20.0 19.89 -12.9 31.0 06 0A 0002 0A0C Alarm State:  0
Tue Jul 16 09:01:54 PDT 2024 ON: 20.00 +20.0 19.89 -12.9 30.8 06 0A 000D 090F Alarm State:  0
Tue Jul 16 09:00:53 PDT 2024 ON: 19.99 +20.0 19.90 -12.8 31.0 06 0A 0017 0A01 Alarm State:  0
Tue Jul 16 08:59:51 PDT 2024 ON: 20.00 +20.0 19.88 -12.9 30.9 06 0A 0022 0914 Alarm State:  0
Tue Jul 16 08:58:50 PDT 2024 ON: 20.00 +20.0 19.88 -12.9 31.0 06 0A 002D 091A Alarm State:  0
Tue Jul 16 08:57:48 PDT 2024 ON: 19.99 +20.0 19.88 -12.9 30.9 06 0A 0030 0929 Alarm State:  0
Tue Jul 16 08:56:47 PDT 2024 ON: 20.00 +20.0 19.91 -12.9 30.9 06 09 0002 0A08 Alarm State:  0
Tue Jul 16 08:55:45 PDT 2024 ON: 19.99 +20.0 19.90 -12.9 31.0 06 09 000B 0921 Alarm State:  0
Tue Jul 16 08:54:44 PDT 2024 ON: 20.00 +20.0 19.89 -12.9 30.9 06 0A 0015 0928 Alarm State:  0
Tue Jul 16 08:53:42 PDT 2024 ON: 20.01 +20.0 19.89 -12.9 31.0 06 0A 0020 0923 Alarm State:  0
Tue Jul 16 08:52:41 PDT 2024 ON: 19.98 +20.0 19.87 -12.9 31.0 06 0B 000C 0905 Alarm State:  0
Tue Jul 16 08:51:39 PDT 2024 ON: 20.00 +20.0 19.91 -12.9 31.0 06 09 0017 0901 Alarm State:  0
Tue Jul 16 08:50:37 PDT 2024 ON: 20.01 +20.0 19.92 -12.9 31.0 06 08 001B 0916 Alarm State:  0
Tue Jul 16 08:49:36 PDT 2024 ON: 20.00 +20.0 19.90 -12.9 31.0 06 09 0012 0926 Alarm State:  0
Tue Jul 16 08:48:34 PDT 2024 ON: 19.99 +20.0 19.89 -12.9 30.9 06 0A 001C 0902 Alarm State:  0
Tue Jul 16 08:47:23 PDT 2024 ON: 19.99 +20.0 19.87 -12.8 30.9 06 0B 0031 0929 Alarm State:  0
Tue Jul 16 08:46:22 PDT 2024 ON: 20.00 +20.0 19.90 -12.9 30.9 06 09 0008 0921 Alarm State:  0
Tue Jul 16 08:45:20 PDT 2024 ON: 20.00 +20.0 19.89 -12.9 30.9 06 0A 000D 0921 Alarm State:  0
Tue Jul 16 08:44:19 PDT 2024 ON: 19.99 +20.0 19.89 -12.8 31.0 06 0A 002C 092E Alarm State:  0